Wetterdaten: Samstag, 17.11.2018
Datum Zeit Temp. A. Pool Temp. Temp. 5cm Feuchte A. Luftdruck Regen Wind Richtung Richtung Sonnenschein ET UV Solar Taupunkt Windchill Windben Empfang
17.11.2018 00:00 3,4 C 6,7 C 2,2 C 88 % 1028,5 hPa 0,0 l/m 34,2 km/h (5 Bft) O 89 0 min 0,000 mm 0,0 UV-I 0 W/m 1,6 C -9,7 C 43,5 km/h (6 Bft) 100,00 %
17.11.2018 00:02 3,4 C 6,7 C 2,2 C 88 % 1028,5 hPa 0,0 l/m 33,8 km/h (5 Bft) O-NO 69 0 min 0,000 mm 0,0 UV-I 0 W/m 1,6 C -9,6 C 33,8 km/h (5 Bft) 97,83 %
17.11.2018 00:04 3,4 C 6,7 C 2,2 C 88 % 1028,6 hPa 0,0 l/m 32,5 km/h (5 Bft) O-NO 57 0 min 0,000 mm 0,0 UV-I 0 W/m 1,6 C -9,3 C 37,0 km/h (5 Bft) 93,62 %
17.11.2018 00:06 3,4 C 6,7 C 2,2 C 88 % 1028,6 hPa 0,0 l/m 25,2 km/h (4 Bft) O 92 0 min 0,000 mm 0,0 UV-I 0 W/m 1,6 C -7,2 C 32,2 km/h (5 Bft) 97,87 %
17.11.2018 00:08 3,3 C 6,7 C 2,2 C 88 % 1028,6 hPa 0,0 l/m 28,7 km/h (4 Bft) O-NO 71 0 min 0,000 mm 0,0 UV-I 0 W/m 1,5 C -8,4 C 43,5 km/h (6 Bft) 100,00 %
17.11.2018 00:10 3,3 C 6,7 C 2,2 C 88 % 1028,6 hPa 0,0 l/m 30,9 km/h (5 Bft) O-NO 63 0 min 0,000 mm 0,0 UV-I 0 W/m 1,5 C -9,0 C 41,8 km/h (6 Bft) 100,00 %
17.11.2018 00:12 3,3 C 6,7 C 2,2 C 88 % 1028,6 hPa 0,0 l/m 28,8 km/h (4 Bft) O-NO 62 0 min 0,000 mm 0,0 UV-I 0 W/m 1,5 C -8,4 C 40,2 km/h (6 Bft) 100,00 %
17.11.2018 00:14 3,3 C 6,7 C 2,2 C 88 % 1028,5 hPa 0,0 l/m 27,7 km/h (4 Bft) O 83 0 min 0,000 mm 0,0 UV-I 0 W/m 1,5 C -8,1 C 37,0 km/h (5 Bft) 97,92 %
17.11.2018 00:16 3,2 C 6,7 C 2,2 C 88 % 1028,6 hPa 0,0 l/m 23,7 km/h (4 Bft) O-NO 78 0 min 0,000 mm 0,0 UV-I 0 W/m 1,4 C -6,9 C 35,4 km/h (5 Bft) 100,00 %
17.11.2018 00:18 3,2 C 6,7 C 2,2 C 89 % 1028,6 hPa 0,0 l/m 25,2 km/h (4 Bft) O 81 0 min 0,000 mm 0,0 UV-I 0 W/m 1,6 C -7,4 C 38,6 km/h (5 Bft) 100,00 %
17.11.2018 00:20 3,2 C 6,7 C 2,2 C 89 % 1028,5 hPa 0,0 l/m 27,3 km/h (4 Bft) O-NO 71 0 min 0,000 mm 0,0 UV-I 0 W/m 1,6 C -8,1 C 38,6 km/h (5 Bft) 98,00 %
17.11.2018 00:22 3,2 C 6,7 C 2,2 C 89 % 1028,6 hPa 0,0 l/m 28,1 km/h (4 Bft) O 101 0 min 0,000 mm 0,0 UV-I 0 W/m 1,6 C -8,4 C 38,6 km/h (5 Bft) 100,00 %
17.11.2018 00:24 3,2 C 6,7 C 2,2 C 89 % 1028,5 hPa 0,0 l/m 30,9 km/h (5 Bft) O 86 0 min 0,000 mm 0,0 UV-I 0 W/m 1,6 C -9,1 C 40,2 km/h (6 Bft) 97,87 %
17.11.2018 00:26 3,2 C 6,7 C 2,2 C 89 % 1028,5 hPa 0,0 l/m 23,9 km/h (4 Bft) O 92 0 min 0,000 mm 0,0 UV-I 0 W/m 1,6 C -7,0 C 32,2 km/h (5 Bft) 95,74 %
17.11.2018 00:28 3,2 C 6,7 C 2,2 C 89 % 1028,4 hPa 0,0 l/m 26,5 km/h (4 Bft) O 82 0 min 0,000 mm 0,0 UV-I 0 W/m 1,6 C -7,9 C 37,0 km/h (5 Bft) 98,00 %
17.11.2018 00:30 3,2 C 6,7 C 2,2 C 89 % 1028,4 hPa 0,0 l/m 26,8 km/h (4 Bft) O-NO 72 0 min 0,000 mm 0,0 UV-I 0 W/m 1,6 C -8,0 C 38,6 km/h (5 Bft) 93,62 %
17.11.2018 00:32 3,2 C 6,7 C 2,2 C 89 % 1028,4 hPa 0,0 l/m 24,7 km/h (4 Bft) O-NO 69 0 min 0,000 mm 0,0 UV-I 0 W/m 1,6 C -7,3 C 32,2 km/h (5 Bft) 95,74 %
17.11.2018 00:34 3,2 C 6,7 C 2,2 C 89 % 1028,4 hPa 0,0 l/m 28,8 km/h (4 Bft) O 89 0 min 0,000 mm 0,0 UV-I 0 W/m 1,6 C -8,6 C 38,6 km/h (5 Bft) 91,49 %
17.11.2018 00:36 3,2 C 6,7 C 2,2 C 89 % 1028,4 hPa 0,0 l/m 27,9 km/h (4 Bft) O-SO 104 0 min 0,000 mm 0,0 UV-I 0 W/m 1,6 C -8,3 C 33,8 km/h (5 Bft) 95,74 %
17.11.2018 00:38 3,2 C 6,7 C 2,2 C 89 % 1028,4 hPa 0,0 l/m 25,5 km/h (4 Bft) O-NO 64 0 min 0,000 mm 0,0 UV-I 0 W/m 1,6 C -7,5 C 37,0 km/h (5 Bft) 95,74 %
17.11.2018 00:40 3,1 C 6,7 C 2,2 C 89 % 1028,4 hPa 0,0 l/m 26,4 km/h (4 Bft) O 86 0 min 0,000 mm 0,0 UV-I 0 W/m 1,5 C -8,0 C 35,4 km/h (5 Bft) 93,62 %
17.11.2018 00:42 3,1 C 6,7 C 2,2 C 89 % 1028,4 hPa 0,0 l/m 24,5 km/h (4 Bft) O-NO 74 0 min 0,000 mm 0,0 UV-I 0 W/m 1,5 C -7,3 C 32,2 km/h (5 Bft) 95,74 %
17.11.2018 00:44 3,1 C 6,7 C 2,2 C 89 % 1028,3 hPa 0,0 l/m 30,0 km/h (5 Bft) O-NO 78 0 min 0,000 mm 0,0 UV-I 0 W/m 1,5 C -9,0 C 38,6 km/h (5 Bft) 93,62 %
17.11.2018 00:46 3,1 C 6,7 C 2,2 C 89 % 1028,4 hPa 0,0 l/m 28,6 km/h (4 Bft) O 86 0 min 0,000 mm 0,0 UV-I 0 W/m 1,5 C -8,6 C 41,8 km/h (6 Bft) 93,62 %
17.11.2018 00:48 3,1 C 6,7 C 2,2 C 89 % 1028,4 hPa 0,0 l/m 26,7 km/h (4 Bft) O-NO 72 0 min 0,000 mm 0,0 UV-I 0 W/m 1,5 C -8,1 C 38,6 km/h (5 Bft) 95,74 %
17.11.2018 00:50 3,1 C 6,7 C 2,2 C 89 % 1028,4 hPa 0,0 l/m 27,9 km/h (4 Bft) O-NO 64 0 min 0,000 mm 0,0 UV-I 0 W/m 1,5 C -8,4 C 43,5 km/h (6 Bft) 95,74 %
17.11.2018 00:52 3,1 C 6,7 C 2,2 C 89 % 1028,4 hPa 0,0 l/m 26,5 km/h (4 Bft) O 89 0 min 0,000 mm 0,0 UV-I 0 W/m 1,5 C -8,0 C 40,2 km/h (6 Bft) 95,74 %
17.11.2018 00:54 3,1 C 6,7 C 2,2 C 89 % 1028,5 hPa 0,0 l/m 25,9 km/h (4 Bft) O-NO 69 0 min 0,000 mm 0,0 UV-I 0 W/m 1,5 C -7,8 C 35,4 km/h (5 Bft) 95,74 %
17.11.2018 00:56 3,1 C 6,7 C 2,2 C 89 % 1028,4 hPa 0,0 l/m 29,2 km/h (5 Bft) NO 54 0 min 0,000 mm 0,0 UV-I 0 W/m 1,5 C -8,8 C 37,0 km/h (5 Bft) 95,74 %
17.11.2018 00:58 3,1 C 6,7 C 2,2 C 89 % 1028,5 hPa 0,0 l/m 30,2 km/h (5 Bft) O-NO 63 0 min 0,000 mm 0,0 UV-I 0 W/m 1,5 C -9,1 C 38,6 km/h (5 Bft) 97,62 %
17.11.2018 01:00 3,1 C 6,7 C 2,2 C 89 % 1028,6 hPa 0,0 l/m 32,2 km/h (5 Bft) O 86 0 min 0,025 mm 0,0 UV-I 0 W/m 1,5 C -9,6 C 40,2 km/h (6 Bft) 97,92 %
17.11.2018 01:02 3,1 C 6,7 C 2,2 C 89 % 1028,6 hPa 0,0 l/m 26,3 km/h (4 Bft) O 85 0 min 0,000 mm 0,0 UV-I 0 W/m 1,5 C -7,9 C 35,4 km/h (5 Bft) 97,87 %
17.11.2018 01:04 3,1 C 6,7 C 1,7 C 89 % 1028,6 hPa 0,0 l/m 27,9 km/h (4 Bft) O-NO 66 0 min 0,000 mm 0,0 UV-I 0 W/m 1,5 C -8,4 C 35,4 km/h (5 Bft) 95,74 %
17.11.2018 01:06 3,0 C 6,7 C 2,2 C 89 % 1028,6 hPa 0,0 l/m 30,7 km/h (5 Bft) O-SO 107 0 min 0,000 mm 0,0 UV-I 0 W/m 1,4 C -9,4 C 41,8 km/h (6 Bft) 96,00 %
17.11.2018 01:08 3,0 C 6,7 C 1,7 C 89 % 1028,6 hPa 0,0 l/m 25,1 km/h (4 Bft) O-NO 66 0 min 0,000 mm 0,0 UV-I 0 W/m 1,4 C -7,7 C 33,8 km/h (5 Bft) 97,92 %
17.11.2018 01:10 2,9 C 6,7 C 1,7 C 89 % 1028,6 hPa 0,0 l/m 23,1 km/h (4 Bft) NO 55 0 min 0,000 mm 0,0 UV-I 0 W/m 1,3 C -7,1 C 35,4 km/h (5 Bft) 95,74 %
17.11.2018 01:12 2,9 C 6,7 C 1,7 C 89 % 1028,7 hPa 0,0 l/m 22,6 km/h (4 Bft) O-NO 59 0 min 0,000 mm 0,0 UV-I 0 W/m 1,3 C -6,9 C 30,6 km/h (5 Bft) 94,74 %
17.11.2018 01:14 2,9 C 6,7 C 1,7 C 89 % 1028,7 hPa 0,0 l/m 24,1 km/h (4 Bft) O 85 0 min 0,000 mm 0,0 UV-I 0 W/m 1,3 C -7,5 C 35,4 km/h (5 Bft) 95,74 %
17.11.2018 01:16 3,0 C 6,7 C 1,7 C 89 % 1028,8 hPa 0,0 l/m 29,0 km/h (5 Bft) O 92 0 min 0,000 mm 0,0 UV-I 0 W/m 1,4 C -8,9 C 40,2 km/h (6 Bft) 98,00 %
17.11.2018 01:18 3,0 C 6,7 C 1,7 C 89 % 1028,8 hPa 0,0 l/m 25,9 km/h (4 Bft) O 96 0 min 0,000 mm 0,0 UV-I 0 W/m 1,4 C -8,0 C 32,2 km/h (5 Bft) 97,87 %
17.11.2018 01:20 2,9 C 6,7 C 1,7 C 89 % 1028,8 hPa 0,0 l/m 23,9 km/h (4 Bft) O-NO 75 0 min 0,000 mm 0,0 UV-I 0 W/m 1,3 C -7,4 C 40,2 km/h (6 Bft) 95,74 %
17.11.2018 01:22 2,9 C 6,7 C 1,7 C 89 % 1028,9 hPa 0,0 l/m 19,3 km/h (3 Bft) O 90 0 min 0,000 mm 0,0 UV-I 0 W/m 1,3 C -5,6 C 29,0 km/h (5 Bft) 97,87 %
17.11.2018 01:24 2,9 C 6,7 C 1,7 C 89 % 1028,9 hPa 0,0 l/m 23,6 km/h (4 Bft) O 94 0 min 0,000 mm 0,0 UV-I 0 W/m 1,3 C -7,3 C 32,2 km/h (5 Bft) 97,87 %
17.11.2018 01:26 2,9 C 6,7 C 1,7 C 89 % 1028,9 hPa 0,0 l/m 24,3 km/h (4 Bft) O 97 0 min 0,000 mm 0,0 UV-I 0 W/m 1,3 C -7,5 C 37,0 km/h (5 Bft) 95,74 %
17.11.2018 01:28 2,9 C 6,7 C 1,7 C 89 % 1028,9 hPa 0,0 l/m 26,8 km/h (4 Bft) O-NO 69 0 min 0,000 mm 0,0 UV-I 0 W/m 1,3 C -8,4 C 33,8 km/h (5 Bft) 95,74 %
17.11.2018 01:30 2,9 C 6,7 C 1,7 C 89 % 1028,9 hPa 0,0 l/m 24,8 km/h (4 Bft) O-NO 59 0 min 0,000 mm 0,0 UV-I 0 W/m 1,3 C -7,7 C 35,4 km/h (5 Bft) 94,00 %
17.11.2018 01:32 2,9 C 6,7 C 1,7 C 89 % 1028,9 hPa 0,0 l/m 23,9 km/h (4 Bft) O 96 0 min 0,000 mm 0,0 UV-I 0 W/m 1,3 C -7,4 C 32,2 km/h (5 Bft) 91,49 %
17.11.2018 01:34 2,8 C 6,7 C 1,7 C 89 % 1028,9 hPa 0,0 l/m 21,7 km/h (4 Bft) O 84 0 min 0,000 mm 0,0 UV-I 0 W/m 1,2 C -6,7 C 29,0 km/h (5 Bft) 91,49 %
17.11.2018 01:36 2,8 C 6,7 C 1,7 C 89 % 1029,0 hPa 0,0 l/m 22,3 km/h (4 Bft) O-NO 71 0 min 0,000 mm 0,0 UV-I 0 W/m 1,2 C -6,9 C 33,8 km/h (5 Bft) 93,75 %
17.11.2018 01:38 2,8 C 6,7 C 1,7 C 89 % 1029,0 hPa 0,0 l/m 23,9 km/h (4 Bft) O-NO 63 0 min 0,000 mm 0,0 UV-I 0 W/m 1,2 C -7,5 C 32,2 km/h (5 Bft) 95,74 %
17.11.2018 01:40 2,8 C 6,7 C 1,7 C 89 % 1029,0 hPa 0,0 l/m 25,5 km/h (4 Bft) O-NO 75 0 min 0,000 mm 0,0 UV-I 0 W/m 1,2 C -8,1 C 40,2 km/h (6 Bft) 97,87 %
17.11.2018 01:42 2,8 C 6,7 C 1,7 C 90 % 1029,0 hPa 0,0 l/m 24,3 km/h (4 Bft) O-NO 71 0 min 0,000 mm 0,0 UV-I 0 W/m 1,3 C -7,7 C 32,2 km/h (5 Bft) 95,83 %
17.11.2018 01:44 2,7 C 6,7 C 1,7 C 90 % 1029,0 hPa 0,0 l/m 21,7 km/h (4 Bft) O-NO 65 0 min 0,000 mm 0,0 UV-I 0 W/m 1,2 C -6,8 C 27,4 km/h (4 Bft) 97,37 %
17.11.2018 01:46 2,7 C 6,7 C 1,7 C 90 % 1029,1 hPa 0,0 l/m 21,9 km/h (4 Bft) O 88 0 min 0,000 mm 0,0 UV-I 0 W/m 1,2 C -6,9 C 30,6 km/h (5 Bft) 95,74 %
17.11.2018 01:48 2,7 C 6,7 C 1,7 C 90 % 1029,0 hPa 0,0 l/m 24,6 km/h (4 Bft) O 94 0 min 0,000 mm 0,0 UV-I 0 W/m 1,2 C -7,9 C 38,6 km/h (5 Bft) 97,87 %
17.11.2018 01:50 2,7 C 6,7 C 1,7 C 90 % 1029,0 hPa 0,0 l/m 22,1 km/h (4 Bft) O 86 0 min 0,000 mm 0,0 UV-I 0 W/m 1,2 C -7,0 C 30,6 km/h (5 Bft) 98,00 %
17.11.2018 01:52 2,7 C 6,7 C 1,7 C 90 % 1029,0 hPa 0,0 l/m 20,9 km/h (4 Bft) O-NO 64 0 min 0,000 mm 0,0 UV-I 0 W/m 1,2 C -6,5 C 25,7 km/h (4 Bft) 95,74 %
17.11.2018 01:54 2,7 C 6,7 C 1,7 C 90 % 1029,0 hPa 0,0 l/m 23,7 km/h (4 Bft) O-NO 65 0 min 0,000 mm 0,0 UV-I 0 W/m 1,2 C -7,6 C 30,6 km/h (5 Bft) 95,74 %
17.11.2018 01:56 2,7 C 6,7 C 1,7 C 90 % 1029,0 hPa 0,0 l/m 21,9 km/h (4 Bft) O-NO 69 0 min 0,000 mm 0,0 UV-I 0 W/m 1,2 C -6,9 C 32,2 km/h (5 Bft) 95,74 %
17.11.2018 01:58 2,7 C 6,7 C 1,7 C 90 % 1029,0 hPa 0,0 l/m 20,8 km/h (4 Bft) O 92 0 min 0,000 mm 0,0 UV-I 0 W/m 1,2 C -6,5 C 30,6 km/h (5 Bft) 95,74 %
17.11.2018 02:00 2,7 C 6,7 C 1,7 C 90 % 1029,0 hPa 0,0 l/m 21,4 km/h (4 Bft) O-NO 63 0 min 0,026 mm 0,0 UV-I 0 W/m 1,2 C -6,7 C 27,4 km/h (4 Bft) 94,00 %
17.11.2018 02:02 2,6 C 6,7 C 1,7 C 90 % 1029,0 hPa 0,0 l/m 21,4 km/h (4 Bft) O 95 0 min 0,000 mm 0,0 UV-I 0 W/m 1,1 C -6,9 C 29,0 km/h (5 Bft) 97,87 %
17.11.2018 02:04 2,6 C 6,7 C 1,7 C 90 % 1029,0 hPa 0,0 l/m 25,1 km/h (4 Bft) O 86 0 min 0,000 mm 0,0 UV-I 0 W/m 1,1 C -8,2 C 33,8 km/h (5 Bft) 97,87 %
17.11.2018 02:06 2,6 C 6,7 C 1,7 C 90 % 1028,9 hPa 0,0 l/m 26,2 km/h (4 Bft) O 86 0 min 0,000 mm 0,0 UV-I 0 W/m 1,1 C -8,6 C 33,8 km/h (5 Bft) 95,74 %
17.11.2018 02:08 2,6 C 6,7 C 1,7 C 90 % 1029,0 hPa 0,0 l/m 25,0 km/h (4 Bft) O 91 0 min 0,000 mm 0,0 UV-I 0 W/m 1,1 C -8,2 C 33,8 km/h (5 Bft) 94,74 %
17.11.2018 02:10 2,6 C 6,7 C 1,7 C 90 % 1028,9 hPa 0,0 l/m 23,7 km/h (4 Bft) O-NO 61 0 min 0,000 mm 0,0 UV-I 0 W/m 1,1 C -7,7 C 37,0 km/h (5 Bft) 95,74 %
17.11.2018 02:12 2,6 C 6,7 C 1,7 C 90 % 1028,9 hPa 0,0 l/m 24,4 km/h (4 Bft) O-NO 72 0 min 0,000 mm 0,0 UV-I 0 W/m 1,1 C -8,0 C 33,8 km/h (5 Bft) 100,00 %
17.11.2018 02:14 2,6 C 6,7 C 1,1 C 90 % 1029,0 hPa 0,0 l/m 22,1 km/h (4 Bft) O 86 0 min 0,000 mm 0,0 UV-I 0 W/m 1,1 C -7,1 C 30,6 km/h (5 Bft) 100,00 %
17.11.2018 02:16 2,6 C 6,7 C 1,7 C 90 % 1028,9 hPa 0,0 l/m 25,9 km/h (4 Bft) O 90 0 min 0,000 mm 0,0 UV-I 0 W/m 1,1 C -8,5 C 38,6 km/h (5 Bft) 97,96 %
17.11.2018 02:18 2,6 C 6,7 C 1,1 C 90 % 1028,9 hPa 0,0 l/m 25,4 km/h (4 Bft) O 81 0 min 0,000 mm 0,0 UV-I 0 W/m 1,1 C -8,3 C 35,4 km/h (5 Bft) 100,00 %
17.11.2018 02:20 2,6 C 6,7 C 1,7 C 90 % 1028,9 hPa 0,0 l/m 28,2 km/h (4 Bft) O 80 0 min 0,000 mm 0,0 UV-I 0 W/m 1,1 C -9,2 C 40,2 km/h (6 Bft) 100,00 %
17.11.2018 02:22 2,6 C 6,7 C 1,7 C 90 % 1028,9 hPa 0,0 l/m 24,4 km/h (4 Bft) O-NO 57 0 min 0,000 mm 0,0 UV-I 0 W/m 1,1 C -8,0 C 35,4 km/h (5 Bft) 100,00 %
17.11.2018 02:24 2,6 C 6,7 C 1,1 C 90 % 1028,9 hPa 0,0 l/m 27,4 km/h (4 Bft) O 79 0 min 0,000 mm 0,0 UV-I 0 W/m 1,1 C -9,0 C 33,8 km/h (5 Bft) 100,00 %
17.11.2018 02:26 2,6 C 6,7 C 1,7 C 90 % 1028,9 hPa 0,0 l/m 28,0 km/h (4 Bft) O-NO 71 0 min 0,000 mm 0,0 UV-I 0 W/m 1,1 C -9,2 C 37,0 km/h (5 Bft) 97,87 %
17.11.2018 02:28 2,5 C 6,7 C 1,1 C 90 % 1029,0 hPa 0,0 l/m 23,3 km/h (4 Bft) O-NO 69 0 min 0,000 mm 0,0 UV-I 0 W/m 1,0 C -7,7 C 30,6 km/h (5 Bft) 97,56 %
17.11.2018 02:30 2,5 C 6,7 C 1,1 C 90 % 1029,0 hPa 0,0 l/m 24,1 km/h (4 Bft) O-NO 74 0 min 0,000 mm 0,0 UV-I 0 W/m 1,0 C -8,0 C 30,6 km/h (5 Bft) 97,87 %
17.11.2018 02:32 2,5 C 6,7 C 1,1 C 91 % 1029,0 hPa 0,0 l/m 21,6 km/h (4 Bft) O 97 0 min 0,000 mm 0,0 UV-I 0 W/m 1,2 C -7,1 C 29,0 km/h (5 Bft) 95,74 %
17.11.2018 02:34 2,5 C 6,7 C 1,1 C 91 % 1029,0 hPa 0,0 l/m 24,2 km/h (4 Bft) O 92 0 min 0,000 mm 0,0 UV-I 0 W/m 1,2 C -8,1 C 33,8 km/h (5 Bft) 100,00 %
17.11.2018 02:36 2,5 C 6,7 C 1,1 C 91 % 1029,0 hPa 0,0 l/m 22,7 km/h (4 Bft) O-NO 68 0 min 0,000 mm 0,0 UV-I 0 W/m 1,2 C -7,5 C 32,2 km/h (5 Bft) 95,74 %
17.11.2018 02:38 2,5 C 6,7 C 1,7 C 91 % 1029,0 hPa 0,0 l/m 27,5 km/h (4 Bft) O 91 0 min 0,000 mm 0,0 UV-I 0 W/m 1,2 C -9,2 C 35,4 km/h (5 Bft) 100,00 %
17.11.2018 02:40 2,5 C 6,7 C 1,1 C 91 % 1029,0 hPa 0,0 l/m 22,6 km/h (4 Bft) O-NO 71 0 min 0,000 mm 0,0 UV-I 0 W/m 1,2 C -7,5 C 32,2 km/h (5 Bft) 100,00 %
17.11.2018 02:42 2,4 C 6,7 C 1,1 C 91 % 1029,0 hPa 0,0 l/m 19,6 km/h (3 Bft) O-SO 103 0 min 0,000 mm 0,0 UV-I 0 W/m 1,1 C -6,4 C 27,4 km/h (4 Bft) 100,00 %
17.11.2018 02:44 2,4 C 6,7 C 1,1 C 91 % 1029,0 hPa 0,0 l/m 22,8 km/h (4 Bft) O-NO 60 0 min 0,000 mm 0,0 UV-I 0 W/m 1,1 C -7,7 C 30,6 km/h (5 Bft) 97,87 %
17.11.2018 02:46 2,4 C 6,7 C 1,1 C 91 % 1029,0 hPa 0,0 l/m 23,6 km/h (4 Bft) O-NO 57 0 min 0,000 mm 0,0 UV-I 0 W/m 1,1 C -8,0 C 30,6 km/h (5 Bft) 100,00 %
17.11.2018 02:48 2,4 C 6,7 C 1,1 C 91 % 1029,0 hPa 0,0 l/m 27,7 km/h (4 Bft) O 89 0 min 0,000 mm 0,0 UV-I 0 W/m 1,1 C -9,4 C 38,6 km/h (5 Bft) 100,00 %
17.11.2018 02:50 2,4 C 6,7 C 1,1 C 91 % 1029,0 hPa 0,0 l/m 27,4 km/h (4 Bft) O 96 0 min 0,000 mm 0,0 UV-I 0 W/m 1,1 C -9,3 C 41,8 km/h (6 Bft) 97,87 %
17.11.2018 02:52 2,4 C 6,7 C 1,1 C 91 % 1029,0 hPa 0,0 l/m 26,3 km/h (4 Bft) O 101 0 min 0,000 mm 0,0 UV-I 0 W/m 1,1 C -8,9 C 40,2 km/h (6 Bft) 97,92 %
17.11.2018 02:54 2,4 C 6,7 C 1,1 C 91 % 1029,0 hPa 0,0 l/m 25,2 km/h (4 Bft) O 90 0 min 0,000 mm 0,0 UV-I 0 W/m 1,1 C -8,5 C 37,0 km/h (5 Bft) 100,00 %
17.11.2018 02:56 2,4 C 6,7 C 1,1 C 91 % 1029,0 hPa 0,0 l/m 22,6 km/h (4 Bft) O-NO 65 0 min 0,000 mm 0,0 UV-I 0 W/m 1,1 C -7,6 C 37,0 km/h (5 Bft) 100,00 %
17.11.2018 02:58 2,4 C 6,7 C 1,1 C 91 % 1029,0 hPa 0,0 l/m 23,4 km/h (4 Bft) O-NO 71 0 min 0,000 mm 0,0 UV-I 0 W/m 1,1 C -7,9 C 32,2 km/h (5 Bft) 97,87 %
17.11.2018 03:00 2,4 C 6,7 C 1,1 C 91 % 1029,0 hPa 0,0 l/m 22,6 km/h (4 Bft) O 90 0 min 0,025 mm 0,0 UV-I 0 W/m 1,1 C -7,6 C 33,8 km/h (5 Bft) 97,87 %
17.11.2018 03:02 2,4 C 6,7 C 1,1 C 91 % 1029,0 hPa 0,0 l/m 23,9 km/h (4 Bft) O-NO 71 0 min 0,000 mm 0,0 UV-I 0 W/m 1,1 C -8,1 C 32,2 km/h (5 Bft) 96,00 %
17.11.2018 03:04 2,4 C 6,7 C 1,1 C 91 % 1029,0 hPa 0,0 l/m 22,1 km/h (4 Bft) O-NO 67 0 min 0,000 mm 0,0 UV-I 0 W/m 1,1 C -7,4 C 38,6 km/h (5 Bft) 100,00 %
17.11.2018 03:06 2,4 C 6,7 C 1,1 C 91 % 1028,9 hPa 0,0 l/m 26,3 km/h (4 Bft) O-NO 72 0 min 0,000 mm 0,0 UV-I 0 W/m 1,1 C -8,9 C 40,2 km/h (6 Bft) 95,74 %
17.11.2018 03:08 2,4 C 6,7 C 1,1 C 91 % 1029,0 hPa 0,0 l/m 23,1 km/h (4 Bft) O-NO 70 0 min 0,000 mm 0,0 UV-I 0 W/m 1,1 C -7,8 C 38,6 km/h (5 Bft) 95,74 %
17.11.2018 03:10 2,4 C 6,7 C 1,1 C 91 % 1029,0 hPa 0,0 l/m 24,4 km/h (4 Bft) O-NO 64 0 min 0,000 mm 0,0 UV-I 0 W/m 1,1 C -8,3 C 29,0 km/h (5 Bft) 97,87 %
17.11.2018 03:12 2,3 C 6,7 C 1,1 C 91 % 1028,9 hPa 0,0 l/m 24,6 km/h (4 Bft) O 101 0 min 0,000 mm 0,0 UV-I 0 W/m 1,0 C -8,5 C 38,6 km/h (5 Bft) 97,87 %
17.11.2018 03:14 2,3 C 6,7 C 1,1 C 91 % 1029,0 hPa 0,0 l/m 26,4 km/h (4 Bft) O 84 0 min 0,000 mm 0,0 UV-I 0 W/m 1,0 C -9,1 C 35,4 km/h (5 Bft) 97,87 %
17.11.2018 03:16 2,3 C 6,7 C 1,1 C 91 % 1029,0 hPa 0,0 l/m 23,5 km/h (4 Bft) O 81 0 min 0,000 mm 0,0 UV-I 0 W/m 1,0 C -8,1 C 29,0 km/h (5 Bft) 98,11 %
17.11.2018 03:18 2,3 C 6,7 C 1,1 C 91 % 1029,0 hPa 0,0 l/m 24,7 km/h (4 Bft) O-NO 66 0 min 0,000 mm 0,0 UV-I 0 W/m 1,0 C -8,5 C 32,2 km/h (5 Bft) 97,87 %
17.11.2018 03:20 2,3 C 6,7 C 1,1 C 91 % 1029,0 hPa 0,0 l/m 28,6 km/h (4 Bft) O-NO 61 0 min 0,000 mm 0,0 UV-I 0 W/m 1,0 C -9,8 C 38,6 km/h (5 Bft) 97,87 %
17.11.2018 03:22 2,3 C 6,7 C 1,1 C 91 % 1029,0 hPa 0,0 l/m 22,1 km/h (4 Bft) NO 52 0 min 0,000 mm 0,0 UV-I 0 W/m 1,0 C -7,5 C 32,2 km/h (5 Bft) 97,87 %
17.11.2018 03:24 2,3 C 6,7 C 1,1 C 91 % 1029,0 hPa 0,0 l/m 21,8 km/h (4 Bft) O-NO 67 0 min 0,000 mm 0,0 UV-I 0 W/m 1,0 C -7,4 C 29,0 km/h (5 Bft) 95,74 %
17.11.2018 03:26 2,3 C 6,7 C 1,1 C 91 % 1029,0 hPa 0,0 l/m 23,8 km/h (4 Bft) O-NO 68 0 min 0,000 mm 0,0 UV-I 0 W/m 1,0 C -8,2 C 35,4 km/h (5 Bft) 95,74 %
17.11.2018 03:28 2,3 C 6,7 C 1,1 C 91 % 1029,0 hPa 0,0 l/m 23,1 km/h (4 Bft) O-NO 69 0 min 0,000 mm 0,0 UV-I 0 W/m 1,0 C -7,9 C 35,4 km/h (5 Bft) 94,00 %
17.11.2018 03:30 2,3 C 6,7 C 1,1 C 91 % 1028,9 hPa 0,0 l/m 25,5 km/h (4 Bft) O 90 0 min 0,000 mm 0,0 UV-I 0 W/m 1,0 C -8,8 C 38,6 km/h (5 Bft) 97,22 %
17.11.2018 03:32 2,3 C 6,7 C 1,1 C 91 % 1028,9 hPa 0,0 l/m 24,6 km/h (4 Bft) O-NO 65 0 min 0,000 mm 0,0 UV-I 0 W/m 1,0 C -8,5 C 33,8 km/h (5 Bft) 95,74 %
17.11.2018 03:34 2,2 C 6,7 C 1,1 C 91 % 1029,0 hPa 0,0 l/m 23,4 km/h (4 Bft) O 86 0 min 0,000 mm 0,0 UV-I 0 W/m 0,9 C -8,2 C 30,6 km/h (5 Bft) 98,28 %
17.11.2018 03:36 2,2 C 6,7 C 1,1 C 91 % 1029,0 hPa 0,0 l/m 25,6 km/h (4 Bft) O-NO 76 0 min 0,000 mm 0,0 UV-I 0 W/m 0,9 C -8,9 C 33,8 km/h (5 Bft) 97,44 %
17.11.2018 03:38 2,2 C 6,7 C 1,1 C 91 % 1029,0 hPa 0,0 l/m 22,7 km/h (4 Bft) O-NO 57 0 min 0,000 mm 0,0 UV-I 0 W/m 0,9 C -7,9 C 33,8 km/h (5 Bft) 95,74 %
17.11.2018 03:40 2,2 C 6,7 C 1,1 C 91 % 1028,9 hPa 0,0 l/m 21,9 km/h (4 Bft) O-NO 76 0 min 0,000 mm 0,0 UV-I 0 W/m 0,9 C -7,6 C 30,6 km/h (5 Bft) 94,00 %
17.11.2018 03:42 2,2 C 6,7 C 1,1 C 91 % 1028,9 hPa 0,0 l/m 25,2 km/h (4 Bft) O 82 0 min 0,000 mm 0,0 UV-I 0 W/m 0,9 C -8,8 C 35,4 km/h (5 Bft) 93,62 %
17.11.2018 03:44 2,1 C 6,7 C 1,1 C 91 % 1028,9 hPa 0,0 l/m 25,1 km/h (4 Bft) O-NO 60 0 min 0,000 mm 0,0 UV-I 0 W/m 0,8 C -8,9 C 35,4 km/h (5 Bft) 95,74 %
17.11.2018 03:46 2,1 C 6,7 C 1,1 C 91 % 1028,9 hPa 0,0 l/m 26,6 km/h (4 Bft) O-SO 111 0 min 0,000 mm 0,0 UV-I 0 W/m 0,8 C -9,4 C 35,4 km/h (5 Bft) 97,87 %
17.11.2018 03:48 2,2 C 6,7 C 1,1 C 91 % 1028,9 hPa 0,0 l/m 27,1 km/h (4 Bft) O-SO 113 0 min 0,000 mm 0,0 UV-I 0 W/m 0,9 C -9,4 C 35,4 km/h (5 Bft) 98,00 %
17.11.2018 03:50 2,1 C 6,7 C 1,1 C 91 % 1028,9 hPa 0,0 l/m 27,2 km/h (4 Bft) O 91 0 min 0,000 mm 0,0 UV-I 0 W/m 0,8 C -9,6 C 33,8 km/h (5 Bft) 95,74 %
17.11.2018 03:52 2,2 C 6,7 C 1,1 C 91 % 1029,0 hPa 0,0 l/m 29,8 km/h (5 Bft) O-NO 73 0 min 0,000 mm 0,0 UV-I 0 W/m 0,9 C -10,3 C 40,2 km/h (6 Bft) 97,87 %
17.11.2018 03:54 2,2 C 6,7 C 1,1 C 91 % 1029,0 hPa 0,0 l/m 29,8 km/h (5 Bft) O 79 0 min 0,000 mm 0,0 UV-I 0 W/m 0,9 C -10,3 C 41,8 km/h (6 Bft) 93,62 %
17.11.2018 03:56 2,1 C 6,7 C 1,1 C 91 % 1029,0 hPa 0,0 l/m 25,7 km/h (4 Bft) NO 51 0 min 0,000 mm 0,0 UV-I 0 W/m 0,8 C -9,1 C 35,4 km/h (5 Bft) 94,29 %
17.11.2018 03:58 2,1 C 6,7 C 1,1 C 91 % 1029,0 hPa 0,0 l/m 29,1 km/h (5 Bft) O-NO 78 0 min 0,000 mm 0,0 UV-I 0 W/m 0,8 C -10,2 C 37,0 km/h (5 Bft) 93,88 %
17.11.2018 04:00 2,1 C 6,7 C 1,1 C 91 % 1029,0 hPa 0,0 l/m 27,0 km/h (4 Bft) O-NO 66 0 min 0,026 mm 0,0 UV-I 0 W/m 0,8 C -9,5 C 40,2 km/h (6 Bft) 97,96 %
17.11.2018 04:02 2,0 C 6,7 C 1,1 C 91 % 1028,9 hPa 0,0 l/m 25,6 km/h (4 Bft) O-NO 70 0 min 0,000 mm 0,0 UV-I 0 W/m 0,7 C -9,2 C 35,4 km/h (5 Bft) 96,77 %
17.11.2018 04:04 2,0 C 6,7 C 1,1 C 91 % 1029,0 hPa 0,0 l/m 27,3 km/h (4 Bft) O-NO 70 0 min 0,000 mm 0,0 UV-I 0 W/m 0,7 C -9,8 C 38,6 km/h (5 Bft) 100,00 %
17.11.2018 04:07 1,9 C 6,7 C 1,1 C 91 % 1028,8 hPa 0,0 l/m 26,9 km/h (4 Bft) O 98 0 min 0,000 mm 0,0 UV-I 0 W/m 0,6 C -9,8 C 37,0 km/h (5 Bft) 100,00 %
17.11.2018 04:08 1,9 C 6,7 C 1,1 C 91 % 1028,8 hPa 0,0 l/m 28,5 km/h (4 Bft) O 80 0 min 0,000 mm 0,0 UV-I 0 W/m 0,6 C -10,3 C 35,4 km/h (5 Bft) 100,00 %
17.11.2018 04:10 1,9 C 6,7 C 0,6 C 91 % 1028,9 hPa 0,0 l/m 24,0 km/h (4 Bft) O-NO 62 0 min 0,000 mm 0,0 UV-I 0 W/m 0,6 C -8,8 C 33,8 km/h (5 Bft) 100,00 %
17.11.2018 04:12 1,9 C 6,7 C 0,6 C 91 % 1029,0 hPa 0,0 l/m 26,1 km/h (4 Bft) O 86 0 min 0,000 mm 0,0 UV-I 0 W/m 0,6 C -9,5 C 41,8 km/h (6 Bft) 100,00 %
17.11.2018 04:14 1,8 C 6,7 C 0,6 C 92 % 1029,0 hPa 0,0 l/m 26,2 km/h (4 Bft) O-NO 78 0 min 0,000 mm 0,0 UV-I 0 W/m 0,6 C -9,7 C 38,6 km/h (5 Bft) 100,00 %
17.11.2018 04:16 1,8 C 6,7 C 0,6 C 92 % 1028,9 hPa 0,0 l/m 24,3 km/h (4 Bft) O-NO 65 0 min 0,000 mm 0,0 UV-I 0 W/m 0,6 C -9,0 C 33,8 km/h (5 Bft) 100,00 %
17.11.2018 04:18 1,8 C 6,7 C 0,6 C 92 % 1028,9 hPa 0,0 l/m 28,5 km/h (4 Bft) O-NO 74 0 min 0,000 mm 0,0 UV-I 0 W/m 0,6 C -10,4 C 41,8 km/h (6 Bft) 100,00 %
17.11.2018 04:20 1,8 C 6,7 C 0,6 C 92 % 1029,0 hPa 0,0 l/m 22,2 km/h (4 Bft) O 82 0 min 0,000 mm 0,0 UV-I 0 W/m 0,6 C -8,2 C 32,2 km/h (5 Bft) 95,74 %
17.11.2018 04:22 1,7 C 6,7 C 0,6 C 92 % 1029,0 hPa 0,0 l/m 26,1 km/h (4 Bft) O-NO 69 0 min 0,000 mm 0,0 UV-I 0 W/m 0,5 C -9,8 C 33,8 km/h (5 Bft) 98,00 %
17.11.2018 04:24 1,7 C 6,7 C 0,6 C 92 % 1028,9 hPa 0,0 l/m 27,8 km/h (4 Bft) O-NO 59 0 min 0,000 mm 0,0 UV-I 0 W/m 0,5 C -10,4 C 37,0 km/h (5 Bft) 95,74 %
17.11.2018 04:26 1,7 C 6,7 C 0,6 C 92 % 1029,0 hPa 0,0 l/m 22,7 km/h (4 Bft) O-NO 76 0 min 0,000 mm 0,0 UV-I 0 W/m 0,5 C -8,6 C 29,0 km/h (5 Bft) 97,87 %
17.11.2018 04:28 1,6 C 6,7 C 0,6 C 92 % 1029,0 hPa 0,0 l/m 24,9 km/h (4 Bft) O-NO 64 0 min 0,000 mm 0,0 UV-I 0 W/m 0,4 C -9,5 C 32,2 km/h (5 Bft) 95,74 %
17.11.2018 04:30 1,6 C 6,7 C 0,6 C 92 % 1029,0 hPa 0,0 l/m 24,0 km/h (4 Bft) O-NO 78 0 min 0,000 mm 0,0 UV-I 0 W/m 0,4 C -9,2 C 32,2 km/h (5 Bft) 96,23 %
17.11.2018 04:32 1,6 C 6,7 C 0,6 C 92 % 1029,0 hPa 0,0 l/m 24,8 km/h (4 Bft) NO 51 0 min 0,000 mm 0,0 UV-I 0 W/m 0,4 C -9,5 C 33,8 km/h (5 Bft) 97,87 %
17.11.2018 04:34 1,6 C 6,7 C 0,6 C 92 % 1029,0 hPa 0,0 l/m 25,4 km/h (4 Bft) O-NO 65 0 min 0,000 mm 0,0 UV-I 0 W/m 0,4 C -9,7 C 33,8 km/h (5 Bft) 95,74 %
17.11.2018 04:36 1,6 C 6,7 C 0,6 C 92 % 1028,9 hPa 0,0 l/m 26,2 km/h (4 Bft) O-NO 71 0 min 0,000 mm 0,0 UV-I 0 W/m 0,4 C -10,0 C 40,2 km/h (6 Bft) 97,87 %
17.11.2018 04:38 1,6 C 6,7 C 0,6 C 93 % 1028,9 hPa 0,0 l/m 25,9 km/h (4 Bft) O-NO 68 0 min 0,000 mm 0,0 UV-I 0 W/m 0,6 C -9,9 C 37,0 km/h (5 Bft) 97,87 %
17.11.2018 04:40 1,6 C 6,7 C 0,6 C 93 % 1028,9 hPa 0,0 l/m 26,3 km/h (4 Bft) O-NO 57 0 min 0,000 mm 0,0 UV-I 0 W/m 0,6 C -10,0 C 37,0 km/h (5 Bft) 94,29 %
17.11.2018 04:42 1,6 C 6,7 C 0,6 C 93 % 1028,9 hPa 0,0 l/m 25,4 km/h (4 Bft) O-NO 65 0 min 0,000 mm 0,0 UV-I 0 W/m 0,6 C -9,7 C 35,4 km/h (5 Bft) 97,87 %
17.11.2018 04:44 1,6 C 6,7 C 0,6 C 93 % 1028,9 hPa 0,0 l/m 28,0 km/h (4 Bft) O 96 0 min 0,000 mm 0,0 UV-I 0 W/m 0,6 C -10,6 C 41,8 km/h (6 Bft) 97,87 %
17.11.2018 04:46 1,6 C 6,7 C 0,6 C 93 % 1029,0 hPa 0,0 l/m 30,3 km/h (5 Bft) O-NO 58 0 min 0,000 mm 0,0 UV-I 0 W/m 0,6 C -11,2 C 41,8 km/h (6 Bft) 95,83 %
17.11.2018 04:48 1,6 C 6,7 C 0,6 C 93 % 1029,0 hPa 0,0 l/m 27,5 km/h (4 Bft) O 100 0 min 0,000 mm 0,0 UV-I 0 W/m 0,6 C -10,4 C 41,8 km/h (6 Bft) 97,87 %
17.11.2018 04:50 1,6 C 6,7 C 0,6 C 93 % 1029,0 hPa 0,0 l/m 29,1 km/h (5 Bft) O-NO 69 0 min 0,000 mm 0,0 UV-I 0 W/m 0,6 C -10,9 C 40,2 km/h (6 Bft) 95,74 %
17.11.2018 04:52 1,6 C 6,7 C 0,6 C 93 % 1029,0 hPa 0,0 l/m 27,9 km/h (4 Bft) O-NO 73 0 min 0,000 mm 0,0 UV-I 0 W/m 0,6 C -10,5 C 37,0 km/h (5 Bft) 93,62 %
17.11.2018 04:54 1,6 C 6,7 C 0,6 C 93 % 1029,1 hPa 0,0 l/m 25,1 km/h (4 Bft) O 88 0 min 0,000 mm 0,0 UV-I 0 W/m 0,6 C -9,6 C 33,8 km/h (5 Bft) 95,74 %
17.11.2018 04:56 1,5 C 6,7 C 0,6 C 93 % 1029,1 hPa 0,0 l/m 27,8 km/h (4 Bft) O-NO 60 0 min 0,000 mm 0,0 UV-I 0 W/m 0,5 C -10,6 C 33,8 km/h (5 Bft) 97,87 %
17.11.2018 04:58 1,5 C 6,7 C 0,6 C 93 % 1029,1 hPa 0,0 l/m 25,5 km/h (4 Bft) O 90 0 min 0,000 mm 0,0 UV-I 0 W/m 0,5 C -9,9 C 37,0 km/h (5 Bft) 97,87 %
17.11.2018 05:00 1,5 C 6,7 C 0,6 C 93 % 1029,0 hPa 0,0 l/m 24,7 km/h (4 Bft) O-NO 72 0 min 0,025 mm 0,0 UV-I 0 W/m 0,5 C -9,6 C 32,2 km/h (5 Bft) 95,74 %
17.11.2018 05:02 1,5 C 6,7 C 0,6 C 93 % 1029,0 hPa 0,0 l/m 28,5 km/h (4 Bft) O-NO 74 0 min 0,000 mm 0,0 UV-I 0 W/m 0,5 C -10,8 C 37,0 km/h (5 Bft) 93,62 %
17.11.2018 05:04 1,5 C 6,7 C 0,6 C 93 % 1029,0 hPa 0,0 l/m 30,8 km/h (5 Bft) O 93 0 min 0,000 mm 0,0 UV-I 0 W/m 0,5 C -11,5 C 38,6 km/h (5 Bft) 98,00 %
17.11.2018 05:06 1,6 C 6,7 C 0,6 C 93 % 1028,9 hPa 0,0 l/m 27,9 km/h (4 Bft) O-NO 57 0 min 0,000 mm 0,0 UV-I 0 W/m 0,6 C -10,5 C 41,8 km/h (6 Bft) 95,74 %
17.11.2018 05:08 1,6 C 6,7 C 0,6 C 93 % 1028,9 hPa 0,0 l/m 28,0 km/h (4 Bft) O-NO 74 0 min 0,000 mm 0,0 UV-I 0 W/m 0,6 C -10,6 C 40,2 km/h (6 Bft) 97,87 %
17.11.2018 05:10 1,6 C 6,7 C 0,6 C 93 % 1028,9 hPa 0,0 l/m 23,7 km/h (4 Bft) O-NO 71 0 min 0,000 mm 0,0 UV-I 0 W/m 0,6 C -9,1 C 35,4 km/h (5 Bft) 93,62 %
17.11.2018 05:12 1,5 C 6,7 C 0,6 C 93 % 1028,9 hPa 0,0 l/m 25,8 km/h (4 Bft) O-NO 66 0 min 0,000 mm 0,0 UV-I 0 W/m 0,5 C -10,0 C 33,8 km/h (5 Bft) 95,74 %
17.11.2018 05:14 1,5 C 6,7 C 0,6 C 93 % 1028,9 hPa 0,0 l/m 28,5 km/h (4 Bft) O 83 0 min 0,000 mm 0,0 UV-I 0 W/m 0,5 C -10,8 C 37,0 km/h (5 Bft) 93,62 %
17.11.2018 05:16 1,5 C 6,7 C 0,6 C 93 % 1028,8 hPa 0,0 l/m 26,6 km/h (4 Bft) O-NO 76 0 min 0,000 mm 0,0 UV-I 0 W/m 0,5 C -10,2 C 40,2 km/h (6 Bft) 95,74 %
17.11.2018 05:18 1,6 C 6,7 C 0,6 C 93 % 1028,8 hPa 0,0 l/m 28,9 km/h (5 Bft) O-NO 67 0 min 0,000 mm 0,0 UV-I 0 W/m 0,6 C -10,8 C 38,6 km/h (5 Bft) 97,87 %
17.11.2018 05:20 1,6 C 6,7 C 0,6 C 93 % 1028,8 hPa 0,0 l/m 26,0 km/h (4 Bft) O-SO 103 0 min 0,000 mm 0,0 UV-I 0 W/m 0,6 C -9,9 C 40,2 km/h (6 Bft) 93,62 %
17.11.2018 05:22 1,6 C 6,7 C 0,6 C 93 % 1028,7 hPa 0,0 l/m 24,4 km/h (4 Bft) O-NO 66 0 min 0,000 mm 0,0 UV-I 0 W/m 0,6 C -9,3 C 35,4 km/h (5 Bft) 94,00 %
17.11.2018 05:24 1,6 C 6,7 C 0,6 C 93 % 1028,8 hPa 0,0 l/m 26,7 km/h (4 Bft) O 93 0 min 0,000 mm 0,0 UV-I 0 W/m 0,6 C -10,1 C 41,8 km/h (6 Bft) 93,62 %
17.11.2018 05:26 1,6 C 6,7 C 0,6 C 93 % 1028,8 hPa 0,0 l/m 30,0 km/h (5 Bft) O 86 0 min 0,000 mm 0,0 UV-I 0 W/m 0,6 C -11,2 C 40,2 km/h (6 Bft) 97,56 %
17.11.2018 05:28 1,6 C 6,7 C 0,6 C 93 % 1028,8 hPa 0,0 l/m 30,2 km/h (5 Bft) O-SO 103 0 min 0,000 mm 0,0 UV-I 0 W/m 0,6 C -11,2 C 45,1 km/h (6 Bft) 92,00 %
17.11.2018 05:30 1,6 C 6,7 C 0,6 C 93 % 1028,7 hPa 0,0 l/m 22,3 km/h (4 Bft) O 101 0 min 0,000 mm 0,0 UV-I 0 W/m 0,6 C -8,5 C 33,8 km/h (5 Bft) 97,87 %
17.11.2018 05:32 1,6 C 6,7 C 0,6 C 92 % 1028,7 hPa 0,0 l/m 26,2 km/h (4 Bft) O-NO 66 0 min 0,000 mm 0,0 UV-I 0 W/m 0,4 C -10,0 C 35,4 km/h (5 Bft) 95,83 %
17.11.2018 05:34 1,5 C 6,7 C 0,6 C 92 % 1028,7 hPa 0,0 l/m 27,9 km/h (4 Bft) NO 47 0 min 0,000 mm 0,0 UV-I 0 W/m 0,3 C -10,7 C 35,4 km/h (5 Bft) 93,62 %
17.11.2018 05:36 1,5 C 6,7 C 0,6 C 92 % 1028,7 hPa 0,0 l/m 25,0 km/h (4 Bft) O-NO 63 0 min 0,000 mm 0,0 UV-I 0 W/m 0,3 C -9,7 C 35,4 km/h (5 Bft) 93,62 %
17.11.2018 05:38 1,5 C 6,7 C 0,6 C 92 % 1028,7 hPa 0,0 l/m 27,2 km/h (4 Bft) O-NO 64 0 min 0,000 mm 0,0 UV-I 0 W/m 0,3 C -10,4 C 35,4 km/h (5 Bft) 91,49 %
17.11.2018 05:40 1,4 C 6,7 C 0,6 C 92 % 1028,7 hPa 0,0 l/m 27,2 km/h (4 Bft) O-NO 74 0 min 0,000 mm 0,0 UV-I 0 W/m 0,2 C -10,6 C 41,8 km/h (6 Bft) 89,36 %
17.11.2018 05:42 1,5 C 6,7 C 0,6 C 92 % 1028,7 hPa 0,0 l/m 27,2 km/h (4 Bft) O-NO 78 0 min 0,000 mm 0,0 UV-I 0 W/m 0,3 C -10,4 C 35,4 km/h (5 Bft) 93,62 %
17.11.2018 05:44 1,5 C 6,7 C 0,6 C 92 % 1028,7 hPa 0,0 l/m 30,7 km/h (5 Bft) O-NO 62 0 min 0,000 mm 0,0 UV-I 0 W/m 0,3 C -11,5 C 40,2 km/h (6 Bft) 89,36 %
17.11.2018 05:46 1,5 C 6,7 C 0,6 C 92 % 1028,7 hPa 0,0 l/m 25,6 km/h (4 Bft) O-NO 67 0 min 0,000 mm 0,0 UV-I 0 W/m 0,3 C -9,9 C 33,8 km/h (5 Bft) 91,49 %
17.11.2018 05:48 1,4 C 6,7 C 0,6 C 92 % 1028,7 hPa 0,0 l/m 30,0 km/h (5 Bft) O-NO 76 0 min 0,000 mm 0,0 UV-I 0 W/m 0,2 C -11,4 C 41,8 km/h (6 Bft) 91,49 %
17.11.2018 05:50 1,4 C 6,7 C 0,6 C 92 % 1028,6 hPa 0,0 l/m 22,5 km/h (4 Bft) O-SO 107 0 min 0,000 mm 0,0 UV-I 0 W/m 0,2 C -8,9 C 38,6 km/h (5 Bft) 92,11 %
17.11.2018 05:52 1,4 C 6,7 C 0,6 C 92 % 1028,6 hPa 0,0 l/m 26,3 km/h (4 Bft) O-NO 65 0 min 0,000 mm 0,0 UV-I 0 W/m 0,2 C -10,3 C 41,8 km/h (6 Bft) 93,62 %
17.11.2018 05:54 1,4 C 6,1 C 0,6 C 92 % 1028,6 hPa 0,0 l/m 28,6 km/h (4 Bft) O 86 0 min 0,000 mm 0,0 UV-I 0 W/m 0,2 C -11,0 C 40,2 km/h (6 Bft) 93,62 %
17.11.2018 05:56 1,4 C 6,7 C 0,6 C 92 % 1028,6 hPa 0,0 l/m 28,7 km/h (4 Bft) O-NO 58 0 min 0,000 mm 0,0 UV-I 0 W/m 0,2 C -11,0 C 45,1 km/h (6 Bft) 91,67 %
17.11.2018 05:58 1,4 C 6,7 C 0,6 C 92 % 1028,6 hPa 0,0 l/m 29,5 km/h (5 Bft) O 92 0 min 0,000 mm 0,0 UV-I 0 W/m 0,2 C -11,3 C 38,6 km/h (5 Bft) 96,88 %
17.11.2018 06:00 1,4 C 6,1 C 0,6 C 92 % 1028,7 hPa 0,0 l/m 30,9 km/h (5 Bft) O-NO 61 0 min 0,025 mm 0,0 UV-I 0 W/m 0,2 C -11,7 C 43,5 km/h (6 Bft) 94,00 %
17.11.2018 06:02 1,4 C 6,1 C 0,6 C 92 % 1028,6 hPa 0,0 l/m 27,5 km/h (4 Bft) O 80 0 min 0,000 mm 0,0 UV-I 0 W/m 0,2 C -10,7 C 38,6 km/h (5 Bft) 97,14 %
17.11.2018 06:04 1,3 C 6,1 C 0,6 C 92 % 1028,7 hPa 0,0 l/m 25,7 km/h (4 Bft) O 86 0 min 0,000 mm 0,0 UV-I 0 W/m 0,1 C -10,2 C 41,8 km/h (6 Bft) 96,23 %
17.11.2018 06:06 1,3 C 6,1 C 0,6 C 92 % 1028,8 hPa 0,0 l/m 26,9 km/h (4 Bft) O 80 0 min 0,000 mm 0,0 UV-I 0 W/m 0,1 C -10,6 C 38,6 km/h (5 Bft) 97,87 %
17.11.2018 06:08 1,3 C 6,1 C 0,6 C 92 % 1028,8 hPa 0,0 l/m 25,9 km/h (4 Bft) O-NO 69 0 min 0,000 mm 0,0 UV-I 0 W/m 0,1 C -10,3 C 38,6 km/h (5 Bft) 100,00 %
17.11.2018 06:10 1,3 C 6,1 C 0,6 C 92 % 1028,8 hPa 0,0 l/m 23,7 km/h (4 Bft) O 90 0 min 0,000 mm 0,0 UV-I 0 W/m 0,1 C -9,5 C 37,0 km/h (5 Bft) 100,00 %
17.11.2018 06:12 1,3 C 6,1 C 0,0 C 92 % 1028,8 hPa 0,0 l/m 22,8 km/h (4 Bft) O 86 0 min 0,000 mm 0,0 UV-I 0 W/m 0,1 C -9,1 C 30,6 km/h (5 Bft) 97,92 %
17.11.2018 06:14 1,2 C 6,1 C 0,0 C 92 % 1028,8 hPa 0,0 l/m 20,8 km/h (4 Bft) O-NO 67 0 min 0,000 mm 0,0 UV-I 0 W/m 0,0 C -8,4 C 32,2 km/h (5 Bft) 100,00 %
17.11.2018 06:16 1,2 C 6,1 C 0,0 C 92 % 1028,8 hPa 0,0 l/m 25,3 km/h (4 Bft) NO 56 0 min 0,000 mm 0,0 UV-I 0 W/m 0,0 C -10,2 C 35,4 km/h (5 Bft) 100,00 %
17.11.2018 06:18 1,2 C 6,1 C 0,0 C 92 % 1028,9 hPa 0,0 l/m 23,5 km/h (4 Bft) O 94 0 min 0,000 mm 0,0 UV-I 0 W/m 0,0 C -9,5 C 32,2 km/h (5 Bft) 97,87 %
17.11.2018 06:20 1,2 C 6,1 C 0,0 C 93 % 1028,8 hPa 0,0 l/m 27,5 km/h (4 Bft) O-NO 58 0 min 0,000 mm 0,0 UV-I 0 W/m 0,2 C -10,9 C 33,8 km/h (5 Bft) 97,37 %
17.11.2018 06:22 1,1 C 6,1 C 0,0 C 92 % 1028,9 hPa 0,0 l/m 22,7 km/h (4 Bft) O 81 0 min 0,000 mm 0,0 UV-I 0 W/m -0,1 C -9,4 C 33,8 km/h (5 Bft) 98,00 %
17.11.2018 06:24 1,1 C 6,1 C 0,0 C 92 % 1028,8 hPa 0,0 l/m 20,6 km/h (4 Bft) O-NO 71 0 min 0,000 mm 0,0 UV-I 0 W/m -0,1 C -8,5 C 35,4 km/h (5 Bft) 100,00 %
17.11.2018 06:26 1,1 C 6,1 C 0,0 C 93 % 1028,9 hPa 0,0 l/m 27,7 km/h (4 Bft) O-NO 63 0 min 0,000 mm 0,0 UV-I 0 W/m 0,1 C -11,2 C 41,8 km/h (6 Bft) 97,87 %
17.11.2018 06:28 1,1 C 6,1 C 0,0 C 93 % 1028,9 hPa 0,0 l/m 23,5 km/h (4 Bft) O 83 0 min 0,000 mm 0,0 UV-I 0 W/m 0,1 C -9,7 C 30,6 km/h (5 Bft) 100,00 %
17.11.2018 06:30 1,1 C 6,1 C 0,0 C 93 % 1028,9 hPa 0,0 l/m 23,6 km/h (4 Bft) O-NO 70 0 min 0,000 mm 0,0 UV-I 0 W/m 0,1 C -9,7 C 32,2 km/h (5 Bft) 97,14 %
17.11.2018 06:32 1,1 C 6,1 C 0,0 C 93 % 1028,9 hPa 0,0 l/m 24,4 km/h (4 Bft) O-SO 105 0 min 0,000 mm 0,0 UV-I 0 W/m 0,1 C -10,0 C 33,8 km/h (5 Bft) 100,00 %
17.11.2018 06:34 1,1 C 6,1 C 0,0 C 93 % 1029,0 hPa 0,0 l/m 28,0 km/h (4 Bft) O 84 0 min 0,000 mm 0,0 UV-I 0 W/m 0,1 C -11,2 C 40,2 km/h (6 Bft) 100,00 %
17.11.2018 06:36 1,1 C 6,1 C 0,0 C 93 % 1028,9 hPa 0,0 l/m 25,6 km/h (4 Bft) O 88 0 min 0,000 mm 0,0 UV-I 0 W/m 0,1 C -10,4 C 41,8 km/h (6 Bft) 100,00 %
17.11.2018 06:38 1,1 C 6,1 C 0,0 C 93 % 1029,0 hPa 0,0 l/m 26,4 km/h (4 Bft) O 94 0 min 0,000 mm 0,0 UV-I 0 W/m 0,1 C -10,7 C 43,5 km/h (6 Bft) 100,00 %
17.11.2018 06:40 1,0 C 6,1 C 0,0 C 93 % 1029,0 hPa 0,0 l/m 25,4 km/h (4 Bft) O-NO 72 0 min 0,000 mm 0,0 UV-I 0 W/m -0,0 C -10,5 C 33,8 km/h (5 Bft) 100,00 %
17.11.2018 06:42 1,0 C 6,1 C 0,0 C 93 % 1029,1 hPa 0,0 l/m 28,1 km/h (4 Bft) O-SO 102 0 min 0,000 mm 0,0 UV-I 0 W/m -0,0 C -11,4 C 40,2 km/h (6 Bft) 100,00 %
17.11.2018 06:44 1,0 C 6,1 C 0,0 C 93 % 1029,1 hPa 0,0 l/m 26,2 km/h (4 Bft) O-NO 75 0 min 0,000 mm 0,0 UV-I 0 W/m -0,0 C -10,8 C 37,0 km/h (5 Bft) 100,00 %
17.11.2018 06:46 1,0 C 6,1 C 0,0 C 93 % 1029,1 hPa 0,0 l/m 24,2 km/h (4 Bft) O 92 0 min 0,000 mm 0,0 UV-I 0 W/m -0,0 C -10,1 C 32,2 km/h (5 Bft) 100,00 %
17.11.2018 06:48 0,9 C 6,1 C 0,0 C 93 % 1029,1 hPa 0,0 l/m 23,9 km/h (4 Bft) O 98 0 min 0,000 mm 0,0 UV-I 0 W/m -0,1 C -10,1 C 33,8 km/h (5 Bft) 100,00 %
17.11.2018 06:50 0,9 C 6,1 C 0,0 C 93 % 1029,0 hPa 0,0 l/m 21,4 km/h (4 Bft) O 81 0 min 0,000 mm 0,0 UV-I 0 W/m -0,1 C -9,1 C 30,6 km/h (5 Bft) 97,87 %
17.11.2018 06:52 0,9 C 6,1 C 0,0 C 93 % 1029,1 hPa 0,0 l/m 25,6 km/h (4 Bft) O 87 0 min 0,000 mm 0,0 UV-I 0 W/m -0,1 C -10,7 C 35,4 km/h (5 Bft) 95,74 %
17.11.2018 06:54 0,9 C 6,1 C 0,0 C 93 % 1029,1 hPa 0,0 l/m 21,9 km/h (4 Bft) O 84 0 min 0,000 mm 0,0 UV-I 0 W/m -0,1 C -9,3 C 30,6 km/h (5 Bft) 98,00 %
17.11.2018 06:56 0,8 C 6,1 C 0,0 C 93 % 1029,1 hPa 0,0 l/m 22,5 km/h (4 Bft) O 85 0 min 0,000 mm 0,0 UV-I 0 W/m -0,2 C -9,7 C 30,6 km/h (5 Bft) 91,49 %
17.11.2018 06:58 0,8 C 6,7 C 0,0 C 93 % 1029,1 hPa 0,0 l/m 23,4 km/h (4 Bft) O 90 0 min 0,000 mm 0,0 UV-I 0 W/m -0,2 C -10,0 C 32,2 km/h (5 Bft) 97,87 %
17.11.2018 07:00 0,8 C 6,1 C 0,0 C 93 % 1029,1 hPa 0,0 l/m 20,9 km/h (4 Bft) O-NO 76 0 min 0,026 mm 0,0 UV-I 2 W/m -0,2 C -9,0 C 29,0 km/h (5 Bft) 95,74 %
17.11.2018 07:02 0,8 C 6,1 C 0,0 C 93 % 1029,1 hPa 0,0 l/m 21,1 km/h (4 Bft) O 101 0 min 0,000 mm 0,0 UV-I 5 W/m -0,2 C -9,1 C 27,4 km/h (4 Bft) 97,37 %
17.11.2018 07:04 0,8 C 6,1 C 0,0 C 93 % 1029,1 hPa 0,0 l/m 24,8 km/h (4 Bft) O 94 0 min 0,000 mm 0,0 UV-I 5 W/m -0,2 C -10,6 C 33,8 km/h (5 Bft) 97,87 %
17.11.2018 07:06 0,8 C 6,1 C 0,0 C 93 % 1029,2 hPa 0,0 l/m 23,0 km/h (4 Bft) O-NO 76 0 min 0,000 mm 0,0 UV-I 5 W/m -0,2 C -9,9 C 32,2 km/h (5 Bft) 93,62 %
17.11.2018 07:08 0,8 C 6,1 C 0,0 C 93 % 1029,2 hPa 0,0 l/m 26,4 km/h (4 Bft) O 86 0 min 0,000 mm 0,0 UV-I 5 W/m -0,2 C -11,1 C 38,6 km/h (5 Bft) 97,87 %
17.11.2018 07:10 0,8 C 6,1 C 0,0 C 93 % 1029,2 hPa 0,0 l/m 24,6 km/h (4 Bft) O 92 0 min 0,000 mm 0,0 UV-I 7 W/m -0,2 C -10,5 C 37,0 km/h (5 Bft) 96,00 %
17.11.2018 07:12 0,8 C 6,1 C 0,0 C 93 % 1029,2 hPa 0,0 l/m 27,5 km/h (4 Bft) O-NO 73 0 min 0,000 mm 0,0 UV-I 7 W/m -0,2 C -11,5 C 43,5 km/h (6 Bft) 100,00 %
17.11.2018 07:14 0,8 C 6,1 C 0,0 C 93 % 1029,2 hPa 0,0 l/m 25,5 km/h (4 Bft) O 84 0 min 0,000 mm 0,0 UV-I 7 W/m -0,2 C -10,8 C 35,4 km/h (5 Bft) 95,74 %
17.11.2018 07:16 0,8 C 6,1 C 0,0 C 93 % 1029,2 hPa 0,0 l/m 26,7 km/h (4 Bft) O 98 0 min 0,000 mm 0,0 UV-I 9 W/m -0,2 C -11,2 C 38,6 km/h (5 Bft) 100,00 %
17.11.2018 07:18 0,8 C 6,1 C 0,0 C 93 % 1029,3 hPa 0,0 l/m 20,1 km/h (4 Bft) O-NO 72 0 min 0,000 mm 0,0 UV-I 9 W/m -0,2 C -8,6 C 27,4 km/h (4 Bft) 100,00 %
17.11.2018 07:20 0,7 C 6,1 C 0,0 C 93 % 1029,3 hPa 0,0 l/m 19,2 km/h (3 Bft) O-NO 71 0 min 0,000 mm 0,0 UV-I 11 W/m -0,3 C -8,4 C 30,6 km/h (5 Bft) 100,00 %
17.11.2018 07:22 0,7 C 6,1 C -0,6 C 93 % 1029,4 hPa 0,0 l/m 16,8 km/h (3 Bft) O 98 0 min 0,000 mm 0,0 UV-I 11 W/m -0,3 C -7,1 C 24,1 km/h (4 Bft) 96,00 %
17.11.2018 07:24 0,7 C 6,1 C -0,6 C 93 % 1029,4 hPa 0,0 l/m 17,1 km/h (3 Bft) O 89 0 min 0,000 mm 0,0 UV-I 12 W/m -0,3 C -7,3 C 24,1 km/h (4 Bft) 100,00 %
17.11.2018 07:26 0,6 C 6,1 C -0,6 C 93 % 1029,5 hPa 0,0 l/m 16,6 km/h (3 Bft) O-NO 65 2 min 0,000 mm 0,0 UV-I 14 W/m -0,4 C -7,2 C 22,5 km/h (4 Bft) 95,74 %
17.11.2018 07:28 0,6 C 6,1 C -0,6 C 93 % 1029,5 hPa 0,0 l/m 19,0 km/h (3 Bft) O-NO 74 2 min 0,000 mm 0,0 UV-I 17 W/m -0,4 C -8,4 C 27,4 km/h (4 Bft) 100,00 %
17.11.2018 07:30 0,6 C 6,1 C -0,6 C 93 % 1029,6 hPa 0,0 l/m 18,1 km/h (3 Bft) O 80 2 min 0,000 mm 0,0 UV-I 18 W/m -0,4 C -7,9 C 25,7 km/h (4 Bft) 95,74 %
17.11.2018 07:32 0,6 C 6,1 C -0,6 C 94 % 1029,6 hPa 0,0 l/m 20,6 km/h (4 Bft) O 90 2 min 0,000 mm 0,0 UV-I 19 W/m -0,3 C -9,1 C 32,2 km/h (5 Bft) 100,00 %
17.11.2018 07:34 0,6 C 6,1 C 0,0 C 94 % 1029,6 hPa 0,0 l/m 22,3 km/h (4 Bft) O-NO 76 0 min 0,000 mm 0,0 UV-I 20 W/m -0,3 C -9,9 C 30,6 km/h (5 Bft) 100,00 %
17.11.2018 07:36 0,6 C 6,1 C 0,0 C 94 % 1029,6 hPa 0,0 l/m 22,2 km/h (4 Bft) O-SO 103 0 min 0,000 mm 0,0 UV-I 23 W/m -0,3 C -9,8 C 29,0 km/h (5 Bft) 97,87 %
17.11.2018 07:38 0,6 C 6,1 C 0,0 C 94 % 1029,6 hPa 0,0 l/m 16,9 km/h (3 Bft) O-NO 61 0 min 0,000 mm 0,0 UV-I 25 W/m -0,3 C -7,3 C 24,1 km/h (4 Bft) 96,00 %
17.11.2018 07:40 0,6 C 6,1 C 0,0 C 93 % 1029,6 hPa 0,0 l/m 20,5 km/h (4 Bft) O 85 0 min 0,000 mm 0,0 UV-I 28 W/m -0,4 C -9,1 C 35,4 km/h (5 Bft) 94,74 %
17.11.2018 07:42 0,6 C 6,1 C 0,0 C 93 % 1029,7 hPa 0,0 l/m 19,1 km/h (3 Bft) O-NO 78 0 min 0,000 mm 0,0 UV-I 29 W/m -0,4 C -8,4 C 30,6 km/h (5 Bft) 98,00 %
17.11.2018 07:44 0,6 C 6,1 C 0,0 C 93 % 1029,7 hPa 0,0 l/m 17,2 km/h (3 Bft) O-NO 59 0 min 0,000 mm 0,0 UV-I 35 W/m -0,4 C -7,5 C 27,4 km/h (4 Bft) 93,62 %
17.11.2018 07:46 0,6 C 6,1 C 0,0 C 93 % 1029,7 hPa 0,0 l/m 18,1 km/h (3 Bft) O-NO 75 2 min 0,000 mm 0,0 UV-I 40 W/m -0,4 C -7,9 C 25,7 km/h (4 Bft) 97,87 %
17.11.2018 07:48 0,6 C 6,1 C 0,0 C 93 % 1029,7 hPa 0,0 l/m 19,9 km/h (4 Bft) O 87 2 min 0,000 mm 0,0 UV-I 43 W/m -0,4 C -8,8 C 27,4 km/h (4 Bft) 95,74 %
17.11.2018 07:51 0,6 C 6,1 C 0,0 C 93 % 1029,8 hPa 0,0 l/m 16,7 km/h (3 Bft) O-NO 66 3 min 0,000 mm 0,0 UV-I 49 W/m -0,4 C -7,2 C 22,5 km/h (4 Bft) 97,18 %
17.11.2018 07:52 0,6 C 6,1 C 0,0 C 93 % 1029,8 hPa 0,0 l/m 17,7 km/h (3 Bft) O 97 0 min 0,000 mm 0,0 UV-I 45 W/m -0,4 C -7,7 C 22,5 km/h (4 Bft) 95,65 %
17.11.2018 07:54 0,6 C 6,1 C 0,0 C 93 % 1029,8 hPa 0,0 l/m 19,8 km/h (3 Bft) O-NO 65 2 min 0,000 mm 0,0 UV-I 53 W/m -0,4 C -8,8 C 32,2 km/h (5 Bft) 97,87 %
17.11.2018 07:56 0,7 C 6,1 C 0,0 C 93 % 1029,9 hPa 0,0 l/m 15,3 km/h (3 Bft) O-NO 76 2 min 0,000 mm 0,0 UV-I 64 W/m -0,3 C -6,3 C 24,1 km/h (4 Bft) 98,00 %
17.11.2018 07:58 0,7 C 6,1 C 0,0 C 93 % 1029,9 hPa 0,0 l/m 16,2 km/h (3 Bft) O-NO 61 2 min 0,000 mm 0,0 UV-I 63 W/m -0,3 C -6,8 C 22,5 km/h (4 Bft) 97,73 %
17.11.2018 08:00 0,7 C 6,1 C 0,0 C 93 % 1030,0 hPa 0,0 l/m 16,0 km/h (3 Bft) O 88 2 min 0,025 mm 0,0 UV-I 66 W/m -0,3 C -6,7 C 25,7 km/h (4 Bft) 97,92 %
17.11.2018 08:02 0,7 C 6,1 C 0,0 C 93 % 1029,9 hPa 0,0 l/m 21,7 km/h (4 Bft) O 80 2 min 0,000 mm 0,0 UV-I 71 W/m -0,3 C -9,5 C 27,4 km/h (4 Bft) 95,74 %
17.11.2018 08:04 0,7 C 6,1 C 0,6 C 93 % 1030,0 hPa 0,0 l/m 16,6 km/h (3 Bft) O-NO 74 2 min 0,000 mm 0,0 UV-I 72 W/m -0,3 C -7,0 C 27,4 km/h (4 Bft) 94,00 %
17.11.2018 08:06 0,7 C 6,1 C 0,6 C 93 % 1029,9 hPa 0,0 l/m 18,4 km/h (3 Bft) O 83 2 min 0,000 mm 0,0 UV-I 73 W/m -0,3 C -8,0 C 25,7 km/h (4 Bft) 95,74 %
17.11.2018 08:08 0,7 C 6,1 C 0,6 C 93 % 1029,9 hPa 0,0 l/m 15,1 km/h (3 Bft) O 82 2 min 0,000 mm 0,0 UV-I 80 W/m -0,3 C -6,2 C 20,9 km/h (4 Bft) 97,87 %
17.11.2018 08:10 0,7 C 6,1 C 0,6 C 93 % 1029,9 hPa 0,0 l/m 20,7 km/h (4 Bft) O 98 2 min 0,000 mm 0,0 UV-I 84 W/m -0,3 C -9,0 C 29,0 km/h (5 Bft) 97,87 %
17.11.2018 08:12 0,7 C 6,1 C 0,6 C 93 % 1029,9 hPa 0,0 l/m 16,7 km/h (3 Bft) O-NO 63 2 min 0,000 mm 0,0 UV-I 82 W/m -0,3 C -7,1 C 25,7 km/h (4 Bft) 91,49 %
17.11.2018 08:14 0,7 C 6,1 C 0,6 C 93 % 1030,0 hPa 0,0 l/m 17,0 km/h (3 Bft) O 82 2 min 0,000 mm 0,0 UV-I 89 W/m -0,3 C -7,3 C 22,5 km/h (4 Bft) 92,11 %
17.11.2018 08:16 0,8 C 6,1 C 0,6 C 93 % 1030,0 hPa 0,0 l/m 14,2 km/h (3 Bft) O-NO 71 2 min 0,000 mm 0,0 UV-I 85 W/m -0,2 C -5,5 C 19,3 km/h (3 Bft) 95,74 %
17.11.2018 08:18 0,7 C 6,1 C 0,6 C 93 % 1030,0 hPa 0,0 l/m 17,3 km/h (3 Bft) O 81 2 min 0,000 mm 0,0 UV-I 95 W/m -0,3 C -7,4 C 25,7 km/h (4 Bft) 97,87 %
17.11.2018 08:20 0,8 C 6,1 C 1,1 C 93 % 1030,0 hPa 0,0 l/m 14,8 km/h (3 Bft) O-NO 70 2 min 0,000 mm 0,0 UV-I 100 W/m -0,2 C -5,9 C 20,9 km/h (4 Bft) 94,00 %
17.11.2018 08:22 0,8 C 6,1 C 1,1 C 93 % 1030,0 hPa 0,0 l/m 16,0 km/h (3 Bft) O-NO 57 2 min 0,000 mm 0,0 UV-I 106 W/m -0,2 C -6,6 C 25,7 km/h (4 Bft) 95,74 %
17.11.2018 08:24 0,8 C 6,1 C 1,1 C 93 % 1030,0 hPa 0,0 l/m 18,8 km/h (3 Bft) O 82 2 min 0,000 mm 0,0 UV-I 106 W/m -0,2 C -8,0 C 25,7 km/h (4 Bft) 98,00 %
17.11.2018 08:26 0,9 C 6,1 C 1,1 C 93 % 1029,9 hPa 0,0 l/m 18,9 km/h (3 Bft) O 87 2 min 0,000 mm 0,0 UV-I 111 W/m -0,1 C -8,0 C 25,7 km/h (4 Bft) 100,00 %
17.11.2018 08:28 0,9 C 6,1 C 1,1 C 93 % 1030,0 hPa 0,0 l/m 18,1 km/h (3 Bft) O-NO 77 2 min 0,000 mm 0,0 UV-I 115 W/m -0,1 C -7,6 C 27,4 km/h (4 Bft) 97,87 %
17.11.2018 08:30 0,9 C 6,1 C 1,1 C 93 % 1029,9 hPa 0,0 l/m 22,9 km/h (4 Bft) O 82 2 min 0,000 mm 0,0 UV-I 116 W/m -0,1 C -9,7 C 32,2 km/h (5 Bft) 100,00 %
17.11.2018 08:32 1,0 C 6,1 C 1,1 C 92 % 1030,0 hPa 0,0 l/m 18,4 km/h (3 Bft) O-NO 71 2 min 0,000 mm 0,0 UV-I 121 W/m -0,2 C -7,6 C 27,4 km/h (4 Bft) 100,00 %
17.11.2018 08:34 1,0 C 6,1 C 1,1 C 92 % 1030,0 hPa 0,0 l/m 15,6 km/h (3 Bft) O-NO 65 2 min 0,000 mm 0,0 UV-I 121 W/m -0,2 C -6,1 C 24,1 km/h (4 Bft) 100,00 %
17.11.2018 08:36 1,1 C 6,1 C 1,1 C 92 % 1030,0 hPa 0,0 l/m 17,9 km/h (3 Bft) O-NO 60 2 min 0,000 mm 0,0 UV-I 132 W/m -0,1 C -7,2 C 29,0 km/h (5 Bft) 97,87 %
17.11.2018 08:38 1,1 C 6,1 C 1,1 C 92 % 1030,0 hPa 0,0 l/m 17,2 km/h (3 Bft) NO 48 2 min 0,000 mm 0,0 UV-I 141 W/m -0,1 C -6,9 C 24,1 km/h (4 Bft) 100,00 %
17.11.2018 08:40 1,1 C 6,1 C 1,1 C 92 % 1030,0 hPa 0,0 l/m 17,0 km/h (3 Bft) O-SO 103 2 min 0,000 mm 0,0 UV-I 143 W/m -0,1 C -6,8 C 27,4 km/h (4 Bft) 100,00 %
17.11.2018 08:42 1,1 C 6,1 C 1,7 C 92 % 1030,0 hPa 0,0 l/m 18,8 km/h (3 Bft) O 86 2 min 0,000 mm 0,0 UV-I 145 W/m -0,1 C -7,7 C 29,0 km/h (5 Bft) 100,00 %
17.11.2018 08:44 1,2 C 6,1 C 1,7 C 92 % 1030,0 hPa 0,0 l/m 14,8 km/h (3 Bft) NO 53 2 min 0,000 mm 0,0 UV-I 148 W/m 0,0 C -5,4 C 27,4 km/h (4 Bft) 100,00 %
17.11.2018 08:46 1,2 C 6,1 C 1,7 C 92 % 1030,0 hPa 0,0 l/m 15,1 km/h (3 Bft) O 97 2 min 0,000 mm 0,0 UV-I 156 W/m 0,0 C -5,6 C 22,5 km/h (4 Bft) 97,87 %
17.11.2018 08:48 1,2 C 6,1 C 1,7 C 92 % 1030,0 hPa 0,0 l/m 18,0 km/h (3 Bft) O-NO 58 2 min 0,000 mm 0,0 UV-I 169 W/m 0,0 C -7,1 C 22,5 km/h (4 Bft) 100,00 %
17.11.2018 08:50 1,2 C 6,1 C 1,7 C 91 % 1029,9 hPa 0,0 l/m 19,9 km/h (4 Bft) O-NO 60 2 min 0,000 mm 0,0 UV-I 168 W/m -0,1 C -8,0 C 29,0 km/h (5 Bft) 95,74 %
17.11.2018 08:52 1,3 C 6,1 C 1,7 C 92 % 1029,9 hPa 0,0 l/m 16,7 km/h (3 Bft) O-NO 73 2 min 0,000 mm 0,0 UV-I 162 W/m 0,1 C -6,3 C 27,4 km/h (4 Bft) 100,00 %
17.11.2018 08:54 1,3 C 6,1 C 1,7 C 91 % 1029,9 hPa 0,0 l/m 20,9 km/h (4 Bft) O-NO 77 2 min 0,000 mm 0,0 UV-I 177 W/m -0,0 C -8,3 C 29,0 km/h (5 Bft) 98,00 %
17.11.2018 08:56 1,3 C 6,1 C 2,2 C 91 % 1029,9 hPa 0,0 l/m 16,7 km/h (3 Bft) O-NO 72 2 min 0,000 mm 0,0 UV-I 180 W/m -0,0 C -6,3 C 24,1 km/h (4 Bft) 100,00 %
17.11.2018 08:58 1,3 C 6,1 C 2,2 C 91 % 1030,0 hPa 0,0 l/m 20,4 km/h (4 Bft) O 84 2 min 0,000 mm 0,0 UV-I 193 W/m -0,0 C -8,1 C 32,2 km/h (5 Bft) 97,87 %
17.11.2018 09:00 1,3 C 6,1 C 2,2 C 91 % 1030,0 hPa 0,0 l/m 19,1 km/h (3 Bft) O-NO 66 2 min 0,051 mm 0,0 UV-I 181 W/m -0,0 C -7,5 C 29,0 km/h (5 Bft) 100,00 %
17.11.2018 09:02 1,3 C 6,1 C 2,2 C 91 % 1029,9 hPa 0,0 l/m 19,5 km/h (3 Bft) O-NO 72 2 min 0,000 mm 0,0 UV-I 187 W/m -0,0 C -7,7 C 33,8 km/h (5 Bft) 100,00 %
17.11.2018 09:04 1,4 C 6,1 C 2,2 C 91 % 1029,8 hPa 0,0 l/m 21,0 km/h (4 Bft) O 79 2 min 0,000 mm 0,0 UV-I 216 W/m 0,1 C -8,3 C 29,0 km/h (5 Bft) 100,00 %
17.11.2018 09:06 1,4 C 6,1 C 2,2 C 91 % 1029,9 hPa 0,0 l/m 22,8 km/h (4 Bft) O-NO 70 2 min 0,000 mm 0,0 UV-I 199 W/m 0,1 C -9,0 C 32,2 km/h (5 Bft) 100,00 %
17.11.2018 09:08 1,4 C 6,1 C 2,2 C 91 % 1029,8 hPa 0,0 l/m 20,7 km/h (4 Bft) O-NO 71 2 min 0,000 mm 0,0 UV-I 207 W/m 0,1 C -8,1 C 32,2 km/h (5 Bft) 97,87 %
17.11.2018 09:10 1,5 C 6,1 C 2,2 C 91 % 1029,8 hPa 0,0 l/m 23,9 km/h (4 Bft) O-NO 69 2 min 0,000 mm 0,0 UV-I 204 W/m 0,2 C -9,3 C 30,6 km/h (5 Bft) 100,00 %
17.11.2018 09:12 1,4 C 6,1 C 2,2 C 90 % 1029,9 hPa 0,0 l/m 23,4 km/h (4 Bft) O 80 2 min 0,000 mm 0,0 UV-I 210 W/m -0,1 C -9,2 C 30,6 km/h (5 Bft) 100,00 %
17.11.2018 09:14 1,4 C 6,1 C 2,2 C 90 % 1029,8 hPa 0,0 l/m 21,4 km/h (4 Bft) O 92 2 min 0,000 mm 0,0 UV-I 183 W/m -0,1 C -8,4 C 29,0 km/h (5 Bft) 98,11 %
17.11.2018 09:16 1,5 C 6,1 C 2,2 C 90 % 1029,9 hPa 0,0 l/m 20,8 km/h (4 Bft) NO 45 2 min 0,000 mm 0,0 UV-I 176 W/m 0,0 C -8,0 C 30,6 km/h (5 Bft) 97,87 %
17.11.2018 09:18 1,5 C 6,1 C 2,2 C 90 % 1029,8 hPa 0,0 l/m 18,2 km/h (3 Bft) O 88 2 min 0,000 mm 0,0 UV-I 172 W/m 0,0 C -6,9 C 25,7 km/h (4 Bft) 97,87 %
17.11.2018 09:20 1,5 C 6,1 C 2,2 C 90 % 1029,9 hPa 0,0 l/m 24,4 km/h (4 Bft) NO 55 2 min 0,000 mm 0,0 UV-I 171 W/m 0,0 C -9,5 C 33,8 km/h (5 Bft) 95,74 %
17.11.2018 09:22 1,5 C 6,1 C 2,2 C 90 % 1029,9 hPa 0,0 l/m 23,2 km/h (4 Bft) O 88 2 min 0,000 mm 0,0 UV-I 173 W/m 0,0 C -9,0 C 37,0 km/h (5 Bft) 95,83 %
17.11.2018 09:24 1,5 C 6,1 C 2,2 C 90 % 1029,9 hPa 0,0 l/m 20,0 km/h (4 Bft) O-NO 77 2 min 0,000 mm 0,0 UV-I 196 W/m 0,0 C -7,7 C 30,6 km/h (5 Bft) 95,74 %
17.11.2018 09:26 1,6 C 6,1 C 2,2 C 90 % 1029,9 hPa 0,0 l/m 21,8 km/h (4 Bft) O 96 2 min 0,000 mm 0,0 UV-I 217 W/m 0,1 C -8,3 C 32,2 km/h (5 Bft) 95,74 %
17.11.2018 09:28 1,6 C 6,1 C 2,2 C 90 % 1029,9 hPa 0,0 l/m 17,3 km/h (3 Bft) O-SO 119 2 min 0,000 mm 0,0 UV-I 188 W/m 0,1 C -6,3 C 29,0 km/h (5 Bft) 95,74 %
17.11.2018 09:30 1,6 C 6,1 C 2,8 C 90 % 1030,0 hPa 0,0 l/m 22,8 km/h (4 Bft) O 90 2 min 0,000 mm 0,0 UV-I 157 W/m 0,1 C -8,7 C 33,8 km/h (5 Bft) 92,11 %
17.11.2018 09:32 1,7 C 6,1 C 2,8 C 90 % 1030,0 hPa 0,0 l/m 24,4 km/h (4 Bft) O 94 2 min 0,000 mm 0,0 UV-I 242 W/m 0,2 C -9,2 C 35,4 km/h (5 Bft) 93,62 %
17.11.2018 09:34 1,7 C 6,1 C 2,8 C 90 % 1030,0 hPa 0,0 l/m 25,8 km/h (4 Bft) O 96 2 min 0,000 mm 0,0 UV-I 242 W/m 0,2 C -9,7 C 35,4 km/h (5 Bft) 95,74 %
17.11.2018 09:36 1,7 C 6,1 C 2,8 C 90 % 1030,0 hPa 0,0 l/m 23,1 km/h (4 Bft) O 101 2 min 0,000 mm 0,0 UV-I 238 W/m 0,2 C -8,7 C 32,2 km/h (5 Bft) 97,87 %
17.11.2018 09:38 1,8 C 6,1 C 2,8 C 89 % 1029,8 hPa 0,0 l/m 21,5 km/h (4 Bft) O 101 2 min 0,000 mm 0,0 UV-I 239 W/m 0,2 C -7,9 C 32,2 km/h (5 Bft) 98,00 %
17.11.2018 09:40 1,8 C 6,1 C 2,8 C 89 % 1029,9 hPa 0,0 l/m 25,0 km/h (4 Bft) O-NO 77 2 min 0,000 mm 0,0 UV-I 250 W/m 0,2 C -9,3 C 37,0 km/h (5 Bft) 94,00 %
17.11.2018 09:42 1,8 C 6,1 C 2,8 C 89 % 1030,0 hPa 0,0 l/m 26,3 km/h (4 Bft) O 83 2 min 0,000 mm 0,0 UV-I 256 W/m 0,2 C -9,7 C 33,8 km/h (5 Bft) 97,87 %
17.11.2018 09:44 1,8 C 6,1 C 2,8 C 89 % 1030,0 hPa 0,0 l/m 22,6 km/h (4 Bft) O 92 2 min 0,000 mm 0,0 UV-I 225 W/m 0,2 C -8,4 C 32,2 km/h (5 Bft) 94,29 %
17.11.2018 09:46 1,8 C 6,1 C 2,8 C 89 % 1029,9 hPa 0,0 l/m 21,1 km/h (4 Bft) O 91 2 min 0,000 mm 0,0 UV-I 262 W/m 0,2 C -7,8 C 27,4 km/h (4 Bft) 96,00 %
17.11.2018 09:48 1,9 C 6,1 C 2,8 C 89 % 1029,9 hPa 0,0 l/m 20,6 km/h (4 Bft) O 90 2 min 0,000 mm 0,0 UV-I 279 W/m 0,3 C -7,4 C 30,6 km/h (5 Bft) 97,87 %
17.11.2018 09:50 1,9 C 6,1 C 2,8 C 88 % 1030,0 hPa 0,0 l/m 22,5 km/h (4 Bft) O-SO 103 2 min 0,000 mm 0,0 UV-I 260 W/m 0,1 C -8,2 C 33,8 km/h (5 Bft) 98,00 %
17.11.2018 09:52 2,0 C 6,1 C 2,8 C 88 % 1029,9 hPa 0,0 l/m 21,0 km/h (4 Bft) O-NO 68 2 min 0,000 mm 0,0 UV-I 262 W/m 0,2 C -7,5 C 32,2 km/h (5 Bft) 100,00 %
17.11.2018 09:54 2,0 C 6,1 C 2,8 C 88 % 1029,9 hPa 0,0 l/m 20,2 km/h (4 Bft) O-NO 68 2 min 0,000 mm 0,0 UV-I 194 W/m 0,2 C -7,1 C 29,0 km/h (5 Bft) 100,00 %
17.11.2018 09:56 2,1 C 6,1 C 2,8 C 88 % 1029,9 hPa 0,0 l/m 20,1 km/h (4 Bft) O 91 0 min 0,000 mm 0,0 UV-I 170 W/m 0,3 C -7,0 C 29,0 km/h (5 Bft) 100,00 %
17.11.2018 09:58 2,1 C 6,1 C 2,8 C 88 % 1029,9 hPa 0,0 l/m 27,0 km/h (4 Bft) O-NO 75 2 min 0,000 mm 0,0 UV-I 222 W/m 0,3 C -9,5 C 45,1 km/h (6 Bft) 100,00 %
17.11.2018 10:00 2,1 C 6,1 C 2,8 C 88 % 1029,9 hPa 0,0 l/m 26,7 km/h (4 Bft) O-NO 72 0 min 0,102 mm 0,0 UV-I 150 W/m 0,3 C -9,4 C 37,0 km/h (5 Bft) 100,00 %
17.11.2018 10:02 2,1 C 6,1 C 2,8 C 88 % 1029,9 hPa 0,0 l/m 28,2 km/h (4 Bft) O-NO 69 2 min 0,000 mm 0,0 UV-I 199 W/m 0,3 C -9,9 C 35,4 km/h (5 Bft) 100,00 %
17.11.2018 10:04 2,1 C 6,1 C 2,8 C 88 % 1029,8 hPa 0,0 l/m 26,3 km/h (4 Bft) O 90 0 min 0,000 mm 0,0 UV-I 166 W/m 0,3 C -9,3 C 32,2 km/h (5 Bft) 95,74 %
17.11.2018 10:06 2,2 C 6,1 C 2,8 C 88 % 1029,8 hPa 0,0 l/m 20,3 km/h (4 Bft) O 82 2 min 0,000 mm 0,0 UV-I 289 W/m 0,4 C -6,9 C 33,8 km/h (5 Bft) 100,00 %
17.11.2018 10:08 2,2 C 6,1 C 2,8 C 88 % 1029,8 hPa 0,0 l/m 21,5 km/h (4 Bft) O-NO 73 2 min 0,000 mm 0,0 UV-I 292 W/m 0,4 C -7,4 C 29,0 km/h (5 Bft) 100,00 %
17.11.2018 10:10 2,3 C 6,1 C 3,3 C 87 % 1029,8 hPa 0,0 l/m 20,6 km/h (4 Bft) O 80 2 min 0,000 mm 0,0 UV-I 283 W/m 0,4 C -6,9 C 29,0 km/h (5 Bft) 100,00 %
17.11.2018 10:12 2,3 C 6,1 C 3,3 C 87 % 1029,8 hPa 0,0 l/m 20,5 km/h (4 Bft) O 92 2 min 0,000 mm 0,0 UV-I 287 W/m 0,4 C -6,9 C 30,6 km/h (5 Bft) 100,00 %
17.11.2018 10:14 2,3 C 6,1 C 3,3 C 87 % 1029,8 hPa 0,0 l/m 24,8 km/h (4 Bft) O-NO 59 2 min 0,000 mm 0,2 UV-I 256 W/m 0,4 C -8,5 C 32,2 km/h (5 Bft) 100,00 %
17.11.2018 10:16 2,4 C 6,1 C 2,8 C 87 % 1029,8 hPa 0,0 l/m 22,7 km/h (4 Bft) O 91 2 min 0,000 mm 0,5 UV-I 287 W/m 0,5 C -7,6 C 32,2 km/h (5 Bft) 100,00 %
17.11.2018 10:18 2,4 C 6,1 C 3,3 C 87 % 1029,9 hPa 0,0 l/m 16,3 km/h (3 Bft) O-NO 67 2 min 0,000 mm 0,5 UV-I 295 W/m 0,5 C -4,8 C 27,4 km/h (4 Bft) 100,00 %
17.11.2018 10:20 2,6 C 6,1 C 3,3 C 87 % 1029,9 hPa 0,0 l/m 19,2 km/h (3 Bft) O-NO 61 2 min 0,000 mm 0,5 UV-I 290 W/m 0,7 C -5,9 C 25,7 km/h (4 Bft) 100,00 %
17.11.2018 10:22 2,6 C 6,1 C 3,3 C 87 % 1030,0 hPa 0,0 l/m 23,4 km/h (4 Bft) O-NO 66 2 min 0,000 mm 0,5 UV-I 270 W/m 0,7 C -7,6 C 35,4 km/h (5 Bft) 100,00 %
17.11.2018 10:24 2,6 C 6,1 C 3,3 C 85 % 1030,0 hPa 0,0 l/m 20,0 km/h (4 Bft) O-NO 67 2 min 0,000 mm 0,5 UV-I 294 W/m 0,3 C -6,3 C 32,2 km/h (5 Bft) 100,00 %
17.11.2018 10:26 2,6 C 6,1 C 2,8 C 85 % 1030,0 hPa 0,0 l/m 22,5 km/h (4 Bft) O-NO 65 2 min 0,000 mm 0,5 UV-I 235 W/m 0,3 C -7,3 C 30,6 km/h (5 Bft) 96,00 %
17.11.2018 10:28 2,6 C 6,1 C 3,3 C 85 % 1029,9 hPa 0,0 l/m 18,9 km/h (3 Bft) O 86 2 min 0,000 mm 0,5 UV-I 260 W/m 0,3 C -5,8 C 25,7 km/h (4 Bft) 97,87 %
17.11.2018 10:30 2,6 C 6,1 C 3,3 C 86 % 1029,9 hPa 0,0 l/m 21,7 km/h (4 Bft) NO 48 2 min 0,000 mm 0,5 UV-I 307 W/m 0,5 C -7,0 C 30,6 km/h (5 Bft) 91,49 %
17.11.2018 10:32 2,6 C 6,1 C 3,3 C 85 % 1029,9 hPa 0,0 l/m 24,1 km/h (4 Bft) O 86 2 min 0,000 mm 0,5 UV-I 311 W/m 0,3 C -7,9 C 33,8 km/h (5 Bft) 94,44 %
17.11.2018 10:34 2,6 C 6,1 C 3,3 C 85 % 1029,9 hPa 0,0 l/m 24,5 km/h (4 Bft) O-SO 103 2 min 0,000 mm 0,5 UV-I 310 W/m 0,3 C -8,0 C 33,8 km/h (5 Bft) 93,62 %
17.11.2018 10:36 2,6 C 6,1 C 3,3 C 85 % 1029,9 hPa 0,0 l/m 25,8 km/h (4 Bft) O-NO 69 2 min 0,000 mm 0,5 UV-I 312 W/m 0,3 C -8,5 C 37,0 km/h (5 Bft) 93,62 %
17.11.2018 10:38 2,7 C 6,1 C 3,3 C 85 % 1029,7 hPa 0,0 l/m 22,4 km/h (4 Bft) O-NO 63 2 min 0,000 mm 0,5 UV-I 313 W/m 0,4 C -7,1 C 29,0 km/h (5 Bft) 94,00 %
17.11.2018 10:40 2,7 C 6,1 C 3,3 C 85 % 1029,7 hPa 0,0 l/m 23,2 km/h (4 Bft) O-NO 69 2 min 0,000 mm 0,5 UV-I 314 W/m 0,4 C -7,4 C 32,2 km/h (5 Bft) 93,62 %
17.11.2018 10:42 2,7 C 6,1 C 3,3 C 85 % 1029,8 hPa 0,0 l/m 23,4 km/h (4 Bft) O-NO 73 2 min 0,000 mm 0,5 UV-I 326 W/m 0,4 C -7,5 C 30,6 km/h (5 Bft) 93,62 %
17.11.2018 10:44 2,7 C 6,1 C 3,3 C 85 % 1029,7 hPa 0,0 l/m 24,3 km/h (4 Bft) O 92 2 min 0,000 mm 0,5 UV-I 318 W/m 0,4 C -7,8 C 32,2 km/h (5 Bft) 100,00 %
17.11.2018 10:46 2,7 C 6,1 C 3,3 C 85 % 1029,7 hPa 0,0 l/m 20,9 km/h (4 Bft) O-NO 74 2 min 0,000 mm 0,5 UV-I 324 W/m 0,4 C -6,5 C 29,0 km/h (5 Bft) 97,87 %
17.11.2018 10:48 2,8 C 6,1 C 3,3 C 85 % 1029,6 hPa 0,0 l/m 24,9 km/h (4 Bft) O-NO 77 2 min 0,000 mm 0,5 UV-I 326 W/m 0,5 C -7,9 C 32,2 km/h (5 Bft) 95,74 %
17.11.2018 10:50 2,8 C 6,1 C 3,3 C 84 % 1029,6 hPa 0,0 l/m 28,0 km/h (4 Bft) O-NO 59 2 min 0,000 mm 0,5 UV-I 325 W/m 0,4 C -8,9 C 38,6 km/h (5 Bft) 96,00 %
17.11.2018 10:52 2,8 C 6,1 C 3,3 C 84 % 1029,6 hPa 0,0 l/m 24,1 km/h (4 Bft) NO 40 2 min 0,000 mm 0,5 UV-I 327 W/m 0,4 C -7,6 C 33,8 km/h (5 Bft) 97,87 %
17.11.2018 10:54 2,8 C 6,1 C 3,3 C 84 % 1029,6 hPa 0,0 l/m 25,6 km/h (4 Bft) O-NO 63 2 min 0,000 mm 0,6 UV-I 323 W/m 0,4 C -8,1 C 35,4 km/h (5 Bft) 97,87 %
17.11.2018 10:56 2,8 C 6,1 C 3,3 C 84 % 1029,6 hPa 0,0 l/m 24,1 km/h (4 Bft) O 82 2 min 0,000 mm 0,6 UV-I 334 W/m 0,4 C -7,6 C 30,6 km/h (5 Bft) 97,87 %
17.11.2018 10:58 2,8 C 6,1 C 3,3 C 84 % 1029,6 hPa 0,0 l/m 26,0 km/h (4 Bft) O-NO 71 2 min 0,000 mm 0,6 UV-I 324 W/m 0,4 C -8,3 C 35,4 km/h (5 Bft) 97,87 %
17.11.2018 11:00 2,8 C 6,1 C 3,3 C 84 % 1029,6 hPa 0,0 l/m 25,3 km/h (4 Bft) NO 51 2 min 0,127 mm 0,6 UV-I 324 W/m 0,4 C -8,0 C 35,4 km/h (5 Bft) 94,74 %
17.11.2018 11:02 2,9 C 6,1 C 3,3 C 84 % 1029,6 hPa 0,0 l/m 26,6 km/h (4 Bft) O 92 2 min 0,000 mm 0,6 UV-I 321 W/m 0,5 C -8,3 C 33,8 km/h (5 Bft) 96,00 %
17.11.2018 11:04 2,9 C 6,1 C 3,3 C 84 % 1029,6 hPa 0,0 l/m 24,8 km/h (4 Bft) O-NO 69 2 min 0,000 mm 0,6 UV-I 323 W/m 0,5 C -7,7 C 32,2 km/h (5 Bft) 91,49 %
17.11.2018 11:06 2,9 C 6,1 C 3,3 C 84 % 1029,6 hPa 0,0 l/m 25,1 km/h (4 Bft) O-NO 76 2 min 0,000 mm 0,6 UV-I 333 W/m 0,5 C -7,8 C 35,4 km/h (5 Bft) 95,83 %
17.11.2018 11:08 2,9 C 6,1 C 3,3 C 84 % 1029,5 hPa 0,0 l/m 20,2 km/h (4 Bft) NO 43 2 min 0,000 mm 0,6 UV-I 332 W/m 0,5 C -6,0 C 30,6 km/h (5 Bft) 94,00 %
17.11.2018 11:10 3,1 C 6,1 C 3,9 C 84 % 1029,4 hPa 0,0 l/m 18,9 km/h (3 Bft) O 92 2 min 0,000 mm 0,6 UV-I 336 W/m 0,7 C -5,1 C 32,2 km/h (5 Bft) 94,00 %
17.11.2018 11:12 3,2 C 6,1 C 3,9 C 84 % 1029,2 hPa 0,0 l/m 23,1 km/h (4 Bft) O-NO 74 2 min 0,000 mm 0,6 UV-I 335 W/m 0,8 C -6,7 C 37,0 km/h (5 Bft) 95,74 %
17.11.2018 11:14 3,3 C 6,1 C 3,9 C 84 % 1029,2 hPa 0,0 l/m 23,7 km/h (4 Bft) O 100 2 min 0,000 mm 0,6 UV-I 337 W/m 0,9 C -6,8 C 33,8 km/h (5 Bft) 91,49 %
17.11.2018 11:16 3,4 C 6,1 C 3,9 C 83 % 1029,2 hPa 0,0 l/m 24,0 km/h (4 Bft) O 88 2 min 0,000 mm 0,6 UV-I 341 W/m 0,8 C -6,8 C 35,4 km/h (5 Bft) 94,74 %
17.11.2018 11:18 3,4 C 6,1 C 3,9 C 83 % 1029,4 hPa 0,0 l/m 19,7 km/h (3 Bft) O-NO 67 2 min 0,000 mm 0,6 UV-I 337 W/m 0,8 C -5,1 C 29,0 km/h (5 Bft) 95,74 %
17.11.2018 11:20 3,5 C 6,1 C 3,9 C 83 % 1029,4 hPa 0,0 l/m 23,7 km/h (4 Bft) O-NO 67 2 min 0,000 mm 0,6 UV-I 340 W/m 0,9 C -6,5 C 33,8 km/h (5 Bft) 96,23 %
17.11.2018 11:22 3,5 C 6,1 C 3,9 C 82 % 1029,3 hPa 0,0 l/m 23,8 km/h (4 Bft) NO 55 2 min 0,000 mm 0,6 UV-I 340 W/m 0,7 C -6,6 C 30,6 km/h (5 Bft) 93,62 %
17.11.2018 11:24 3,5 C 6,1 C 4,4 C 82 % 1029,4 hPa 0,0 l/m 24,3 km/h (4 Bft) O-NO 60 2 min 0,000 mm 0,6 UV-I 340 W/m 0,7 C -6,7 C 40,2 km/h (6 Bft) 92,11 %
17.11.2018 11:26 3,4 C 6,1 C 4,4 C 81 % 1029,3 hPa 0,0 l/m 28,6 km/h (4 Bft) O-NO 69 2 min 0,000 mm 0,6 UV-I 340 W/m 0,5 C -8,2 C 35,4 km/h (5 Bft) 91,49 %
17.11.2018 11:28 3,4 C 6,1 C 3,9 C 81 % 1029,3 hPa 0,0 l/m 29,3 km/h (5 Bft) O-NO 67 2 min 0,000 mm 0,6 UV-I 339 W/m 0,5 C -8,4 C 38,6 km/h (5 Bft) 91,49 %
17.11.2018 11:30 3,5 C 6,1 C 4,4 C 81 % 1029,2 hPa 0,0 l/m 29,3 km/h (5 Bft) O-NO 74 2 min 0,000 mm 0,6 UV-I 343 W/m 0,6 C -8,3 C 40,2 km/h (6 Bft) 97,87 %
17.11.2018 11:32 3,5 C 6,1 C 4,4 C 81 % 1029,2 hPa 0,0 l/m 29,4 km/h (5 Bft) O-NO 67 2 min 0,000 mm 0,6 UV-I 341 W/m 0,6 C -8,3 C 38,6 km/h (5 Bft) 95,74 %
17.11.2018 11:34 3,5 C 6,1 C 4,4 C 80 % 1029,3 hPa 0,0 l/m 28,5 km/h (4 Bft) O 82 2 min 0,000 mm 0,6 UV-I 341 W/m 0,4 C -8,1 C 38,6 km/h (5 Bft) 97,87 %
17.11.2018 11:36 3,5 C 6,1 C 4,4 C 81 % 1029,1 hPa 0,0 l/m 23,2 km/h (4 Bft) O 94 2 min 0,000 mm 0,6 UV-I 345 W/m 0,6 C -6,4 C 38,6 km/h (5 Bft) 97,87 %
17.11.2018 11:38 3,5 C 6,1 C 4,4 C 81 % 1029,1 hPa 0,0 l/m 23,3 km/h (4 Bft) O-NO 65 2 min 0,000 mm 0,6 UV-I 346 W/m 0,6 C -6,4 C 32,2 km/h (5 Bft) 93,62 %
17.11.2018 11:40 3,6 C 6,1 C 4,4 C 81 % 1029,1 hPa 0,0 l/m 22,9 km/h (4 Bft) O-NO 62 2 min 0,000 mm 0,6 UV-I 347 W/m 0,7 C -6,1 C 32,2 km/h (5 Bft) 96,00 %
17.11.2018 11:42 3,7 C 6,1 C 4,4 C 80 % 1029,1 hPa 0,0 l/m 26,6 km/h (4 Bft) O-NO 64 2 min 0,000 mm 0,6 UV-I 346 W/m 0,6 C -7,2 C 38,6 km/h (5 Bft) 93,62 %
17.11.2018 11:44 3,7 C 6,1 C 4,4 C 80 % 1029,2 hPa 0,0 l/m 29,1 km/h (5 Bft) O 90 2 min 0,000 mm 0,6 UV-I 345 W/m 0,6 C -8,0 C 37,0 km/h (5 Bft) 95,83 %
17.11.2018 11:46 3,7 C 6,1 C 4,4 C 79 % 1029,2 hPa 0,0 l/m 29,6 km/h (5 Bft) O 90 2 min 0,000 mm 0,6 UV-I 345 W/m 0,4 C -8,1 C 41,8 km/h (6 Bft) 92,00 %
17.11.2018 11:48 3,7 C 6,1 C 3,9 C 79 % 1029,2 hPa 0,0 l/m 24,5 km/h (4 Bft) O-NO 78 2 min 0,000 mm 0,6 UV-I 344 W/m 0,4 C -6,5 C 32,2 km/h (5 Bft) 95,74 %
17.11.2018 11:50 3,7 C 6,1 C 4,4 C 80 % 1029,2 hPa 0,0 l/m 20,3 km/h (4 Bft) O 82 2 min 0,000 mm 0,6 UV-I 344 W/m 0,6 C -5,0 C 29,0 km/h (5 Bft) 95,74 %
17.11.2018 11:52 3,8 C 6,1 C 4,4 C 80 % 1029,3 hPa 0,0 l/m 23,2 km/h (4 Bft) O 95 2 min 0,000 mm 0,6 UV-I 345 W/m 0,7 C -6,0 C 35,4 km/h (5 Bft) 92,11 %
17.11.2018 11:54 3,8 C 6,1 C 4,4 C 79 % 1029,1 hPa 0,0 l/m 26,3 km/h (4 Bft) O 97 2 min 0,000 mm 0,6 UV-I 344 W/m 0,5 C -7,0 C 33,8 km/h (5 Bft) 95,74 %
17.11.2018 11:56 3,8 C 6,1 C 4,4 C 79 % 1029,1 hPa 0,0 l/m 29,1 km/h (5 Bft) O 84 2 min 0,000 mm 0,6 UV-I 340 W/m 0,5 C -7,8 C 38,6 km/h (5 Bft) 96,00 %
17.11.2018 11:58 3,8 C 6,1 C 4,4 C 79 % 1029,2 hPa 0,0 l/m 25,1 km/h (4 Bft) O-NO 57 2 min 0,000 mm 0,6 UV-I 340 W/m 0,5 C -6,6 C 30,6 km/h (5 Bft) 95,74 %
17.11.2018 12:00 3,9 C 6,1 C 4,4 C 79 % 1029,2 hPa 0,0 l/m 25,7 km/h (4 Bft) NO 54 2 min 0,152 mm 0,6 UV-I 340 W/m 0,6 C -6,7 C 38,6 km/h (5 Bft) 97,87 %
17.11.2018 12:02 3,9 C 6,1 C 4,4 C 78 % 1029,0 hPa 0,0 l/m 23,4 km/h (4 Bft) O-NO 73 2 min 0,000 mm 0,6 UV-I 340 W/m 0,4 C -5,9 C 33,8 km/h (5 Bft) 97,87 %
17.11.2018 12:04 3,9 C 6,1 C 5,0 C 78 % 1029,1 hPa 0,0 l/m 21,0 km/h (4 Bft) O-NO 76 2 min 0,000 mm 0,6 UV-I 341 W/m 0,4 C -5,0 C 27,4 km/h (4 Bft) 95,74 %
17.11.2018 12:06 3,9 C 6,1 C 5,0 C 78 % 1029,1 hPa 0,0 l/m 22,5 km/h (4 Bft) O-NO 65 2 min 0,000 mm 0,6 UV-I 344 W/m 0,4 C -5,6 C 27,4 km/h (4 Bft) 96,00 %
17.11.2018 12:08 4,0 C 6,1 C 5,0 C 79 % 1029,1 hPa 0,0 l/m 20,9 km/h (4 Bft) O-NO 74 2 min 0,000 mm 0,6 UV-I 341 W/m 0,7 C -4,8 C 27,4 km/h (4 Bft) 97,87 %
17.11.2018 12:10 4,1 C 6,1 C 5,0 C 79 % 1029,1 hPa 0,0 l/m 20,8 km/h (4 Bft) O-NO 72 2 min 0,000 mm 0,6 UV-I 339 W/m 0,8 C -4,7 C 29,0 km/h (5 Bft) 97,22 %
17.11.2018 12:12 4,1 C 6,1 C 4,4 C 79 % 1029,1 hPa 0,0 l/m 22,0 km/h (4 Bft) O-NO 73 2 min 0,000 mm 0,6 UV-I 338 W/m 0,8 C -5,1 C 29,0 km/h (5 Bft) 96,23 %
17.11.2018 12:14 4,1 C 6,1 C 4,4 C 78 % 1029,1 hPa 0,0 l/m 22,0 km/h (4 Bft) O 100 2 min 0,000 mm 0,6 UV-I 340 W/m 0,6 C -5,1 C 30,6 km/h (5 Bft) 97,87 %
17.11.2018 12:16 4,2 C 6,1 C 4,4 C 77 % 1029,1 hPa 0,0 l/m 22,3 km/h (4 Bft) O 82 2 min 0,000 mm 0,6 UV-I 339 W/m 0,5 C -5,1 C 32,2 km/h (5 Bft) 95,74 %
17.11.2018 12:18 4,2 C 6,1 C 5,0 C 77 % 1029,0 hPa 0,0 l/m 23,4 km/h (4 Bft) O-NO 71 2 min 0,000 mm 0,6 UV-I 337 W/m 0,5 C -5,5 C 32,2 km/h (5 Bft) 97,87 %
17.11.2018 12:20 4,2 C 6,1 C 5,0 C 76 % 1028,9 hPa 0,0 l/m 25,1 km/h (4 Bft) O 97 2 min 0,000 mm 0,6 UV-I 338 W/m 0,4 C -6,1 C 32,2 km/h (5 Bft) 98,00 %
17.11.2018 12:22 4,3 C 6,1 C 5,0 C 76 % 1028,9 hPa 0,0 l/m 22,4 km/h (4 Bft) O-NO 60 2 min 0,000 mm 0,6 UV-I 337 W/m 0,5 C -5,0 C 30,6 km/h (5 Bft) 97,87 %
17.11.2018 12:24 4,3 C 6,1 C 5,0 C 76 % 1028,8 hPa 0,0 l/m 22,0 km/h (4 Bft) O-NO 69 2 min 0,000 mm 0,6 UV-I 338 W/m 0,5 C -4,9 C 32,2 km/h (5 Bft) 96,00 %
17.11.2018 12:26 4,3 C 6,1 C 5,0 C 75 % 1028,9 hPa 0,0 l/m 22,7 km/h (4 Bft) O-NO 69 2 min 0,000 mm 0,6 UV-I 335 W/m 0,3 C -5,1 C 33,8 km/h (5 Bft) 95,74 %
17.11.2018 12:28 4,4 C 6,1 C 5,0 C 75 % 1028,9 hPa 0,0 l/m 24,8 km/h (4 Bft) O-NO 67 2 min 0,000 mm 0,6 UV-I 334 W/m 0,4 C -5,7 C 37,0 km/h (5 Bft) 97,37 %
17.11.2018 12:30 4,4 C 6,1 C 4,4 C 75 % 1028,9 hPa 0,0 l/m 27,1 km/h (4 Bft) O-SO 113 2 min 0,000 mm 0,6 UV-I 329 W/m 0,4 C -6,4 C 33,8 km/h (5 Bft) 97,87 %
17.11.2018 12:32 4,4 C 6,1 C 5,0 C 75 % 1028,9 hPa 0,0 l/m 23,5 km/h (4 Bft) NO 52 2 min 0,000 mm 0,6 UV-I 327 W/m 0,4 C -5,3 C 30,6 km/h (5 Bft) 97,87 %
17.11.2018 12:34 4,4 C 6,1 C 5,0 C 75 % 1028,9 hPa 0,0 l/m 20,8 km/h (4 Bft) O 101 2 min 0,000 mm 0,6 UV-I 330 W/m 0,4 C -4,3 C 29,0 km/h (5 Bft) 94,00 %
17.11.2018 12:36 4,5 C 6,1 C 5,0 C 75 % 1028,9 hPa 0,0 l/m 23,8 km/h (4 Bft) O 86 2 min 0,000 mm 0,6 UV-I 326 W/m 0,5 C -5,2 C 32,2 km/h (5 Bft) 97,87 %
17.11.2018 12:38 4,6 C 6,1 C 5,0 C 75 % 1028,9 hPa 0,0 l/m 23,4 km/h (4 Bft) O-NO 58 2 min 0,000 mm 0,6 UV-I 324 W/m 0,6 C -5,0 C 32,2 km/h (5 Bft) 100,00 %
17.11.2018 12:40 4,6 C 6,1 C 5,0 C 74 % 1028,9 hPa 0,0 l/m 22,4 km/h (4 Bft) NO 54 2 min 0,000 mm 0,6 UV-I 325 W/m 0,4 C -4,6 C 30,6 km/h (5 Bft) 94,00 %
17.11.2018 12:42 4,7 C 6,1 C 5,6 C 75 % 1028,9 hPa 0,0 l/m 25,8 km/h (4 Bft) NO 53 2 min 0,000 mm 0,6 UV-I 324 W/m 0,7 C -5,6 C 35,4 km/h (5 Bft) 96,00 %
17.11.2018 12:44 4,7 C 6,1 C 5,6 C 74 % 1028,8 hPa 0,0 l/m 22,7 km/h (4 Bft) O-NO 76 2 min 0,000 mm 0,6 UV-I 322 W/m 0,5 C -4,6 C 32,2 km/h (5 Bft) 91,49 %
17.11.2018 12:46 4,7 C 6,1 C 5,6 C 74 % 1028,8 hPa 0,0 l/m 22,3 km/h (4 Bft) O 93 2 min 0,000 mm 0,6 UV-I 321 W/m 0,5 C -4,4 C 33,8 km/h (5 Bft) 93,62 %
17.11.2018 12:48 4,8 C 6,1 C 5,0 C 73 % 1028,7 hPa 0,0 l/m 24,2 km/h (4 Bft) O 95 2 min 0,000 mm 0,6 UV-I 320 W/m 0,4 C -5,0 C 33,8 km/h (5 Bft) 95,74 %
17.11.2018 12:50 4,8 C 6,1 C 5,6 C 74 % 1028,6 hPa 0,0 l/m 20,9 km/h (4 Bft) O-NO 67 2 min 0,000 mm 0,5 UV-I 317 W/m 0,6 C -3,8 C 33,8 km/h (5 Bft) 95,74 %
17.11.2018 12:52 4,8 C 6,1 C 5,0 C 73 % 1028,6 hPa 0,0 l/m 31,4 km/h (5 Bft) O-NO 71 2 min 0,000 mm 0,5 UV-I 316 W/m 0,4 C -7,0 C 43,5 km/h (6 Bft) 93,62 %
17.11.2018 12:54 4,7 C 6,1 C 5,0 C 73 % 1028,6 hPa 0,0 l/m 24,3 km/h (4 Bft) O-NO 62 2 min 0,000 mm 0,5 UV-I 315 W/m 0,3 C -5,1 C 37,0 km/h (5 Bft) 90,57 %
17.11.2018 12:56 4,7 C 6,1 C 5,6 C 74 % 1028,6 hPa 0,0 l/m 22,8 km/h (4 Bft) O-NO 58 2 min 0,000 mm 0,5 UV-I 311 W/m 0,5 C -4,6 C 33,8 km/h (5 Bft) 91,49 %
17.11.2018 12:58 4,8 C 6,1 C 5,6 C 74 % 1028,6 hPa 0,0 l/m 24,7 km/h (4 Bft) NO 55 2 min 0,000 mm 0,5 UV-I 308 W/m 0,6 C -5,1 C 37,0 km/h (5 Bft) 89,36 %
17.11.2018 13:00 4,8 C 6,1 C 5,6 C 74 % 1028,6 hPa 0,0 l/m 24,8 km/h (4 Bft) NO 42 2 min 0,178 mm 0,5 UV-I 309 W/m 0,6 C -5,2 C 38,6 km/h (5 Bft) 93,62 %
17.11.2018 13:02 4,9 C 6,1 C 5,6 C 74 % 1028,6 hPa 0,0 l/m 23,5 km/h (4 Bft) O-NO 63 2 min 0,000 mm 0,5 UV-I 308 W/m 0,7 C -4,6 C 33,8 km/h (5 Bft) 89,36 %
17.11.2018 13:04 4,9 C 6,1 C 5,6 C 74 % 1028,7 hPa 0,0 l/m 18,7 km/h (3 Bft) NO 54 2 min 0,000 mm 0,5 UV-I 306 W/m 0,7 C -2,8 C 29,0 km/h (5 Bft) 91,49 %
17.11.2018 13:06 5,0 C 6,1 C 5,6 C 74 % 1028,8 hPa 0,0 l/m 23,8 km/h (4 Bft) O-NO 64 2 min 0,000 mm 0,5 UV-I 304 W/m 0,8 C -4,6 C 33,8 km/h (5 Bft) 95,74 %
17.11.2018 13:08 4,9 C 6,1 C 5,6 C 72 % 1028,7 hPa 0,0 l/m 29,0 km/h (5 Bft) O-NO 67 2 min 0,000 mm 0,5 UV-I 302 W/m 0,3 C -6,3 C 38,6 km/h (5 Bft) 94,87 %
17.11.2018 13:10 4,9 C 6,1 C 5,6 C 73 % 1028,7 hPa 0,0 l/m 30,0 km/h (5 Bft) O 89 2 min 0,000 mm 0,5 UV-I 301 W/m 0,5 C -6,5 C 40,2 km/h (6 Bft) 95,74 %
17.11.2018 13:12 4,9 C 6,1 C 5,6 C 73 % 1028,6 hPa 0,0 l/m 25,5 km/h (4 Bft) NO 55 2 min 0,000 mm 0,5 UV-I 299 W/m 0,5 C -5,2 C 41,8 km/h (6 Bft) 97,87 %
17.11.2018 13:14 4,9 C 6,1 C 5,6 C 72 % 1028,6 hPa 0,0 l/m 26,5 km/h (4 Bft) O-NO 64 2 min 0,000 mm 0,5 UV-I 295 W/m 0,3 C -5,5 C 41,8 km/h (6 Bft) 97,87 %
17.11.2018 13:16 4,9 C 6,1 C 5,6 C 72 % 1028,6 hPa 0,0 l/m 25,7 km/h (4 Bft) O-NO 74 2 min 0,000 mm 0,5 UV-I 292 W/m 0,3 C -5,3 C 35,4 km/h (5 Bft) 98,00 %
17.11.2018 13:18 5,0 C 6,1 C 5,6 C 72 % 1028,6 hPa 0,0 l/m 25,2 km/h (4 Bft) O 88 2 min 0,000 mm 0,5 UV-I 290 W/m 0,4 C -5,0 C 37,0 km/h (5 Bft) 92,00 %
17.11.2018 13:20 4,9 C 6,1 C 5,6 C 72 % 1028,6 hPa 0,0 l/m 28,6 km/h (4 Bft) O 92 2 min 0,000 mm 0,5 UV-I 286 W/m 0,3 C -6,1 C 37,0 km/h (5 Bft) 98,00 %
17.11.2018 13:22 4,9 C 6,1 C 5,6 C 72 % 1028,6 hPa 0,0 l/m 24,5 km/h (4 Bft) O 79 2 min 0,000 mm 0,5 UV-I 283 W/m 0,3 C -4,9 C 37,0 km/h (5 Bft) 97,87 %
17.11.2018 13:24 5,0 C 6,1 C 5,6 C 71 % 1028,6 hPa 0,0 l/m 28,5 km/h (4 Bft) O-NO 69 2 min 0,000 mm 0,5 UV-I 282 W/m 0,2 C -6,0 C 41,8 km/h (6 Bft) 97,87 %
17.11.2018 13:26 5,0 C 6,1 C 5,6 C 72 % 1028,6 hPa 0,0 l/m 26,5 km/h (4 Bft) O-NO 67 2 min 0,000 mm 0,4 UV-I 279 W/m 0,4 C -5,4 C 38,6 km/h (5 Bft) 95,74 %
17.11.2018 13:28 5,0 C 6,1 C 5,0 C 71 % 1028,6 hPa 0,0 l/m 27,8 km/h (4 Bft) O 86 2 min 0,000 mm 0,0 UV-I 277 W/m 0,2 C -5,8 C 35,4 km/h (5 Bft) 94,29 %
17.11.2018 13:30 5,0 C 6,1 C 5,6 C 72 % 1028,5 hPa 0,0 l/m 20,5 km/h (4 Bft) O 90 2 min 0,000 mm 0,0 UV-I 273 W/m 0,4 C -3,4 C 32,2 km/h (5 Bft) 97,87 %
17.11.2018 13:32 5,1 C 6,1 C 5,6 C 71 % 1028,5 hPa 0,0 l/m 25,6 km/h (4 Bft) O 82 2 min 0,000 mm 0,0 UV-I 270 W/m 0,3 C -5,0 C 37,0 km/h (5 Bft) 98,00 %
17.11.2018 13:34 5,1 C 6,1 C 5,6 C 72 % 1028,4 hPa 0,0 l/m 26,1 km/h (4 Bft) O-NO 64 2 min 0,000 mm 0,0 UV-I 266 W/m 0,5 C -5,1 C 32,2 km/h (5 Bft) 96,00 %
17.11.2018 13:36 5,1 C 6,1 C 5,6 C 71 % 1028,6 hPa 0,0 l/m 24,7 km/h (4 Bft) O-SO 104 2 min 0,000 mm 0,0 UV-I 265 W/m 0,3 C -4,7 C 33,8 km/h (5 Bft) 97,87 %
17.11.2018 13:38 5,1 C 6,1 C 5,6 C 71 % 1028,5 hPa 0,0 l/m 24,7 km/h (4 Bft) O-NO 69 2 min 0,000 mm 0,0 UV-I 261 W/m 0,3 C -4,7 C 37,0 km/h (5 Bft) 94,00 %
17.11.2018 13:40 5,2 C 6,1 C 5,6 C 72 % 1028,4 hPa 0,0 l/m 22,6 km/h (4 Bft) O 81 2 min 0,000 mm 0,0 UV-I 261 W/m 0,6 C -3,9 C 30,6 km/h (5 Bft) 93,62 %
17.11.2018 13:42 5,2 C 6,1 C 5,6 C 72 % 1028,4 hPa 0,0 l/m 26,6 km/h (4 Bft) O-NO 65 2 min 0,000 mm 0,0 UV-I 259 W/m 0,6 C -5,2 C 38,6 km/h (5 Bft) 97,92 %
17.11.2018 13:44 5,2 C 6,1 C 5,0 C 70 % 1028,4 hPa 0,0 l/m 31,1 km/h (5 Bft) O 96 2 min 0,000 mm 0,0 UV-I 258 W/m 0,2 C -6,4 C 40,2 km/h (6 Bft) 94,74 %
17.11.2018 13:46 5,2 C 6,1 C 5,0 C 71 % 1028,3 hPa 0,0 l/m 28,7 km/h (4 Bft) O-NO 72 2 min 0,000 mm 0,0 UV-I 257 W/m 0,4 C -5,8 C 35,4 km/h (5 Bft) 97,87 %
17.11.2018 13:48 5,2 C 6,1 C 5,0 C 71 % 1028,4 hPa 0,0 l/m 23,6 km/h (4 Bft) O 90 2 min 0,000 mm 0,0 UV-I 254 W/m 0,4 C -4,2 C 33,8 km/h (5 Bft) 97,87 %
17.11.2018 13:50 5,2 C 6,1 C 5,0 C 71 % 1028,4 hPa 0,0 l/m 23,5 km/h (4 Bft) O-NO 61 2 min 0,000 mm 0,0 UV-I 251 W/m 0,4 C -4,2 C 33,8 km/h (5 Bft) 93,62 %
17.11.2018 13:52 5,3 C 6,1 C 5,0 C 70 % 1028,3 hPa 0,0 l/m 27,4 km/h (4 Bft) O-NO 76 2 min 0,000 mm 0,0 UV-I 247 W/m 0,3 C -5,3 C 33,8 km/h (5 Bft) 95,74 %
17.11.2018 13:54 5,3 C 6,1 C 5,6 C 70 % 1028,4 hPa 0,0 l/m 22,8 km/h (4 Bft) O-NO 77 2 min 0,000 mm 0,0 UV-I 244 W/m 0,3 C -3,8 C 30,6 km/h (5 Bft) 98,00 %
17.11.2018 13:56 5,3 C 6,1 C 5,6 C 69 % 1028,4 hPa 0,0 l/m 29,2 km/h (5 Bft) O 86 2 min 0,000 mm 0,0 UV-I 240 W/m 0,1 C -5,7 C 40,2 km/h (6 Bft) 98,00 %
17.11.2018 13:58 5,3 C 6,1 C 5,6 C 69 % 1028,4 hPa 0,0 l/m 25,0 km/h (4 Bft) O-SO 114 2 min 0,000 mm 0,0 UV-I 236 W/m 0,1 C -4,5 C 35,4 km/h (5 Bft) 95,74 %
17.11.2018 14:00 5,3 C 6,1 C 5,6 C 67 % 1028,4 hPa 0,0 l/m 28,4 km/h (4 Bft) O-NO 74 2 min 0,178 mm 0,0 UV-I 235 W/m -0,3 C -5,5 C 38,6 km/h (5 Bft) 94,74 %
17.11.2018 14:02 5,4 C 6,1 C 5,6 C 65 % 1028,4 hPa 0,0 l/m 28,0 km/h (4 Bft) NO 54 2 min 0,000 mm 0,0 UV-I 232 W/m -0,6 C -5,3 C 40,2 km/h (6 Bft) 96,00 %
17.11.2018 14:04 5,4 C 6,1 C 5,6 C 67 % 1028,4 hPa 0,0 l/m 25,7 km/h (4 Bft) O 89 2 min 0,000 mm 0,0 UV-I 228 W/m -0,2 C -4,6 C 41,8 km/h (6 Bft) 95,74 %
17.11.2018 14:06 5,5 C 6,1 C 5,6 C 65 % 1028,4 hPa 0,0 l/m 29,5 km/h (5 Bft) O 94 2 min 0,000 mm 0,0 UV-I 224 W/m -0,5 C -5,5 C 40,2 km/h (6 Bft) 97,87 %
17.11.2018 14:08 5,5 C 6,1 C 5,6 C 65 % 1028,5 hPa 0,0 l/m 25,9 km/h (4 Bft) O 84 2 min 0,000 mm 0,0 UV-I 222 W/m -0,5 C -4,5 C 37,0 km/h (5 Bft) 93,62 %
17.11.2018 14:10 5,5 C 6,1 C 5,6 C 65 % 1028,5 hPa 0,0 l/m 25,1 km/h (4 Bft) O 100 2 min 0,000 mm 0,0 UV-I 220 W/m -0,5 C -4,3 C 33,8 km/h (5 Bft) 95,74 %
17.11.2018 14:12 5,5 C 6,1 C 5,6 C 64 % 1028,6 hPa 0,0 l/m 28,0 km/h (4 Bft) O-NO 58 2 min 0,000 mm 0,0 UV-I 217 W/m -0,8 C -5,1 C 37,0 km/h (5 Bft) 96,00 %
17.11.2018 14:14 5,6 C 6,1 C 5,6 C 64 % 1028,5 hPa 0,0 l/m 22,6 km/h (4 Bft) O-SO 119 2 min 0,000 mm 0,0 UV-I 214 W/m -0,7 C -3,3 C 32,2 km/h (5 Bft) 91,49 %
17.11.2018 14:16 5,6 C 6,1 C 5,0 C 64 % 1028,5 hPa 0,0 l/m 23,0 km/h (4 Bft) O 90 2 min 0,000 mm 0,0 UV-I 209 W/m -0,7 C -3,5 C 30,6 km/h (5 Bft) 91,49 %
17.11.2018 14:18 5,6 C 6,1 C 5,0 C 64 % 1028,5 hPa 0,0 l/m 21,1 km/h (4 Bft) O-NO 69 2 min 0,000 mm 0,0 UV-I 207 W/m -0,7 C -2,8 C 30,6 km/h (5 Bft) 97,44 %
17.11.2018 14:20 5,6 C 6,1 C 5,0 C 63 % 1028,5 hPa 0,0 l/m 24,0 km/h (4 Bft) O-NO 76 2 min 0,000 mm 0,0 UV-I 203 W/m -0,9 C -3,8 C 33,8 km/h (5 Bft) 94,00 %
17.11.2018 14:22 5,6 C 6,1 C 5,0 C 63 % 1028,5 hPa 0,0 l/m 26,4 km/h (4 Bft) O-NO 73 2 min 0,000 mm 0,0 UV-I 199 W/m -0,9 C -4,6 C 38,6 km/h (5 Bft) 91,49 %
17.11.2018 14:24 5,6 C 6,1 C 5,0 C 63 % 1028,4 hPa 0,0 l/m 29,6 km/h (5 Bft) O 89 2 min 0,000 mm 0,0 UV-I 196 W/m -0,9 C -5,4 C 38,6 km/h (5 Bft) 93,62 %
17.11.2018 14:26 5,6 C 6,1 C 4,4 C 63 % 1028,5 hPa 0,0 l/m 25,1 km/h (4 Bft) O 84 2 min 0,000 mm 0,0 UV-I 192 W/m -0,9 C -4,2 C 32,2 km/h (5 Bft) 92,00 %
17.11.2018 14:28 5,6 C 6,1 C 4,4 C 62 % 1028,4 hPa 0,0 l/m 28,0 km/h (4 Bft) O 82 2 min 0,000 mm 0,0 UV-I 190 W/m -1,1 C -5,0 C 40,2 km/h (6 Bft) 95,74 %
17.11.2018 14:30 5,6 C 6,1 C 4,4 C 63 % 1028,4 hPa 0,0 l/m 24,8 km/h (4 Bft) NO 48 2 min 0,000 mm 0,0 UV-I 188 W/m -0,9 C -4,1 C 35,4 km/h (5 Bft) 93,62 %
17.11.2018 14:32 5,5 C 6,1 C 4,4 C 63 % 1028,3 hPa 0,0 l/m 27,4 km/h (4 Bft) O-NO 57 2 min 0,000 mm 0,0 UV-I 183 W/m -1,0 C -5,0 C 35,4 km/h (5 Bft) 93,62 %
17.11.2018 14:34 5,6 C 6,1 C 4,4 C 63 % 1028,3 hPa 0,0 l/m 25,2 km/h (4 Bft) O 82 2 min 0,000 mm 0,0 UV-I 179 W/m -0,9 C -4,2 C 35,4 km/h (5 Bft) 96,00 %
17.11.2018 14:36 5,6 C 6,1 C 4,4 C 64 % 1028,4 hPa 0,0 l/m 22,6 km/h (4 Bft) O 89 2 min 0,000 mm 0,0 UV-I 174 W/m -0,7 C -3,3 C 27,4 km/h (4 Bft) 93,62 %
17.11.2018 14:38 5,6 C 6,1 C 4,4 C 64 % 1028,4 hPa 0,0 l/m 21,0 km/h (4 Bft) O 92 2 min 0,000 mm 0,0 UV-I 172 W/m -0,7 C -2,8 C 30,6 km/h (5 Bft) 91,49 %
17.11.2018 14:40 5,5 C 6,1 C 4,4 C 63 % 1028,5 hPa 0,0 l/m 25,6 km/h (4 Bft) O-NO 59 2 min 0,000 mm 0,0 UV-I 168 W/m -1,0 C -4,5 C 33,8 km/h (5 Bft) 95,74 %
17.11.2018 14:42 5,5 C 6,1 C 4,4 C 63 % 1028,4 hPa 0,0 l/m 25,4 km/h (4 Bft) O-NO 71 2 min 0,000 mm 0,0 UV-I 163 W/m -1,0 C -4,4 C 33,8 km/h (5 Bft) 89,36 %
17.11.2018 14:44 5,5 C 6,1 C 4,4 C 62 % 1028,4 hPa 0,0 l/m 27,3 km/h (4 Bft) O-SO 108 2 min 0,000 mm 0,0 UV-I 160 W/m -1,2 C -4,9 C 43,5 km/h (6 Bft) 95,74 %
17.11.2018 14:46 5,5 C 6,1 C 4,4 C 62 % 1028,4 hPa 0,0 l/m 24,6 km/h (4 Bft) O-NO 69 2 min 0,000 mm 0,0 UV-I 156 W/m -1,2 C -4,1 C 37,0 km/h (5 Bft) 94,44 %
17.11.2018 14:48 5,4 C 6,1 C 4,4 C 63 % 1028,3 hPa 0,0 l/m 22,9 km/h (4 Bft) O 87 2 min 0,000 mm 0,0 UV-I 153 W/m -1,1 C -3,7 C 30,6 km/h (5 Bft) 95,74 %
17.11.2018 14:50 5,4 C 6,1 C 4,4 C 63 % 1028,4 hPa 0,0 l/m 25,4 km/h (4 Bft) O-NO 61 2 min 0,000 mm 0,0 UV-I 149 W/m -1,1 C -4,5 C 33,8 km/h (5 Bft) 93,62 %
17.11.2018 14:52 5,4 C 6,1 C 4,4 C 63 % 1028,4 hPa 0,0 l/m 26,5 km/h (4 Bft) NO 41 2 min 0,000 mm 0,0 UV-I 144 W/m -1,1 C -4,9 C 40,2 km/h (6 Bft) 96,00 %
17.11.2018 14:54 5,4 C 6,1 C 4,4 C 63 % 1028,3 hPa 0,0 l/m 27,3 km/h (4 Bft) O-NO 67 2 min 0,000 mm 0,0 UV-I 140 W/m -1,1 C -5,1 C 35,4 km/h (5 Bft) 97,87 %
17.11.2018 14:56 5,4 C 6,1 C 4,4 C 63 % 1028,4 hPa 0,0 l/m 21,3 km/h (4 Bft) O-NO 63 2 min 0,000 mm 0,0 UV-I 138 W/m -1,1 C -3,1 C 33,8 km/h (5 Bft) 93,62 %
17.11.2018 14:58 5,4 C 6,1 C 4,4 C 62 % 1028,4 hPa 0,0 l/m 26,7 km/h (4 Bft) O-NO 59 2 min 0,000 mm 0,0 UV-I 134 W/m -1,3 C -4,9 C 35,4 km/h (5 Bft) 100,00 %
17.11.2018 15:00 5,4 C 6,1 C 4,4 C 61 % 1028,4 hPa 0,0 l/m 26,0 km/h (4 Bft) O-NO 71 2 min 0,152 mm 0,0 UV-I 130 W/m -1,5 C -4,7 C 45,1 km/h (6 Bft) 100,00 %
17.11.2018 15:02 5,4 C 6,1 C 4,4 C 61 % 1028,4 hPa 0,0 l/m 30,6 km/h (5 Bft) O-NO 67 2 min 0,000 mm 0,0 UV-I 126 W/m -1,5 C -6,0 C 41,8 km/h (6 Bft) 97,87 %
17.11.2018 15:04 5,4 C 6,1 C 4,4 C 61 % 1028,5 hPa 0,0 l/m 28,7 km/h (4 Bft) O-NO 67 2 min 0,000 mm 0,0 UV-I 123 W/m -1,5 C -5,5 C 45,1 km/h (6 Bft) 100,00 %
17.11.2018 15:06 5,4 C 6,1 C 4,4 C 61 % 1028,4 hPa 0,0 l/m 30,9 km/h (5 Bft) O 80 2 min 0,000 mm 0,0 UV-I 119 W/m -1,5 C -6,0 C 41,8 km/h (6 Bft) 100,00 %
17.11.2018 15:08 5,4 C 6,1 C 4,4 C 61 % 1028,5 hPa 0,0 l/m 27,7 km/h (4 Bft) O 97 2 min 0,000 mm 0,0 UV-I 117 W/m -1,5 C -5,2 C 45,1 km/h (6 Bft) 100,00 %
17.11.2018 15:10 5,3 C 6,1 C 4,4 C 61 % 1028,6 hPa 0,0 l/m 28,7 km/h (4 Bft) O-NO 75 2 min 0,000 mm 0,0 UV-I 113 W/m -1,6 C -5,6 C 37,0 km/h (5 Bft) 98,00 %
17.11.2018 15:12 5,3 C 6,1 C 4,4 C 61 % 1028,6 hPa 0,0 l/m 24,3 km/h (4 Bft) NO 49 2 min 0,000 mm 0,0 UV-I 110 W/m -1,6 C -4,3 C 35,4 km/h (5 Bft) 94,29 %
17.11.2018 15:14 5,3 C 6,1 C 4,4 C 60 % 1028,6 hPa 0,0 l/m 27,3 km/h (4 Bft) O-NO 71 2 min 0,000 mm 0,0 UV-I 106 W/m -1,8 C -5,2 C 38,6 km/h (5 Bft) 97,87 %
17.11.2018 15:16 5,3 C 6,1 C 4,4 C 61 % 1028,7 hPa 0,0 l/m 24,1 km/h (4 Bft) O-NO 68 2 min 0,000 mm 0,0 UV-I 104 W/m -1,6 C -4,2 C 30,6 km/h (5 Bft) 100,00 %
17.11.2018 15:18 5,3 C 6,1 C 4,4 C 61 % 1028,6 hPa 0,0 l/m 28,3 km/h (4 Bft) NO 44 2 min 0,000 mm 0,0 UV-I 99 W/m -1,6 C -5,5 C 38,6 km/h (5 Bft) 100,00 %
17.11.2018 15:20 5,2 C 6,1 C 3,9 C 61 % 1028,6 hPa 0,0 l/m 23,0 km/h (4 Bft) O 81 2 min 0,000 mm 0,0 UV-I 97 W/m -1,7 C -4,0 C 32,2 km/h (5 Bft) 100,00 %
17.11.2018 15:22 5,2 C 6,1 C 3,9 C 61 % 1028,6 hPa 0,0 l/m 26,7 km/h (4 Bft) O 86 2 min 0,000 mm 0,0 UV-I 93 W/m -1,7 C -5,2 C 35,4 km/h (5 Bft) 100,00 %
17.11.2018 15:24 5,2 C 6,1 C 3,9 C 60 % 1028,6 hPa 0,0 l/m 24,3 km/h (4 Bft) O 80 2 min 0,000 mm 0,0 UV-I 91 W/m -1,9 C -4,4 C 37,0 km/h (5 Bft) 96,00 %
17.11.2018 15:26 5,2 C 6,1 C 3,9 C 61 % 1028,6 hPa 0,0 l/m 26,0 km/h (4 Bft) O-NO 71 2 min 0,000 mm 0,0 UV-I 87 W/m -1,7 C -5,0 C 41,8 km/h (6 Bft) 97,87 %
17.11.2018 15:28 5,1 C 6,1 C 3,9 C 61 % 1028,6 hPa 0,0 l/m 23,3 km/h (4 Bft) O-SO 112 2 min 0,000 mm 0,0 UV-I 84 W/m -1,8 C -4,3 C 32,2 km/h (5 Bft) 95,74 %
17.11.2018 15:30 5,1 C 6,1 C 3,9 C 61 % 1028,5 hPa 0,0 l/m 23,5 km/h (4 Bft) O-NO 68 2 min 0,000 mm 0,0 UV-I 80 W/m -1,8 C -4,3 C 30,6 km/h (5 Bft) 95,83 %
17.11.2018 15:32 5,1 C 6,1 C 3,9 C 61 % 1028,5 hPa 0,0 l/m 23,1 km/h (4 Bft) O-NO 59 2 min 0,000 mm 0,0 UV-I 78 W/m -1,8 C -4,2 C 33,8 km/h (5 Bft) 95,74 %
17.11.2018 15:34 5,1 C 6,1 C 3,9 C 61 % 1028,5 hPa 0,0 l/m 22,2 km/h (4 Bft) O 101 2 min 0,000 mm 0,0 UV-I 74 W/m -1,8 C -3,9 C 30,6 km/h (5 Bft) 93,62 %
17.11.2018 15:36 5,1 C 6,1 C 3,9 C 59 % 1028,5 hPa 0,0 l/m 25,8 km/h (4 Bft) O 81 2 min 0,000 mm 0,0 UV-I 71 W/m -2,2 C -5,1 C 41,8 km/h (6 Bft) 95,74 %
17.11.2018 15:38 5,1 C 6,1 C 3,9 C 60 % 1028,5 hPa 0,0 l/m 28,1 km/h (4 Bft) O 86 2 min 0,000 mm 0,0 UV-I 69 W/m -2,0 C -5,7 C 37,0 km/h (5 Bft) 100,00 %
17.11.2018 15:40 5,0 C 6,1 C 3,9 C 60 % 1028,5 hPa 0,0 l/m 24,1 km/h (4 Bft) O-NO 59 2 min 0,000 mm 0,0 UV-I 65 W/m -2,1 C -4,7 C 33,8 km/h (5 Bft) 98,00 %
17.11.2018 15:42 5,0 C 6,1 C 3,9 C 60 % 1028,5 hPa 0,0 l/m 25,6 km/h (4 Bft) O-NO 74 2 min 0,000 mm 0,0 UV-I 63 W/m -2,1 C -5,1 C 32,2 km/h (5 Bft) 95,74 %
17.11.2018 15:44 5,0 C 6,1 C 3,9 C 59 % 1028,4 hPa 0,0 l/m 27,4 km/h (4 Bft) O-NO 74 2 min 0,000 mm 0,0 UV-I 60 W/m -2,3 C -5,7 C 38,6 km/h (5 Bft) 95,74 %
17.11.2018 15:46 5,0 C 6,1 C 3,9 C 59 % 1028,5 hPa 0,0 l/m 22,0 km/h (4 Bft) O 86 2 min 0,000 mm 0,0 UV-I 56 W/m -2,3 C -3,9 C 32,2 km/h (5 Bft) 98,11 %
17.11.2018 15:48 4,9 C 6,1 C 3,9 C 59 % 1028,5 hPa 0,0 l/m 20,0 km/h (4 Bft) O-NO 61 2 min 0,000 mm 0,0 UV-I 54 W/m -2,4 C -3,3 C 25,7 km/h (4 Bft) 97,14 %
17.11.2018 15:50 4,9 C 6,1 C 3,9 C 59 % 1028,5 hPa 0,0 l/m 29,0 km/h (5 Bft) O 82 2 min 0,000 mm 0,0 UV-I 51 W/m -2,4 C -6,3 C 41,8 km/h (6 Bft) 98,00 %
17.11.2018 15:52 4,9 C 6,1 C 3,9 C 59 % 1028,5 hPa 0,0 l/m 20,7 km/h (4 Bft) O-NO 67 2 min 0,000 mm 0,0 UV-I 48 W/m -2,4 C -3,6 C 30,6 km/h (5 Bft) 100,00 %
17.11.2018 15:54 4,9 C 6,1 C 3,3 C 59 % 1028,6 hPa 0,0 l/m 26,5 km/h (4 Bft) O-NO 67 2 min 0,000 mm 0,0 UV-I 45 W/m -2,4 C -5,5 C 43,5 km/h (6 Bft) 100,00 %
17.11.2018 15:56 4,9 C 6,1 C 3,3 C 59 % 1028,6 hPa 0,0 l/m 23,5 km/h (4 Bft) O 84 2 min 0,000 mm 0,0 UV-I 42 W/m -2,4 C -4,6 C 33,8 km/h (5 Bft) 100,00 %
17.11.2018 15:58 4,8 C 6,1 C 3,3 C 59 % 1028,6 hPa 0,0 l/m 22,1 km/h (4 Bft) O-NO 69 2 min 0,000 mm 0,0 UV-I 40 W/m -2,5 C -4,2 C 32,2 km/h (5 Bft) 100,00 %
17.11.2018 16:00 4,8 C 6,1 C 3,3 C 59 % 1028,6 hPa 0,0 l/m 23,5 km/h (4 Bft) O 88 2 min 0,127 mm 0,0 UV-I 36 W/m -2,5 C -4,7 C 35,4 km/h (5 Bft) 97,87 %
17.11.2018 16:02 4,7 C 6,1 C 3,3 C 59 % 1028,7 hPa 0,0 l/m 23,5 km/h (4 Bft) NO 55 2 min 0,000 mm 0,0 UV-I 33 W/m -2,6 C -4,9 C 32,2 km/h (5 Bft) 97,37 %
17.11.2018 16:04 4,7 C 6,1 C 3,3 C 60 % 1028,8 hPa 0,0 l/m 21,4 km/h (4 Bft) O-NO 76 2 min 0,000 mm 0,0 UV-I 30 W/m -2,4 C -4,1 C 29,0 km/h (5 Bft) 100,00 %
17.11.2018 16:06 4,7 C 6,1 C 3,3 C 59 % 1028,8 hPa 0,0 l/m 21,3 km/h (4 Bft) O-NO 67 2 min 0,000 mm 0,0 UV-I 27 W/m -2,6 C -4,1 C 29,0 km/h (5 Bft) 97,87 %
17.11.2018 16:08 4,7 C 6,1 C 3,3 C 59 % 1028,8 hPa 0,0 l/m 20,1 km/h (4 Bft) O 79 2 min 0,000 mm 0,0 UV-I 25 W/m -2,6 C -3,6 C 33,8 km/h (5 Bft) 98,00 %
17.11.2018 16:10 4,6 C 6,1 C 3,3 C 59 % 1028,8 hPa 0,0 l/m 25,9 km/h (4 Bft) O-NO 71 2 min 0,000 mm 0,0 UV-I 21 W/m -2,7 C -5,8 C 33,8 km/h (5 Bft) 100,00 %
17.11.2018 16:12 4,6 C 6,1 C 3,3 C 60 % 1028,9 hPa 0,0 l/m 23,8 km/h (4 Bft) O-NO 72 2 min 0,000 mm 0,0 UV-I 19 W/m -2,5 C -5,1 C 33,8 km/h (5 Bft) 97,87 %
17.11.2018 16:14 4,5 C 6,1 C 3,3 C 60 % 1028,8 hPa 0,0 l/m 21,8 km/h (4 Bft) O-NO 65 0 min 0,000 mm 0,0 UV-I 16 W/m -2,6 C -4,5 C 32,2 km/h (5 Bft) 97,87 %
17.11.2018 16:16 4,4 C 6,1 C 2,8 C 61 % 1028,9 hPa 0,0 l/m 23,7 km/h (4 Bft) NO 55 0 min 0,000 mm 0,0 UV-I 13 W/m -2,4 C -5,3 C 30,6 km/h (5 Bft) 100,00 %
17.11.2018 16:18 4,4 C 6,1 C 2,8 C 61 % 1028,9 hPa 0,0 l/m 24,8 km/h (4 Bft) O-NO 61 0 min 0,000 mm 0,0 UV-I 12 W/m -2,4 C -5,7 C 35,4 km/h (5 Bft) 97,87 %
17.11.2018 16:20 4,4 C 6,1 C 2,8 C 61 % 1028,9 hPa 0,0 l/m 21,6 km/h (4 Bft) O-NO 74 0 min 0,000 mm 0,0 UV-I 11 W/m -2,4 C -4,6 C 27,4 km/h (4 Bft) 100,00 %
17.11.2018 16:22 4,3 C 6,1 C 2,8 C 61 % 1028,9 hPa 0,0 l/m 20,8 km/h (4 Bft) O-NO 68 0 min 0,000 mm 0,0 UV-I 9 W/m -2,5 C -4,4 C 30,6 km/h (5 Bft) 98,00 %
17.11.2018 16:24 4,2 C 6,1 C 2,8 C 62 % 1028,9 hPa 0,0 l/m 19,9 km/h (4 Bft) O 96 0 min 0,000 mm 0,0 UV-I 9 W/m -2,4 C -4,2 C 25,7 km/h (4 Bft) 100,00 %
17.11.2018 16:26 4,2 C 6,1 C 2,8 C 62 % 1028,9 hPa 0,0 l/m 21,7 km/h (4 Bft) O-NO 68 0 min 0,000 mm 0,0 UV-I 8 W/m -2,4 C -4,9 C 27,4 km/h (4 Bft) 97,87 %
17.11.2018 16:28 4,1 C 6,1 C 2,8 C 63 % 1029,0 hPa 0,0 l/m 20,0 km/h (4 Bft) O-NO 66 0 min 0,000 mm 0,0 UV-I 7 W/m -2,3 C -4,3 C 29,0 km/h (5 Bft) 100,00 %
17.11.2018 16:30 4,0 C 6,1 C 2,2 C 63 % 1028,9 hPa 0,0 l/m 18,2 km/h (3 Bft) O-NO 78 0 min 0,000 mm 0,0 UV-I 7 W/m -2,4 C -3,7 C 24,1 km/h (4 Bft) 100,00 %
17.11.2018 16:32 3,9 C 6,1 C 2,2 C 64 % 1029,0 hPa 0,0 l/m 20,1 km/h (4 Bft) O 91 0 min 0,000 mm 0,0 UV-I 6 W/m -2,3 C -4,6 C 30,6 km/h (5 Bft) 93,62 %
17.11.2018 16:34 3,9 C 6,1 C 2,2 C 64 % 1029,0 hPa 0,0 l/m 22,9 km/h (4 Bft) O-NO 74 0 min 0,000 mm 0,0 UV-I 5 W/m -2,3 C -5,7 C 30,6 km/h (5 Bft) 98,00 %
17.11.2018 16:36 3,8 C 6,1 C 2,2 C 64 % 1028,9 hPa 0,0 l/m 18,7 km/h (3 Bft) O 93 0 min 0,000 mm 0,0 UV-I 5 W/m -2,4 C -4,2 C 25,7 km/h (4 Bft) 97,37 %
17.11.2018 16:38 3,8 C 6,1 C 2,2 C 64 % 1028,9 hPa 0,0 l/m 23,2 km/h (4 Bft) O-NO 59 0 min 0,000 mm 0,0 UV-I 5 W/m -2,4 C -6,0 C 30,6 km/h (5 Bft) 97,87 %
17.11.2018 16:40 3,8 C 6,1 C 2,2 C 64 % 1028,9 hPa 0,0 l/m 23,8 km/h (4 Bft) O 89 0 min 0,000 mm 0,0 UV-I 3 W/m -2,4 C -6,2 C 33,8 km/h (5 Bft) 95,74 %
17.11.2018 16:42 3,8 C 6,1 C 2,2 C 64 % 1028,9 hPa 0,0 l/m 22,8 km/h (4 Bft) O 86 0 min 0,000 mm 0,0 UV-I 0 W/m -2,4 C -5,8 C 35,4 km/h (5 Bft) 96,23 %
17.11.2018 16:44 3,8 C 6,1 C 2,2 C 64 % 1029,0 hPa 0,0 l/m 23,4 km/h (4 Bft) O-NO 65 0 min 0,000 mm 0,0 UV-I 0 W/m -2,4 C -6,0 C 33,8 km/h (5 Bft) 93,62 %
17.11.2018 16:46 3,8 C 6,1 C 2,2 C 64 % 1029,0 hPa 0,0 l/m 23,2 km/h (4 Bft) O-SO 102 0 min 0,000 mm 0,0 UV-I 0 W/m -2,4 C -6,0 C 29,0 km/h (5 Bft) 96,00 %
17.11.2018 16:48 3,8 C 6,1 C 2,2 C 64 % 1029,0 hPa 0,0 l/m 22,0 km/h (4 Bft) O-NO 63 0 min 0,000 mm 0,0 UV-I 0 W/m -2,4 C -5,5 C 32,2 km/h (5 Bft) 94,87 %
17.11.2018 16:50 3,8 C 6,1 C 2,2 C 64 % 1029,0 hPa 0,0 l/m 20,8 km/h (4 Bft) O-NO 74 0 min 0,000 mm 0,0 UV-I 0 W/m -2,4 C -5,0 C 32,2 km/h (5 Bft) 96,00 %
17.11.2018 16:52 3,7 C 6,1 C 2,2 C 64 % 1029,1 hPa 0,0 l/m 25,2 km/h (4 Bft) O-NO 69 0 min 0,000 mm 0,0 UV-I 0 W/m -2,5 C -6,8 C 38,6 km/h (5 Bft) 93,62 %
17.11.2018 16:54 3,7 C 6,1 C 2,2 C 65 % 1029,1 hPa 0,0 l/m 20,3 km/h (4 Bft) O-NO 74 0 min 0,000 mm 0,0 UV-I 0 W/m -2,3 C -5,0 C 30,6 km/h (5 Bft) 96,00 %
17.11.2018 16:56 3,7 C 6,1 C 2,2 C 65 % 1029,1 hPa 0,0 l/m 22,3 km/h (4 Bft) O-NO 63 0 min 0,000 mm 0,0 UV-I 0 W/m -2,3 C -5,8 C 30,6 km/h (5 Bft) 95,74 %
17.11.2018 16:58 3,7 C 6,1 C 2,2 C 65 % 1029,1 hPa 0,0 l/m 20,7 km/h (4 Bft) O 92 0 min 0,000 mm 0,0 UV-I 0 W/m -2,3 C -5,1 C 30,6 km/h (5 Bft) 94,74 %
17.11.2018 17:00 3,7 C 6,1 C 2,2 C 65 % 1029,1 hPa 0,0 l/m 20,3 km/h (4 Bft) O-NO 67 0 min 0,000 mm 0,0 UV-I 0 W/m -2,3 C -5,0 C 27,4 km/h (4 Bft) 91,49 %
17.11.2018 17:02 3,6 C 6,1 C 2,2 C 65 % 1029,1 hPa 0,0 l/m 21,0 km/h (4 Bft) O 88 0 min 0,076 mm 0,0 UV-I 0 W/m -2,4 C -5,4 C 27,4 km/h (4 Bft) 95,74 %
17.11.2018 17:04 3,6 C 6,1 C 2,2 C 66 % 1029,1 hPa 0,0 l/m 22,3 km/h (4 Bft) O-NO 64 0 min 0,000 mm 0,0 UV-I 0 W/m -2,1 C -5,9 C 32,2 km/h (5 Bft) 95,74 %
17.11.2018 17:06 3,6 C 6,1 C 2,2 C 66 % 1029,1 hPa 0,0 l/m 23,6 km/h (4 Bft) O 81 0 min 0,000 mm 0,0 UV-I 0 W/m -2,1 C -6,4 C 30,6 km/h (5 Bft) 95,74 %
17.11.2018 17:08 3,5 C 6,1 C 2,2 C 66 % 1029,2 hPa 0,0 l/m 18,7 km/h (3 Bft) O-NO 65 0 min 0,000 mm 0,0 UV-I 0 W/m -2,2 C -4,6 C 25,7 km/h (4 Bft) 97,87 %
17.11.2018 17:10 3,4 C 6,1 C 2,2 C 66 % 1029,3 hPa 0,0 l/m 18,8 km/h (3 Bft) O 84 0 min 0,000 mm 0,0 UV-I 0 W/m -2,3 C -4,7 C 25,7 km/h (4 Bft) 97,92 %
17.11.2018 17:12 3,3 C 6,1 C 1,7 C 67 % 1029,2 hPa 0,0 l/m 19,8 km/h (3 Bft) O-NO 73 0 min 0,000 mm 0,0 UV-I 0 W/m -2,2 C -5,3 C 25,7 km/h (4 Bft) 96,00 %
17.11.2018 17:14 3,2 C 6,1 C 1,7 C 68 % 1029,3 hPa 0,0 l/m 14,1 km/h (3 Bft) NO 45 0 min 0,000 mm 0,0 UV-I 0 W/m -2,1 C -2,6 C 20,9 km/h (4 Bft) 100,00 %
17.11.2018 17:16 3,1 C 6,1 C 1,7 C 68 % 1029,2 hPa 0,0 l/m 15,8 km/h (3 Bft) O-NO 66 0 min 0,000 mm 0,0 UV-I 0 W/m -2,2 C -3,7 C 22,5 km/h (4 Bft) 100,00 %
17.11.2018 17:18 3,1 C 6,1 C 1,1 C 68 % 1029,3 hPa 0,0 l/m 14,4 km/h (3 Bft) O-NO 74 0 min 0,000 mm 0,0 UV-I 0 W/m -2,2 C -2,9 C 19,3 km/h (3 Bft) 100,00 %
17.11.2018 17:20 3,1 C 6,1 C 1,7 C 68 % 1029,3 hPa 0,0 l/m 13,3 km/h (3 Bft) O-NO 69 0 min 0,000 mm 0,0 UV-I 0 W/m -2,2 C -2,2 C 17,7 km/h (3 Bft) 100,00 %
17.11.2018 17:22 3,0 C 6,1 C 1,1 C 68 % 1029,3 hPa 0,0 l/m 13,9 km/h (3 Bft) O 90 0 min 0,000 mm 0,0 UV-I 0 W/m -2,3 C -2,7 C 22,5 km/h (4 Bft) 98,11 %
17.11.2018 17:24 2,9 C 6,1 C 1,7 C 68 % 1029,3 hPa 0,0 l/m 16,4 km/h (3 Bft) O-NO 67 0 min 0,000 mm 0,0 UV-I 0 W/m -2,4 C -4,2 C 22,5 km/h (4 Bft) 100,00 %
17.11.2018 17:26 3,0 C 6,1 C 1,7 C 69 % 1029,3 hPa 0,0 l/m 21,6 km/h (4 Bft) O-SO 116 0 min 0,000 mm 0,0 UV-I 0 W/m -2,1 C -6,4 C 29,0 km/h (5 Bft) 100,00 %
17.11.2018 17:28 3,1 C 6,1 C 1,7 C 68 % 1029,4 hPa 0,0 l/m 25,2 km/h (4 Bft) O-NO 71 0 min 0,000 mm 0,0 UV-I 0 W/m -2,2 C -7,6 C 33,8 km/h (5 Bft) 100,00 %
17.11.2018 17:30 3,1 C 6,1 C 1,7 C 68 % 1029,4 hPa 0,0 l/m 21,6 km/h (4 Bft) O-NO 58 0 min 0,000 mm 0,0 UV-I 0 W/m -2,2 C -6,3 C 29,0 km/h (5 Bft) 100,00 %
17.11.2018 17:32 3,1 C 6,1 C 1,7 C 68 % 1029,4 hPa 0,0 l/m 20,3 km/h (4 Bft) O 84 0 min 0,000 mm 0,0 UV-I 0 W/m -2,2 C -5,8 C 27,4 km/h (4 Bft) 98,11 %
17.11.2018 17:34 3,1 C 6,1 C 1,7 C 69 % 1029,3 hPa 0,0 l/m 26,1 km/h (4 Bft) O-NO 69 0 min 0,000 mm 0,0 UV-I 0 W/m -2,0 C -7,9 C 37,0 km/h (5 Bft) 97,87 %
17.11.2018 17:36 3,1 C 6,1 C 1,7 C 68 % 1029,3 hPa 0,0 l/m 23,7 km/h (4 Bft) O-NO 73 0 min 0,000 mm 0,0 UV-I 0 W/m -2,2 C -7,1 C 32,2 km/h (5 Bft) 100,00 %
17.11.2018 17:38 3,1 C 6,1 C 1,7 C 68 % 1029,4 hPa 0,0 l/m 22,3 km/h (4 Bft) O-NO 69 0 min 0,000 mm 0,0 UV-I 0 W/m -2,2 C -6,5 C 33,8 km/h (5 Bft) 95,74 %
17.11.2018 17:40 3,1 C 6,1 C 1,7 C 69 % 1029,4 hPa 0,0 l/m 24,5 km/h (4 Bft) O-NO 57 0 min 0,000 mm 0,0 UV-I 0 W/m -2,0 C -7,3 C 32,2 km/h (5 Bft) 100,00 %
17.11.2018 17:42 3,1 C 6,1 C 1,7 C 69 % 1029,4 hPa 0,0 l/m 19,1 km/h (3 Bft) O 92 0 min 0,000 mm 0,0 UV-I 0 W/m -2,0 C -5,2 C 24,1 km/h (4 Bft) 100,00 %
17.11.2018 17:44 3,0 C 6,1 C 1,7 C 69 % 1029,4 hPa 0,0 l/m 18,0 km/h (3 Bft) O-NO 70 0 min 0,000 mm 0,0 UV-I 0 W/m -2,1 C -4,9 C 25,7 km/h (4 Bft) 97,92 %
17.11.2018 17:46 2,9 C 6,1 C 1,1 C 69 % 1029,3 hPa 0,0 l/m 19,3 km/h (3 Bft) O 88 0 min 0,000 mm 0,0 UV-I 0 W/m -2,2 C -5,6 C 33,8 km/h (5 Bft) 98,00 %
17.11.2018 17:48 2,9 C 6,1 C 1,7 C 69 % 1029,3 hPa 0,0 l/m 20,1 km/h (4 Bft) O-NO 65 0 min 0,000 mm 0,0 UV-I 0 W/m -2,2 C -5,9 C 27,4 km/h (4 Bft) 100,00 %
17.11.2018 17:50 2,9 C 6,1 C 1,7 C 69 % 1029,4 hPa 0,0 l/m 16,8 km/h (3 Bft) O-NO 76 0 min 0,000 mm 0,0 UV-I 0 W/m -2,2 C -4,4 C 24,1 km/h (4 Bft) 97,87 %
17.11.2018 17:52 2,8 C 6,1 C 1,7 C 70 % 1029,4 hPa 0,0 l/m 19,2 km/h (3 Bft) O-NO 57 0 min 0,000 mm 0,0 UV-I 0 W/m -2,1 C -5,7 C 29,0 km/h (5 Bft) 97,87 %
17.11.2018 17:54 2,8 C 6,1 C 1,1 C 70 % 1029,4 hPa 0,0 l/m 21,4 km/h (4 Bft) O 86 0 min 0,000 mm 0,0 UV-I 0 W/m -2,1 C -6,6 C 27,4 km/h (4 Bft) 100,00 %
17.11.2018 17:56 2,8 C 6,1 C 1,7 C 70 % 1029,4 hPa 0,0 l/m 21,4 km/h (4 Bft) O-NO 70 0 min 0,000 mm 0,0 UV-I 0 W/m -2,1 C -6,6 C 27,4 km/h (4 Bft) 100,00 %
17.11.2018 17:58 2,8 C 6,1 C 1,7 C 70 % 1029,4 hPa 0,0 l/m 19,1 km/h (3 Bft) O-NO 61 0 min 0,000 mm 0,0 UV-I 0 W/m -2,1 C -5,6 C 30,6 km/h (5 Bft) 95,74 %
17.11.2018 18:00 2,7 C 6,1 C 1,1 C 70 % 1029,5 hPa 0,0 l/m 17,4 km/h (3 Bft) O-NO 67 0 min 0,000 mm 0,0 UV-I 0 W/m -2,2 C -5,0 C 24,1 km/h (4 Bft) 98,00 %
17.11.2018 18:02 2,7 C 6,1 C 1,1 C 70 % 1029,5 hPa 0,0 l/m 20,0 km/h (4 Bft) NO 40 0 min 0,051 mm 0,0 UV-I 0 W/m -2,2 C -6,1 C 24,1 km/h (4 Bft) 98,00 %
17.11.2018 18:04 2,6 C 6,1 C 1,1 C 70 % 1029,5 hPa 0,0 l/m 20,0 km/h (4 Bft) O 81 0 min 0,000 mm 0,0 UV-I 0 W/m -2,3 C -6,3 C 25,7 km/h (4 Bft) 96,00 %
17.11.2018 18:06 2,6 C 6,1 C 1,1 C 71 % 1029,5 hPa 0,0 l/m 18,8 km/h (3 Bft) O 83 0 min 0,000 mm 0,0 UV-I 0 W/m -2,1 C -5,7 C 24,1 km/h (4 Bft) 97,22 %
17.11.2018 18:08 2,5 C 6,1 C 1,1 C 71 % 1029,5 hPa 0,0 l/m 20,3 km/h (4 Bft) O-NO 70 0 min 0,000 mm 0,0 UV-I 0 W/m -2,2 C -6,5 C 30,6 km/h (5 Bft) 93,62 %
17.11.2018 18:10 2,5 C 6,1 C 1,1 C 71 % 1029,5 hPa 0,0 l/m 21,1 km/h (4 Bft) O-NO 63 0 min 0,000 mm 0,0 UV-I 0 W/m -2,2 C -6,9 C 29,0 km/h (5 Bft) 95,74 %
17.11.2018 18:12 2,4 C 6,1 C 1,1 C 71 % 1029,5 hPa 0,0 l/m 18,5 km/h (3 Bft) O-NO 65 0 min 0,000 mm 0,0 UV-I 0 W/m -2,3 C -5,9 C 27,4 km/h (4 Bft) 96,00 %
17.11.2018 18:14 2,4 C 6,1 C 1,1 C 71 % 1029,5 hPa 0,0 l/m 18,5 km/h (3 Bft) O-NO 61 0 min 0,000 mm 0,0 UV-I 0 W/m -2,3 C -5,9 C 25,7 km/h (4 Bft) 97,87 %
17.11.2018 18:16 2,4 C 6,1 C 1,1 C 71 % 1029,5 hPa 0,0 l/m 22,8 km/h (4 Bft) O-NO 73 0 min 0,000 mm 0,0 UV-I 0 W/m -2,3 C -7,7 C 29,0 km/h (5 Bft) 95,74 %
17.11.2018 18:18 2,4 C 6,1 C 1,1 C 71 % 1029,4 hPa 0,0 l/m 20,7 km/h (4 Bft) O 88 0 min 0,000 mm 0,0 UV-I 0 W/m -2,3 C -6,8 C 30,6 km/h (5 Bft) 93,62 %
17.11.2018 18:20 2,4 C 6,1 C 1,1 C 71 % 1029,4 hPa 0,0 l/m 21,2 km/h (4 Bft) O-SO 103 0 min 0,000 mm 0,0 UV-I 0 W/m -2,3 C -7,0 C 30,6 km/h (5 Bft) 93,62 %
17.11.2018 18:22 2,4 C 6,1 C 1,1 C 71 % 1029,4 hPa 0,0 l/m 19,9 km/h (4 Bft) O-NO 59 0 min 0,000 mm 0,0 UV-I 0 W/m -2,3 C -6,5 C 30,6 km/h (5 Bft) 95,74 %
17.11.2018 18:24 2,4 C 6,1 C 1,1 C 71 % 1029,3 hPa 0,0 l/m 22,1 km/h (4 Bft) O-NO 65 0 min 0,000 mm 0,0 UV-I 0 W/m -2,3 C -7,4 C 30,6 km/h (5 Bft) 95,74 %
17.11.2018 18:26 2,4 C 6,1 C 1,1 C 71 % 1029,3 hPa 0,0 l/m 22,8 km/h (4 Bft) O-NO 68 0 min 0,000 mm 0,0 UV-I 0 W/m -2,3 C -7,7 C 30,6 km/h (5 Bft) 98,11 %
17.11.2018 18:28 2,4 C 6,1 C 1,1 C 71 % 1029,3 hPa 0,0 l/m 21,3 km/h (4 Bft) O 96 0 min 0,000 mm 0,0 UV-I 0 W/m -2,3 C -7,1 C 30,6 km/h (5 Bft) 95,74 %
17.11.2018 18:30 2,4 C 6,1 C 1,1 C 71 % 1029,3 hPa 0,0 l/m 23,0 km/h (4 Bft) O-NO 74 0 min 0,000 mm 0,0 UV-I 0 W/m -2,3 C -7,7 C 30,6 km/h (5 Bft) 94,29 %
17.11.2018 18:32 2,3 C 6,1 C 1,1 C 71 % 1029,3 hPa 0,0 l/m 22,7 km/h (4 Bft) NO 55 0 min 0,000 mm 0,0 UV-I 0 W/m -2,4 C -7,8 C 32,2 km/h (5 Bft) 97,87 %
17.11.2018 18:34 2,3 C 6,1 C 1,1 C 71 % 1029,3 hPa 0,0 l/m 21,4 km/h (4 Bft) O 84 0 min 0,000 mm 0,0 UV-I 0 W/m -2,4 C -7,2 C 27,4 km/h (4 Bft) 93,62 %
17.11.2018 18:36 2,3 C 6,1 C 1,1 C 71 % 1029,4 hPa 0,0 l/m 22,8 km/h (4 Bft) O-NO 70 0 min 0,000 mm 0,0 UV-I 0 W/m -2,4 C -7,8 C 33,8 km/h (5 Bft) 95,83 %
17.11.2018 18:38 2,3 C 6,1 C 1,1 C 71 % 1029,4 hPa 0,0 l/m 20,4 km/h (4 Bft) O-NO 67 0 min 0,000 mm 0,0 UV-I 0 W/m -2,4 C -6,8 C 29,0 km/h (5 Bft) 95,74 %
17.11.2018 18:40 2,3 C 6,1 C 1,1 C 72 % 1029,3 hPa 0,0 l/m 20,0 km/h (4 Bft) NO 49 0 min 0,000 mm 0,0 UV-I 0 W/m -2,2 C -6,7 C 29,0 km/h (5 Bft) 95,74 %
17.11.2018 18:42 2,3 C 6,1 C 1,1 C 72 % 1029,3 hPa 0,0 l/m 18,2 km/h (3 Bft) O-NO 78 0 min 0,000 mm 0,0 UV-I 0 W/m -2,2 C -5,8 C 24,1 km/h (4 Bft) 91,49 %
17.11.2018 18:44 2,3 C 6,1 C 1,1 C 72 % 1029,4 hPa 0,0 l/m 17,3 km/h (3 Bft) O-NO 67 0 min 0,000 mm 0,0 UV-I 0 W/m -2,2 C -5,4 C 29,0 km/h (5 Bft) 93,62 %
17.11.2018 18:46 2,2 C 6,1 C 1,1 C 72 % 1029,4 hPa 0,0 l/m 20,2 km/h (4 Bft) NO 55 0 min 0,000 mm 0,0 UV-I 0 W/m -2,3 C -6,9 C 27,4 km/h (4 Bft) 92,00 %
17.11.2018 18:48 2,2 C 6,1 C 0,6 C 72 % 1029,5 hPa 0,0 l/m 16,8 km/h (3 Bft) O-NO 67 0 min 0,000 mm 0,0 UV-I 0 W/m -2,3 C -5,3 C 22,5 km/h (4 Bft) 95,74 %
17.11.2018 18:50 2,2 C 6,1 C 0,6 C 72 % 1029,5 hPa 0,0 l/m 17,0 km/h (3 Bft) O 80 0 min 0,000 mm 0,0 UV-I 0 W/m -2,3 C -5,4 C 25,7 km/h (4 Bft) 96,00 %
17.11.2018 18:52 2,1 C 6,1 C 0,6 C 72 % 1029,4 hPa 0,0 l/m 17,9 km/h (3 Bft) O-NO 71 0 min 0,000 mm 0,0 UV-I 0 W/m -2,4 C -6,0 C 22,5 km/h (4 Bft) 95,74 %
17.11.2018 18:54 2,1 C 6,1 C 0,6 C 73 % 1029,4 hPa 0,0 l/m 17,5 km/h (3 Bft) O 88 0 min 0,000 mm 0,0 UV-I 0 W/m -2,2 C -5,8 C 24,1 km/h (4 Bft) 95,74 %
17.11.2018 18:56 2,1 C 6,1 C 0,6 C 73 % 1029,4 hPa 0,0 l/m 16,0 km/h (3 Bft) O-NO 74 0 min 0,000 mm 0,0 UV-I 0 W/m -2,2 C -5,0 C 22,5 km/h (4 Bft) 95,74 %
17.11.2018 18:58 2,0 C 6,1 C 0,6 C 73 % 1029,4 hPa 0,0 l/m 18,2 km/h (3 Bft) O-NO 77 0 min 0,000 mm 0,0 UV-I 0 W/m -2,3 C -6,2 C 30,6 km/h (5 Bft) 93,62 %
17.11.2018 19:00 1,9 C 6,1 C 0,6 C 73 % 1029,3 hPa 0,0 l/m 18,4 km/h (3 Bft) O-NO 61 0 min 0,051 mm 0,0 UV-I 0 W/m -2,4 C -6,4 C 25,7 km/h (4 Bft) 94,29 %
17.11.2018 19:02 1,9 C 6,1 C 0,6 C 73 % 1029,3 hPa 0,0 l/m 19,2 km/h (3 Bft) O 81 0 min 0,000 mm 0,0 UV-I 0 W/m -2,4 C -6,8 C 24,1 km/h (4 Bft) 96,00 %
17.11.2018 19:04 1,9 C 6,1 C 0,6 C 73 % 1029,3 hPa 0,0 l/m 17,1 km/h (3 Bft) O-NO 60 0 min 0,000 mm 0,0 UV-I 0 W/m -2,4 C -5,8 C 25,7 km/h (4 Bft) 91,49 %
17.11.2018 19:06 1,9 C 6,1 C 0,6 C 74 % 1029,2 hPa 0,0 l/m 15,8 km/h (3 Bft) O-NO 61 0 min 0,000 mm 0,0 UV-I 0 W/m -2,2 C -5,1 C 22,5 km/h (4 Bft) 94,00 %
17.11.2018 19:08 1,9 C 6,1 C 0,6 C 74 % 1029,2 hPa 0,0 l/m 17,4 km/h (3 Bft) O-NO 75 0 min 0,000 mm 0,0 UV-I 0 W/m -2,2 C -6,0 C 24,1 km/h (4 Bft) 95,74 %
17.11.2018 19:10 1,8 C 6,1 C 0,6 C 74 % 1029,2 hPa 0,0 l/m 17,1 km/h (3 Bft) O-NO 63 0 min 0,000 mm 0,0 UV-I 0 W/m -2,3 C -5,9 C 24,1 km/h (4 Bft) 97,87 %
17.11.2018 19:12 1,8 C 6,1 C 0,6 C 74 % 1029,2 hPa 0,0 l/m 18,0 km/h (3 Bft) O-NO 66 0 min 0,000 mm 0,0 UV-I 0 W/m -2,3 C -6,4 C 25,7 km/h (4 Bft) 95,74 %
17.11.2018 19:14 1,8 C 6,1 C 0,6 C 74 % 1029,3 hPa 0,0 l/m 15,4 km/h (3 Bft) O-NO 74 0 min 0,000 mm 0,0 UV-I 0 W/m -2,3 C -5,0 C 25,7 km/h (4 Bft) 95,83 %
17.11.2018 19:16 1,8 C 6,1 C 0,6 C 74 % 1029,3 hPa 0,0 l/m 14,4 km/h (3 Bft) O-NO 69 0 min 0,000 mm 0,0 UV-I 0 W/m -2,3 C -4,5 C 22,5 km/h (4 Bft) 91,49 %
17.11.2018 19:18 1,8 C 6,1 C 0,6 C 75 % 1029,3 hPa 0,0 l/m 14,8 km/h (3 Bft) O 79 0 min 0,000 mm 0,0 UV-I 0 W/m -2,1 C -4,7 C 24,1 km/h (4 Bft) 95,74 %
17.11.2018 19:20 1,7 C 6,1 C 0,0 C 75 % 1029,2 hPa 0,0 l/m 12,6 km/h (3 Bft) O-NO 71 0 min 0,000 mm 0,0 UV-I 0 W/m -2,2 C -3,4 C 17,7 km/h (3 Bft) 93,62 %
17.11.2018 19:22 1,7 C 6,1 C 0,0 C 75 % 1029,3 hPa 0,0 l/m 13,7 km/h (3 Bft) O-NO 72 0 min 0,000 mm 0,0 UV-I 0 W/m -2,2 C -4,1 C 20,9 km/h (4 Bft) 96,00 %
17.11.2018 19:24 1,7 C 6,1 C 0,0 C 75 % 1029,2 hPa 0,0 l/m 15,3 km/h (3 Bft) O-NO 68 0 min 0,000 mm 0,0 UV-I 0 W/m -2,2 C -5,1 C 20,9 km/h (4 Bft) 97,37 %
17.11.2018 19:26 1,7 C 6,1 C 0,0 C 75 % 1029,3 hPa 0,0 l/m 10,7 km/h (2 Bft) O-NO 67 0 min 0,000 mm 0,0 UV-I 0 W/m -2,2 C -2,1 C 16,1 km/h (3 Bft) 97,87 %
17.11.2018 19:28 1,6 C 6,1 C 0,0 C 76 % 1029,3 hPa 0,0 l/m 11,2 km/h (2 Bft) O-NO 73 0 min 0,000 mm 0,0 UV-I 0 W/m -2,2 C -2,6 C 16,1 km/h (3 Bft) 98,00 %
17.11.2018 19:30 1,5 C 6,1 C 0,0 C 76 % 1029,2 hPa 0,0 l/m 13,4 km/h (3 Bft) NO 51 0 min 0,000 mm 0,0 UV-I 0 W/m -2,3 C -4,2 C 22,5 km/h (4 Bft) 95,74 %
17.11.2018 19:32 1,5 C 6,1 C 0,0 C 76 % 1029,2 hPa 0,0 l/m 14,4 km/h (3 Bft) O 90 0 min 0,000 mm 0,0 UV-I 0 W/m -2,3 C -4,8 C 19,3 km/h (3 Bft) 97,87 %
17.11.2018 19:34 1,4 C 6,1 C 0,0 C 77 % 1029,1 hPa 0,0 l/m 14,8 km/h (3 Bft) O-NO 61 0 min 0,000 mm 0,0 UV-I 0 W/m -2,2 C -5,2 C 20,9 km/h (4 Bft) 100,00 %
17.11.2018 19:36 1,5 C 6,1 C 0,0 C 77 % 1029,0 hPa 0,0 l/m 15,9 km/h (3 Bft) O-NO 57 0 min 0,000 mm 0,0 UV-I 0 W/m -2,1 C -5,7 C 22,5 km/h (4 Bft) 97,87 %
17.11.2018 19:38 1,4 C 6,1 C 0,0 C 77 % 1029,1 hPa 0,0 l/m 18,6 km/h (3 Bft) O-NO 67 0 min 0,000 mm 0,0 UV-I 0 W/m -2,2 C -7,2 C 24,1 km/h (4 Bft) 98,00 %
17.11.2018 19:40 1,4 C 6,1 C 0,0 C 77 % 1029,0 hPa 0,0 l/m 17,0 km/h (3 Bft) O-NO 71 0 min 0,000 mm 0,0 UV-I 0 W/m -2,2 C -6,4 C 22,5 km/h (4 Bft) 94,74 %
17.11.2018 19:42 1,4 C 6,1 C 0,0 C 77 % 1029,0 hPa 0,0 l/m 15,6 km/h (3 Bft) O-NO 71 0 min 0,000 mm 0,0 UV-I 0 W/m -2,2 C -5,6 C 20,9 km/h (4 Bft) 97,87 %
17.11.2018 19:44 1,4 C 6,1 C 0,0 C 77 % 1029,0 hPa 0,0 l/m 14,6 km/h (3 Bft) O-NO 74 0 min 0,000 mm 0,0 UV-I 0 W/m -2,2 C -5,1 C 19,3 km/h (3 Bft) 100,00 %
17.11.2018 19:46 1,4 C 6,1 C 0,0 C 77 % 1029,0 hPa 0,0 l/m 15,5 km/h (3 Bft) O 88 0 min 0,000 mm 0,0 UV-I 0 W/m -2,2 C -5,6 C 22,5 km/h (4 Bft) 95,83 %
17.11.2018 19:48 1,4 C 6,1 C 0,0 C 77 % 1029,0 hPa 0,0 l/m 15,4 km/h (3 Bft) O-NO 68 0 min 0,000 mm 0,0 UV-I 0 W/m -2,2 C -5,5 C 20,9 km/h (4 Bft) 100,00 %
17.11.2018 19:50 1,3 C 6,1 C 0,0 C 78 % 1029,0 hPa 0,0 l/m 13,3 km/h (3 Bft) NO 53 0 min 0,000 mm 0,0 UV-I 0 W/m -2,1 C -4,4 C 19,3 km/h (3 Bft) 100,00 %
17.11.2018 19:52 1,2 C 6,1 C -0,6 C 78 % 1029,1 hPa 0,0 l/m 6,7 km/h (2 Bft) NO 45 0 min 0,000 mm 0,0 UV-I 0 W/m -2,2 C 0,9 C 11,3 km/h (2 Bft) 95,74 %
17.11.2018 19:54 1,2 C 6,1 C -0,6 C 78 % 1029,1 hPa 0,0 l/m 7,2 km/h (2 Bft) NO 42 0 min 0,000 mm 0,0 UV-I 0 W/m -2,2 C 0,4 C 14,5 km/h (3 Bft) 97,87 %
17.11.2018 19:56 1,1 C 6,1 C -0,6 C 78 % 1029,2 hPa 0,0 l/m 7,8 km/h (2 Bft) O-NO 66 0 min 0,000 mm 0,0 UV-I 0 W/m -2,3 C -0,3 C 14,5 km/h (3 Bft) 100,00 %
17.11.2018 19:58 1,0 C 6,1 C -1,1 C 78 % 1029,1 hPa 0,0 l/m 5,4 km/h (1 Bft) O-NO 59 0 min 0,000 mm 0,0 UV-I 0 W/m -2,4 C 1,0 C 6,4 km/h (2 Bft) 96,00 %
17.11.2018 20:00 1,0 C 6,1 C -1,1 C 79 % 1029,1 hPa 0,0 l/m 5,3 km/h (1 Bft) O-NO 77 0 min 0,000 mm 0,0 UV-I 0 W/m -2,2 C 1,0 C 11,3 km/h (2 Bft) 97,87 %
17.11.2018 20:02 0,9 C 5,6 C -1,1 C 79 % 1029,1 hPa 0,0 l/m 8,0 km/h (2 Bft) SO 128 0 min 0,025 mm 0,0 UV-I 0 W/m -2,3 C -0,7 C 14,5 km/h (3 Bft) 97,37 %
17.11.2018 20:04 0,9 C 6,1 C -1,1 C 79 % 1029,1 hPa 0,0 l/m 6,7 km/h (2 Bft) O 94 0 min 0,000 mm 0,0 UV-I 0 W/m -2,3 C 0,6 C 12,9 km/h (3 Bft) 100,00 %
17.11.2018 20:06 0,9 C 5,6 C -1,1 C 80 % 1029,1 hPa 0,0 l/m 6,1 km/h (2 Bft) O-NO 70 0 min 0,000 mm 0,0 UV-I 0 W/m -2,2 C 0,9 C 12,9 km/h (3 Bft) 100,00 %
17.11.2018 20:08 0,9 C 5,6 C -1,1 C 79 % 1029,1 hPa 0,0 l/m 5,4 km/h (1 Bft) O 82 0 min 0,000 mm 0,0 UV-I 0 W/m -2,3 C 0,9 C 8,0 km/h (2 Bft) 100,00 %
17.11.2018 20:10 0,9 C 5,6 C -1,1 C 80 % 1029,1 hPa 0,0 l/m 9,0 km/h (2 Bft) O 79 0 min 0,000 mm 0,0 UV-I 0 W/m -2,2 C -1,6 C 14,5 km/h (3 Bft) 95,74 %
17.11.2018 20:12 1,0 C 5,6 C -1,1 C 80 % 1029,1 hPa 0,0 l/m 10,3 km/h (2 Bft) O 95 0 min 0,000 mm 0,0 UV-I 0 W/m -2,1 C -2,6 C 16,1 km/h (3 Bft) 100,00 %
17.11.2018 20:14 1,1 C 5,6 C -1,1 C 80 % 1029,1 hPa 0,0 l/m 8,6 km/h (2 Bft) S-SO 157 0 min 0,000 mm 0,0 UV-I 0 W/m -2,0 C -1,0 C 17,7 km/h (3 Bft) 100,00 %
17.11.2018 20:16 1,0 C 5,6 C -1,1 C 80 % 1029,1 hPa 0,0 l/m 8,7 km/h (2 Bft) O 81 0 min 0,000 mm 0,0 UV-I 0 W/m -2,1 C -1,2 C 14,5 km/h (3 Bft) 100,00 %
17.11.2018 20:18 0,9 C 6,1 C -1,1 C 80 % 1029,1 hPa 0,0 l/m 9,4 km/h (2 Bft) O-NO 74 0 min 0,000 mm 0,0 UV-I 0 W/m -2,2 C -2,0 C 17,7 km/h (3 Bft) 100,00 %
17.11.2018 20:20 1,0 C 5,6 C -1,1 C 81 % 1029,1 hPa 0,0 l/m 8,8 km/h (2 Bft) O-SO 107 0 min 0,000 mm 0,0 UV-I 0 W/m -1,9 C -1,3 C 16,1 km/h (3 Bft) 100,00 %
17.11.2018 20:22 1,0 C 5,6 C -1,1 C 81 % 1029,1 hPa 0,0 l/m 8,9 km/h (2 Bft) O-SO 114 0 min 0,000 mm 0,0 UV-I 0 W/m -1,9 C -1,4 C 14,5 km/h (3 Bft) 100,00 %
17.11.2018 20:24 1,0 C 5,6 C -1,1 C 81 % 1029,1 hPa 0,0 l/m 8,2 km/h (2 Bft) NO 52 0 min 0,000 mm 0,0 UV-I 0 W/m -1,9 C -0,8 C 12,9 km/h (3 Bft) 100,00 %
17.11.2018 20:26 1,0 C 5,6 C -1,1 C 81 % 1029,1 hPa 0,0 l/m 6,8 km/h (2 Bft) O 83 0 min 0,000 mm 0,0 UV-I 0 W/m -1,9 C 0,6 C 12,9 km/h (3 Bft) 96,00 %
17.11.2018 20:28 0,9 C 5,6 C -1,1 C 81 % 1029,2 hPa 0,0 l/m 11,3 km/h (2 Bft) O-SO 120 0 min 0,000 mm 0,0 UV-I 0 W/m -2,0 C -3,5 C 19,3 km/h (3 Bft) 93,62 %
17.11.2018 20:30 0,9 C 5,6 C -1,1 C 81 % 1029,2 hPa 0,0 l/m 4,4 km/h (1 Bft) SO 133 0 min 0,000 mm 0,0 UV-I 0 W/m -2,0 C 0,9 C 11,3 km/h (2 Bft) 97,87 %
17.11.2018 20:32 0,8 C 5,6 C -1,1 C 81 % 1029,2 hPa 0,0 l/m 7,5 km/h (2 Bft) O-SO 103 0 min 0,000 mm 0,0 UV-I 0 W/m -2,1 C -0,3 C 11,3 km/h (2 Bft) 95,74 %
17.11.2018 20:34 0,8 C 5,6 C -1,1 C 82 % 1029,2 hPa 0,0 l/m 8,1 km/h (2 Bft) SO 124 0 min 0,000 mm 0,0 UV-I 0 W/m -1,9 C -0,9 C 14,5 km/h (3 Bft) 96,00 %
17.11.2018 20:36 0,8 C 5,6 C -1,1 C 82 % 1029,2 hPa 0,0 l/m 7,2 km/h (2 Bft) O 90 0 min 0,000 mm 0,0 UV-I 0 W/m -1,9 C -0,0 C 14,5 km/h (3 Bft) 95,74 %
17.11.2018 20:38 0,8 C 5,6 C -1,1 C 82 % 1029,1 hPa 0,0 l/m 8,4 km/h (2 Bft) O-SO 118 0 min 0,000 mm 0,0 UV-I 0 W/m -1,9 C -1,2 C 14,5 km/h (3 Bft) 95,74 %
17.11.2018 20:40 0,8 C 5,6 C -1,1 C 82 % 1029,1 hPa 0,0 l/m 8,7 km/h (2 Bft) O-SO 117 0 min 0,000 mm 0,0 UV-I 0 W/m -1,9 C -1,5 C 14,5 km/h (3 Bft) 94,29 %
17.11.2018 20:42 0,8 C 5,6 C -1,7 C 82 % 1029,1 hPa 0,0 l/m 9,8 km/h (2 Bft) O-SO 109 0 min 0,000 mm 0,0 UV-I 0 W/m -1,9 C -2,4 C 12,9 km/h (3 Bft) 91,49 %
17.11.2018 20:44 0,8 C 5,6 C -1,7 C 82 % 1029,0 hPa 0,0 l/m 8,9 km/h (2 Bft) O 96 0 min 0,000 mm 0,0 UV-I 0 W/m -1,9 C -1,6 C 14,5 km/h (3 Bft) 93,62 %
17.11.2018 20:46 0,8 C 5,6 C -1,7 C 82 % 1028,9 hPa 0,0 l/m 10,5 km/h (2 Bft) O 90 0 min 0,000 mm 0,0 UV-I 0 W/m -1,9 C -3,0 C 14,5 km/h (3 Bft) 98,00 %
17.11.2018 20:48 0,8 C 5,6 C -1,1 C 83 % 1028,9 hPa 0,0 l/m 14,6 km/h (3 Bft) O 84 0 min 0,000 mm 0,0 UV-I 0 W/m -1,8 C -5,8 C 22,5 km/h (4 Bft) 95,74 %
17.11.2018 20:50 0,8 C 5,6 C -1,1 C 83 % 1028,9 hPa 0,0 l/m 12,7 km/h (3 Bft) O-SO 108 0 min 0,000 mm 0,0 UV-I 0 W/m -1,8 C -4,6 C 17,7 km/h (3 Bft) 97,87 %
17.11.2018 20:52 0,8 C 5,6 C -1,1 C 83 % 1028,9 hPa 0,0 l/m 13,8 km/h (3 Bft) O 92 0 min 0,000 mm 0,0 UV-I 0 W/m -1,8 C -5,3 C 17,7 km/h (3 Bft) 98,00 %
17.11.2018 20:54 0,7 C 5,6 C -1,1 C 83 % 1028,9 hPa 0,0 l/m 11,7 km/h (2 Bft) O 85 0 min 0,000 mm 0,0 UV-I 0 W/m -1,8 C -4,0 C 19,3 km/h (3 Bft) 97,87 %
17.11.2018 20:56 0,7 C 5,6 C -1,1 C 83 % 1029,0 hPa 0,0 l/m 15,1 km/h (3 Bft) O-SO 102 0 min 0,000 mm 0,0 UV-I 0 W/m -1,8 C -6,2 C 22,5 km/h (4 Bft) 97,87 %
17.11.2018 20:58 0,7 C 5,6 C -1,1 C 83 % 1029,0 hPa 0,0 l/m 14,2 km/h (3 Bft) O 92 0 min 0,000 mm 0,0 UV-I 0 W/m -1,8 C -5,7 C 19,3 km/h (3 Bft) 97,92 %
17.11.2018 21:00 0,7 C 5,6 C -1,1 C 83 % 1029,0 hPa 0,0 l/m 15,9 km/h (3 Bft) O 95 0 min 0,000 mm 0,0 UV-I 0 W/m -1,8 C -6,7 C 20,9 km/h (4 Bft) 96,00 %
17.11.2018 21:02 0,7 C 5,6 C -0,6 C 83 % 1029,0 hPa 0,0 l/m 16,8 km/h (3 Bft) O-NO 76 0 min 0,026 mm 0,0 UV-I 0 W/m -1,8 C -7,1 C 24,1 km/h (4 Bft) 95,74 %
17.11.2018 21:04 0,7 C 5,6 C -0,6 C 83 % 1028,9 hPa 0,0 l/m 19,9 km/h (4 Bft) O-NO 76 0 min 0,000 mm 0,0 UV-I 0 W/m -1,8 C -8,7 C 29,0 km/h (5 Bft) 100,00 %
17.11.2018 21:06 0,7 C 5,6 C -0,6 C 84 % 1029,0 hPa 0,0 l/m 19,4 km/h (3 Bft) O 94 0 min 0,000 mm 0,0 UV-I 0 W/m -1,7 C -8,4 C 25,7 km/h (4 Bft) 91,49 %
17.11.2018 21:08 0,7 C 5,6 C -0,6 C 84 % 1029,0 hPa 0,0 l/m 17,8 km/h (3 Bft) O-NO 65 0 min 0,000 mm 0,0 UV-I 0 W/m -1,7 C -7,7 C 22,5 km/h (4 Bft) 97,87 %
17.11.2018 21:10 0,7 C 5,6 C -0,6 C 84 % 1029,0 hPa 0,0 l/m 16,4 km/h (3 Bft) O-NO 78 0 min 0,000 mm 0,0 UV-I 0 W/m -1,7 C -6,9 C 22,5 km/h (4 Bft) 98,00 %
17.11.2018 21:12 0,7 C 5,6 C -0,6 C 84 % 1029,0 hPa 0,0 l/m 13,7 km/h (3 Bft) O-NO 65 0 min 0,000 mm 0,0 UV-I 0 W/m -1,7 C -5,3 C 19,3 km/h (3 Bft) 98,00 %
17.11.2018 21:14 0,7 C 5,6 C -0,6 C 84 % 1029,0 hPa 0,0 l/m 12,3 km/h (3 Bft) O-NO 71 0 min 0,000 mm 0,0 UV-I 0 W/m -1,7 C -4,4 C 19,3 km/h (3 Bft) 95,74 %
17.11.2018 21:16 0,7 C 5,6 C -0,6 C 84 % 1029,0 hPa 0,0 l/m 11,7 km/h (2 Bft) O-NO 74 0 min 0,000 mm 0,0 UV-I 0 W/m -1,7 C -4,0 C 17,7 km/h (3 Bft) 100,00 %
17.11.2018 21:18 0,6 C 5,6 C -1,1 C 84 % 1028,9 hPa 0,0 l/m 15,2 km/h (3 Bft) NO 40 0 min 0,000 mm 0,0 UV-I 0 W/m -1,8 C -6,4 C 20,9 km/h (4 Bft) 100,00 %
17.11.2018 21:20 0,6 C 5,6 C -1,1 C 84 % 1028,9 hPa 0,0 l/m 14,3 km/h (3 Bft) O-NO 69 0 min 0,000 mm 0,0 UV-I 0 W/m -1,8 C -5,8 C 20,9 km/h (4 Bft) 98,11 %
17.11.2018 21:22 0,6 C 5,6 C -1,1 C 84 % 1028,8 hPa 0,0 l/m 13,7 km/h (3 Bft) O-NO 66 0 min 0,000 mm 0,0 UV-I 0 W/m -1,8 C -5,5 C 19,3 km/h (3 Bft) 97,87 %
17.11.2018 21:24 0,6 C 5,6 C -1,1 C 85 % 1028,8 hPa 0,0 l/m 12,5 km/h (3 Bft) O 90 0 min 0,000 mm 0,0 UV-I 0 W/m -1,6 C -4,7 C 17,7 km/h (3 Bft) 97,87 %
17.11.2018 21:26 0,6 C 5,6 C -1,1 C 84 % 1028,8 hPa 0,0 l/m 12,7 km/h (3 Bft) O-NO 65 0 min 0,000 mm 0,0 UV-I 0 W/m -1,8 C -4,8 C 20,9 km/h (4 Bft) 100,00 %
17.11.2018 21:28 0,6 C 5,6 C -1,1 C 84 % 1028,8 hPa 0,0 l/m 14,3 km/h (3 Bft) NO 36 0 min 0,000 mm 0,0 UV-I 0 W/m -1,8 C -5,8 C 24,1 km/h (4 Bft) 97,87 %
17.11.2018 21:30 0,6 C 5,6 C -1,1 C 84 % 1028,8 hPa 0,0 l/m 9,9 km/h (2 Bft) O-NO 63 0 min 0,000 mm 0,0 UV-I 0 W/m -1,8 C -2,7 C 14,5 km/h (3 Bft) 100,00 %
17.11.2018 21:32 0,6 C 5,6 C -1,1 C 84 % 1028,8 hPa 0,0 l/m 8,8 km/h (2 Bft) O 80 0 min 0,000 mm 0,0 UV-I 0 W/m -1,8 C -1,8 C 12,9 km/h (3 Bft) 97,87 %
17.11.2018 21:34 0,5 C 5,6 C -1,1 C 85 % 1028,8 hPa 0,0 l/m 7,6 km/h (2 Bft) O-NO 58 0 min 0,000 mm 0,0 UV-I 0 W/m -1,7 C -0,7 C 12,9 km/h (3 Bft) 97,87 %
17.11.2018 21:36 0,5 C 5,6 C -1,1 C 85 % 1028,8 hPa 0,0 l/m 10,0 km/h (2 Bft) O-NO 65 0 min 0,000 mm 0,0 UV-I 0 W/m -1,7 C -2,9 C 19,3 km/h (3 Bft) 100,00 %
17.11.2018 21:38 0,4 C 5,6 C -1,1 C 85 % 1028,8 hPa 0,0 l/m 9,3 km/h (2 Bft) NO 40 0 min 0,000 mm 0,0 UV-I 0 W/m -1,8 C -2,4 C 14,5 km/h (3 Bft) 97,87 %
17.11.2018 21:40 0,3 C 5,6 C -1,1 C 85 % 1028,8 hPa 0,0 l/m 11,6 km/h (2 Bft) NO 42 0 min 0,000 mm 0,0 UV-I 0 W/m -1,9 C -4,4 C 16,1 km/h (3 Bft) 97,87 %
17.11.2018 21:42 0,3 C 5,6 C -1,1 C 85 % 1028,8 hPa 0,0 l/m 10,0 km/h (2 Bft) O 92 0 min 0,000 mm 0,0 UV-I 0 W/m -1,9 C -3,1 C 16,1 km/h (3 Bft) 97,87 %
17.11.2018 21:44 0,4 C 5,6 C -1,1 C 85 % 1028,7 hPa 0,0 l/m 9,3 km/h (2 Bft) O-NO 57 0 min 0,000 mm 0,0 UV-I 0 W/m -1,8 C -2,4 C 12,9 km/h (3 Bft) 97,87 %
17.11.2018 21:46 0,4 C 5,6 C -1,1 C 85 % 1028,8 hPa 0,0 l/m 7,8 km/h (2 Bft) O-NO 64 0 min 0,000 mm 0,0 UV-I 0 W/m -1,8 C -1,0 C 12,9 km/h (3 Bft) 97,87 %
17.11.2018 21:48 0,4 C 5,6 C -1,1 C 85 % 1028,8 hPa 0,0 l/m 9,3 km/h (2 Bft) O-NO 69 0 min 0,000 mm 0,0 UV-I 0 W/m -1,8 C -2,4 C 16,1 km/h (3 Bft) 96,00 %
17.11.2018 21:50 0,4 C 5,6 C -1,1 C 85 % 1028,9 hPa 0,0 l/m 10,6 km/h (2 Bft) O-NO 60 0 min 0,000 mm 0,0 UV-I 0 W/m -1,8 C -3,5 C 16,1 km/h (3 Bft) 93,62 %
17.11.2018 21:52 0,4 C 5,6 C -1,1 C 85 % 1028,8 hPa 0,0 l/m 10,7 km/h (2 Bft) NO 55 0 min 0,000 mm 0,0 UV-I 0 W/m -1,8 C -3,6 C 19,3 km/h (3 Bft) 96,00 %
17.11.2018 21:54 0,4 C 5,6 C -1,1 C 85 % 1028,9 hPa 0,0 l/m 13,3 km/h (3 Bft) O 83 0 min 0,000 mm 0,0 UV-I 0 W/m -1,8 C -5,4 C 24,1 km/h (4 Bft) 97,87 %
17.11.2018 21:56 0,4 C 5,6 C -1,1 C 85 % 1028,9 hPa 0,0 l/m 10,9 km/h (2 Bft) O-NO 60 0 min 0,000 mm 0,0 UV-I 0 W/m -1,8 C -3,7 C 14,5 km/h (3 Bft) 95,83 %
17.11.2018 21:58 0,4 C 5,6 C -1,1 C 85 % 1028,9 hPa 0,0 l/m 16,5 km/h (3 Bft) O-NO 71 0 min 0,000 mm 0,0 UV-I 0 W/m -1,8 C -7,4 C 24,1 km/h (4 Bft) 96,88 %
17.11.2018 22:00 0,4 C 5,6 C -1,1 C 85 % 1028,9 hPa 0,0 l/m 11,6 km/h (2 Bft) O-NO 60 0 min 0,000 mm 0,0 UV-I 0 W/m -1,8 C -4,3 C 16,1 km/h (3 Bft) 100,00 %
17.11.2018 22:02 0,4 C 5,6 C -1,1 C 85 % 1028,9 hPa 0,0 l/m 13,0 km/h (3 Bft) O-NO 65 0 min 0,025 mm 0,0 UV-I 0 W/m -1,8 C -5,2 C 20,9 km/h (4 Bft) 100,00 %
17.11.2018 22:04 0,5 C 5,6 C -1,1 C 85 % 1028,9 hPa 0,0 l/m 15,4 km/h (3 Bft) O-NO 68 0 min 0,000 mm 0,0 UV-I 0 W/m -1,7 C -6,6 C 20,9 km/h (4 Bft) 97,87 %
17.11.2018 22:06 0,5 C 5,6 C -1,1 C 85 % 1029,0 hPa 0,0 l/m 14,0 km/h (3 Bft) N-NO 31 0 min 0,000 mm 0,0 UV-I 0 W/m -1,7 C -5,8 C 19,3 km/h (3 Bft) 100,00 %
17.11.2018 22:08 0,4 C 5,6 C -1,1 C 85 % 1029,0 hPa 0,0 l/m 14,6 km/h (3 Bft) O-NO 68 0 min 0,000 mm 0,0 UV-I 0 W/m -1,8 C -6,3 C 19,3 km/h (3 Bft) 94,74 %
17.11.2018 22:10 0,4 C 5,6 C -1,1 C 85 % 1029,0 hPa 0,0 l/m 17,6 km/h (3 Bft) O-NO 59 0 min 0,000 mm 0,0 UV-I 0 W/m -1,8 C -7,9 C 22,5 km/h (4 Bft) 98,00 %
17.11.2018 22:12 0,4 C 5,6 C -1,1 C 85 % 1029,0 hPa 0,0 l/m 18,3 km/h (3 Bft) O-NO 59 0 min 0,000 mm 0,0 UV-I 0 W/m -1,8 C -8,3 C 22,5 km/h (4 Bft) 100,00 %
17.11.2018 22:14 0,4 C 5,6 C -1,1 C 85 % 1029,0 hPa 0,0 l/m 18,4 km/h (3 Bft) O 80 0 min 0,000 mm 0,0 UV-I 0 W/m -1,8 C -8,3 C 24,1 km/h (4 Bft) 100,00 %
17.11.2018 22:16 0,4 C 5,6 C -0,6 C 85 % 1029,0 hPa 0,0 l/m 13,4 km/h (3 Bft) NO 49 0 min 0,000 mm 0,0 UV-I 0 W/m -1,8 C -5,5 C 17,7 km/h (3 Bft) 93,62 %
17.11.2018 22:18 0,4 C 5,6 C -1,1 C 85 % 1029,0 hPa 0,0 l/m 13,3 km/h (3 Bft) NO 49 0 min 0,000 mm 0,0 UV-I 0 W/m -1,8 C -5,4 C 19,3 km/h (3 Bft) 97,87 %
17.11.2018 22:20 0,3 C 5,6 C -1,1 C 85 % 1029,1 hPa 0,0 l/m 16,4 km/h (3 Bft) O-NO 65 0 min 0,000 mm 0,0 UV-I 0 W/m -1,9 C -7,4 C 22,5 km/h (4 Bft) 97,87 %
17.11.2018 22:22 0,3 C 5,6 C -1,1 C 85 % 1029,0 hPa 0,0 l/m 13,5 km/h (3 Bft) O-NO 60 0 min 0,000 mm 0,0 UV-I 0 W/m -1,9 C -5,7 C 20,9 km/h (4 Bft) 95,74 %
17.11.2018 22:24 0,4 C 5,6 C -1,1 C 85 % 1029,1 hPa 0,0 l/m 12,4 km/h (3 Bft) O-NO 65 0 min 0,000 mm 0,0 UV-I 0 W/m -1,8 C -4,8 C 16,1 km/h (3 Bft) 98,00 %
17.11.2018 22:26 0,4 C 5,6 C -1,1 C 85 % 1029,1 hPa 0,0 l/m 16,2 km/h (3 Bft) NO 46 0 min 0,000 mm 0,0 UV-I 0 W/m -1,8 C -7,2 C 22,5 km/h (4 Bft) 93,62 %
17.11.2018 22:28 0,4 C 5,6 C -1,1 C 85 % 1029,1 hPa 0,0 l/m 15,1 km/h (3 Bft) O-NO 65 0 min 0,000 mm 0,0 UV-I 0 W/m -1,8 C -6,6 C 20,9 km/h (4 Bft) 97,87 %
17.11.2018 22:30 0,5 C 5,6 C -1,1 C 84 % 1029,1 hPa 0,0 l/m 13,5 km/h (3 Bft) O-NO 58 0 min 0,000 mm 0,0 UV-I 0 W/m -1,9 C -5,4 C 17,7 km/h (3 Bft) 95,83 %
17.11.2018 22:32 0,4 C 5,6 C -1,1 C 84 % 1029,1 hPa 0,0 l/m 11,1 km/h (2 Bft) O-NO 59 0 min 0,000 mm 0,0 UV-I 0 W/m -2,0 C -3,9 C 16,1 km/h (3 Bft) 96,77 %
17.11.2018 22:34 0,5 C 5,6 C -1,1 C 84 % 1029,1 hPa 0,0 l/m 11,9 km/h (2 Bft) O-NO 71 0 min 0,000 mm 0,0 UV-I 0 W/m -1,9 C -4,4 C 16,1 km/h (3 Bft) 97,87 %
17.11.2018 22:36 0,5 C 5,6 C -1,1 C 84 % 1029,2 hPa 0,0 l/m 12,8 km/h (3 Bft) O-NO 66 0 min 0,000 mm 0,0 UV-I 0 W/m -1,9 C -5,0 C 16,1 km/h (3 Bft) 96,00 %
17.11.2018 22:38 0,5 C 5,6 C -1,1 C 83 % 1029,1 hPa 0,0 l/m 9,8 km/h (2 Bft) O-NO 65 0 min 0,000 mm 0,0 UV-I 0 W/m -2,0 C -2,7 C 14,5 km/h (3 Bft) 98,00 %
17.11.2018 22:40 0,4 C 5,6 C -1,1 C 84 % 1029,1 hPa 0,0 l/m 10,7 km/h (2 Bft) O-NO 60 0 min 0,000 mm 0,0 UV-I 0 W/m -2,0 C -3,6 C 16,1 km/h (3 Bft) 96,00 %
17.11.2018 22:42 0,4 C 5,6 C -1,1 C 84 % 1029,1 hPa 0,0 l/m 10,3 km/h (2 Bft) O-NO 60 0 min 0,000 mm 0,0 UV-I 0 W/m -2,0 C -3,3 C 14,5 km/h (3 Bft) 93,62 %
17.11.2018 22:44 0,4 C 5,6 C -1,1 C 84 % 1029,1 hPa 0,0 l/m 11,8 km/h (2 Bft) O 83 0 min 0,000 mm 0,0 UV-I 0 W/m -2,0 C -4,4 C 14,5 km/h (3 Bft) 97,56 %
17.11.2018 22:46 0,4 C 5,6 C -1,1 C 84 % 1029,1 hPa 0,0 l/m 12,5 km/h (3 Bft) NO 47 0 min 0,000 mm 0,0 UV-I 0 W/m -2,0 C -4,9 C 19,3 km/h (3 Bft) 92,00 %
17.11.2018 22:48 0,4 C 5,6 C -1,1 C 83 % 1029,1 hPa 0,0 l/m 11,3 km/h (2 Bft) O-NO 71 0 min 0,000 mm 0,0 UV-I 0 W/m -2,1 C -4,0 C 19,3 km/h (3 Bft) 87,23 %
17.11.2018 22:50 0,4 C 5,6 C -1,1 C 83 % 1029,0 hPa 0,0 l/m 13,1 km/h (3 Bft) O 88 0 min 0,000 mm 0,0 UV-I 0 W/m -2,1 C -5,3 C 17,7 km/h (3 Bft) 97,37 %
17.11.2018 22:52 0,4 C 5,6 C -1,1 C 83 % 1029,0 hPa 0,0 l/m 12,7 km/h (3 Bft) O 87 0 min 0,000 mm 0,0 UV-I 0 W/m -2,1 C -5,0 C 17,7 km/h (3 Bft) 91,49 %
17.11.2018 22:54 0,3 C 5,6 C -1,1 C 83 % 1029,0 hPa 0,0 l/m 11,8 km/h (2 Bft) O-NO 64 0 min 0,000 mm 0,0 UV-I 0 W/m -2,2 C -4,5 C 16,1 km/h (3 Bft) 90,57 %
17.11.2018 22:56 0,2 C 5,6 C -1,1 C 83 % 1028,9 hPa 0,0 l/m 12,7 km/h (3 Bft) O 88 0 min 0,000 mm 0,0 UV-I 0 W/m -2,3 C -5,3 C 16,1 km/h (3 Bft) 94,00 %
17.11.2018 22:58 0,2 C 5,6 C -1,1 C 84 % 1028,9 hPa 0,0 l/m 13,4 km/h (3 Bft) O-NO 68 0 min 0,000 mm 0,0 UV-I 0 W/m -2,2 C -5,7 C 17,7 km/h (3 Bft) 91,49 %
17.11.2018 23:00 0,2 C 5,6 C -1,1 C 84 % 1028,8 hPa 0,0 l/m 12,3 km/h (3 Bft) O 88 0 min 0,000 mm 0,0 UV-I 0 W/m -2,2 C -5,0 C 16,1 km/h (3 Bft) 91,43 %
17.11.2018 23:02 0,1 C 5,6 C -1,1 C 84 % 1028,7 hPa 0,0 l/m 12,1 km/h (2 Bft) O 86 0 min 0,025 mm 0,0 UV-I 0 W/m -2,3 C -5,0 C 17,7 km/h (3 Bft) 94,12 %
17.11.2018 23:04 0,0 C 5,6 C -1,1 C 84 % 1028,7 hPa 0,0 l/m 11,4 km/h (2 Bft) O 86 0 min 0,000 mm 0,0 UV-I 0 W/m -2,4 C -4,6 C 16,1 km/h (3 Bft) 92,00 %
17.11.2018 23:06 -0,1 C 5,6 C -1,7 C 84 % 1028,8 hPa 0,0 l/m 11,9 km/h (2 Bft) O-SO 103 0 min 0,000 mm 0,0 UV-I 0 W/m -2,5 C -5,0 C 17,7 km/h (3 Bft) 92,00 %
17.11.2018 23:08 -0,1 C 5,6 C -1,7 C 85 % 1028,8 hPa 0,0 l/m 13,6 km/h (3 Bft) O 93 0 min 0,000 mm 0,0 UV-I 0 W/m -2,3 C -6,2 C 20,9 km/h (4 Bft) 94,00 %
17.11.2018 23:10 -0,2 C 5,6 C -1,7 C 85 % 1028,8 hPa 0,0 l/m 14,3 km/h (3 Bft) O 92 0 min 0,000 mm 0,0 UV-I 0 W/m -2,4 C -6,8 C 22,5 km/h (4 Bft) 93,62 %
17.11.2018 23:12 -0,2 C 5,6 C -1,1 C 85 % 1028,9 hPa 0,0 l/m 13,2 km/h (3 Bft) O-NO 74 0 min 0,000 mm 0,0 UV-I 0 W/m -2,4 C -6,1 C 22,5 km/h (4 Bft) 93,62 %
17.11.2018 23:14 -0,1 C 5,6 C -1,1 C 85 % 1028,9 hPa 0,0 l/m 13,0 km/h (3 Bft) O-NO 74 0 min 0,000 mm 0,0 UV-I 0 W/m -2,3 C -5,8 C 20,9 km/h (4 Bft) 91,43 %
17.11.2018 23:16 -0,1 C 5,6 C -1,1 C 85 % 1028,8 hPa 0,0 l/m 13,4 km/h (3 Bft) O 83 0 min 0,000 mm 0,0 UV-I 0 W/m -2,3 C -6,1 C 19,3 km/h (3 Bft) 93,62 %
17.11.2018 23:18 -0,1 C 5,6 C -1,1 C 85 % 1028,9 hPa 0,0 l/m 15,3 km/h (3 Bft) O 91 0 min 0,000 mm 0,0 UV-I 0 W/m -2,3 C -7,3 C 20,9 km/h (4 Bft) 94,00 %
17.11.2018 23:20 0,0 C 5,6 C -1,1 C 85 % 1028,9 hPa 0,0 l/m 12,7 km/h (3 Bft) O 90 0 min 0,000 mm 0,0 UV-I 0 W/m -2,2 C -5,5 C 16,1 km/h (3 Bft) 95,74 %
17.11.2018 23:22 0,0 C 5,6 C -1,1 C 84 % 1028,9 hPa 0,0 l/m 13,9 km/h (3 Bft) O 92 0 min 0,000 mm 0,0 UV-I 0 W/m -2,4 C -6,3 C 19,3 km/h (3 Bft) 97,87 %
17.11.2018 23:24 0,0 C 5,6 C -1,1 C 84 % 1028,9 hPa 0,0 l/m 12,3 km/h (3 Bft) O-NO 78 0 min 0,000 mm 0,0 UV-I 0 W/m -2,4 C -5,2 C 19,3 km/h (3 Bft) 95,74 %
17.11.2018 23:26 0,0 C 5,6 C -1,1 C 84 % 1028,9 hPa 0,0 l/m 11,2 km/h (2 Bft) O-SO 107 0 min 0,000 mm 0,0 UV-I 0 W/m -2,4 C -4,4 C 16,1 km/h (3 Bft) 100,00 %
17.11.2018 23:28 0,0 C 5,6 C -1,1 C 84 % 1028,9 hPa 0,0 l/m 12,3 km/h (3 Bft) O 99 0 min 0,000 mm 0,0 UV-I 0 W/m -2,4 C -5,2 C 17,7 km/h (3 Bft) 100,00 %
17.11.2018 23:30 -0,1 C 5,6 C -1,1 C 84 % 1028,8 hPa 0,0 l/m 13,0 km/h (3 Bft) O-SO 103 0 min 0,000 mm 0,0 UV-I 0 W/m -2,5 C -5,8 C 19,3 km/h (3 Bft) 100,00 %
17.11.2018 23:32 -0,1 C 5,6 C -1,1 C 84 % 1028,8 hPa 0,0 l/m 14,8 km/h (3 Bft) O 98 0 min 0,000 mm 0,0 UV-I 0 W/m -2,5 C -7,0 C 20,9 km/h (4 Bft) 97,87 %
17.11.2018 23:34 -0,1 C 5,6 C -1,1 C 84 % 1028,8 hPa 0,0 l/m 15,8 km/h (3 Bft) O 80 0 min 0,000 mm 0,0 UV-I 0 W/m -2,5 C -7,6 C 20,9 km/h (4 Bft) 100,00 %
17.11.2018 23:36 0,0 C 5,6 C -1,1 C 85 % 1028,8 hPa 0,0 l/m 14,2 km/h (3 Bft) O-NO 69 0 min 0,000 mm 0,0 UV-I 0 W/m -2,2 C -6,5 C 19,3 km/h (3 Bft) 100,00 %
17.11.2018 23:38 0,0 C 5,6 C -1,1 C 84 % 1028,8 hPa 0,0 l/m 16,1 km/h (3 Bft) O 88 0 min 0,000 mm 0,0 UV-I 0 W/m -2,4 C -7,6 C 22,5 km/h (4 Bft) 100,00 %
17.11.2018 23:40 0,0 C 5,6 C -1,1 C 85 % 1028,7 hPa 0,0 l/m 17,2 km/h (3 Bft) O-NO 77 0 min 0,000 mm 0,0 UV-I 0 W/m -2,2 C -8,2 C 22,5 km/h (4 Bft) 97,87 %
17.11.2018 23:42 0,1 C 5,6 C -1,1 C 84 % 1028,8 hPa 0,0 l/m 19,5 km/h (3 Bft) O 86 0 min 0,000 mm 0,0 UV-I 0 W/m -2,3 C -9,3 C 25,7 km/h (4 Bft) 97,37 %
17.11.2018 23:44 0,1 C 5,6 C -1,1 C 84 % 1028,7 hPa 0,0 l/m 19,4 km/h (3 Bft) O 80 0 min 0,000 mm 0,0 UV-I 0 W/m -2,3 C -9,2 C 25,7 km/h (4 Bft) 100,00 %
17.11.2018 23:46 0,1 C 5,6 C -1,1 C 84 % 1028,7 hPa 0,0 l/m 19,6 km/h (3 Bft) O 81 0 min 0,000 mm 0,0 UV-I 0 W/m -2,3 C -9,3 C 25,7 km/h (4 Bft) 100,00 %
17.11.2018 23:48 0,1 C 5,6 C -1,1 C 84 % 1028,8 hPa 0,0 l/m 17,9 km/h (3 Bft) O-NO 69 0 min 0,000 mm 0,0 UV-I 0 W/m -2,3 C -8,5 C 24,1 km/h (4 Bft) 100,00 %
17.11.2018 23:50 0,0 C 5,6 C -1,1 C 84 % 1028,8 hPa 0,0 l/m 16,6 km/h (3 Bft) O-NO 70 0 min 0,000 mm 0,0 UV-I 0 W/m -2,4 C -7,9 C 22,5 km/h (4 Bft) 98,11 %
17.11.2018 23:52 0,0 C 5,6 C -1,1 C 84 % 1028,7 hPa 0,0 l/m 18,8 km/h (3 Bft) O-NO 74 0 min 0,000 mm 0,0 UV-I 0 W/m -2,4 C -9,1 C 25,7 km/h (4 Bft) 100,00 %
17.11.2018 23:54 0,0 C 5,6 C -1,1 C 84 % 1028,7 hPa 0,0 l/m 17,8 km/h (3 Bft) O 80 0 min 0,000 mm 0,0 UV-I 0 W/m -2,4 C -8,5 C 25,7 km/h (4 Bft) 100,00 %
17.11.2018 23:56 0,0 C 5,6 C -1,1 C 84 % 1028,8 hPa 0,0 l/m 16,2 km/h (3 Bft) O-NO 61 0 min 0,000 mm 0,0 UV-I 0 W/m -2,4 C -7,7 C 22,5 km/h (4 Bft) 97,87 %
17.11.2018 23:58 0,0 C 5,6 C -1,1 C 84 % 1028,8 hPa 0,0 l/m 17,2 km/h (3 Bft) O-NO 71 0 min 0,000 mm 0,0 UV-I 0 W/m -2,4 C -8,2 C 22,5 km/h (4 Bft) 100,00 %
_ Min-Zeit 23:10 20:02 20:42 15:36 00:44 - 20:30 - - - - - - 16:10 06:00 19:58 22:48
Minimum _ -0,2 C 5,6 C -1,7 C 59 % 1028,3 hPa - 4,4 km/h (1 Bft) - - - - - - -2,7 C -11,7 C 6,4 km/h (2 Bft) 87,23 %
_ Max-Zeit 14:14 00:00 12:42 07:32 08:00 00:00 00:00 - - 07:51 13:00 10:54 11:40 00:00 19:58 05:28 00:00
Maximum _ 5,6 C 6,7 C 5,6 C 94 % 1030,0 hPa 0,0 l/m 34,2 km/h
O (5 Bft)
- - 3 min 0,178 mm 0,6 UV-I 347 W/m 1,6 C 1,0 C 45,1 km/h
O-NO (6 Bft)
100,00 %
Durchschnitt _ 2,4 C 6,2 C 1,6 C 82 % 1029,1 hPa #0,0 l/m 21,4 km/h (4 Bft) O-NO - #8:29 h #1,549 mm 0,6 UV-I 193 W/m -0,5 C -6,7 C 30,3 km/h (5 Bft) 96,77 %